Date StartTime U_cm/s V_cm/s W_cm/s Ustd_cm/s Vstd_cm/s Wstd_cm/s Uvar_(cm/s)^2 Vvar_(cm/s)^2 Wvar_(cm/s)^2 KE_(m/s)^2 TurbulentKE_(m/s)^2 HorizWindSpeed_cm/s FrictionSpeec_cm/s DragCoef SpeedOfSound_m/s SonicTemperature_C Pressure_mb 
10/08/2014  00:00:00     -112.311      -62.192       -6.879       41.645       38.371       23.410     1734.336     1472.297      548.005        1.014        0.188      128.381       15.474        0.015      342.848       18.545      861.282
10/08/2014  00:01:00      -55.014      -56.652        1.327       43.242       27.059       24.104     1869.909      732.193      581.014        0.471        0.159       78.969       15.251        0.037      342.794       18.453      861.290
10/08/2014  00:02:00      -54.395      -34.212       -1.687       22.079       26.533       15.953      487.481      704.026      254.491        0.279        0.072       64.260       12.811        0.040      342.771       18.415      861.299
10/08/2014  00:03:00      -54.995      -39.766       -4.365       23.374       20.104       14.675      546.354      404.166      215.349        0.290        0.058       67.866       11.758        0.030      342.791       18.447      861.292
10/08/2014  00:04:00      -49.892      -19.658        2.074       20.716       17.269        9.578      429.144      298.209       91.733        0.185        0.041       53.625        5.251        0.010      342.797       18.458      861.297
10/08/2014  00:05:00       14.003      -26.880        4.742       15.788       22.978       12.279      249.277      527.983      150.766        0.093        0.046       30.309       12.891        0.181      342.686       18.272      861.297
10/08/2014  00:06:00      -30.655        2.102        2.218       13.823       11.169       10.871      191.088      124.752      118.184        0.069        0.022       30.727        5.150        0.028      342.603       18.127      861.304
10/08/2014  00:07:00      -14.271        2.302       -2.788        7.777        8.141        5.018       60.485       66.272       25.182        0.018        0.008       14.455        5.832        0.163      342.667       18.239      861.310
10/08/2014  00:08:00       -1.103       34.483        6.789       18.600       28.633       18.705      345.943      819.827      349.891        0.138        0.076       34.501       21.018        0.371      342.532       18.008      861.307
10/08/2014  00:09:00      -53.208       64.622      -11.362       22.634       23.316       10.445      512.315      543.651      109.103        0.415        0.058       83.709        7.428        0.008      342.797       18.458      861.312
10/08/2014  00:10:00      -33.834       35.539       -5.614       14.878       12.184        8.509      221.363      148.438       72.400        0.144        0.022       49.068        5.683        0.013      342.759       18.396      861.313
10/08/2014  00:11:00      -38.172       55.792      -12.850       19.466       17.056        7.674      378.922      290.898       58.892        0.273        0.036       67.601        5.412        0.006      342.775       18.421      861.316
10/08/2014  00:12:00      -23.771       46.150       -9.337       15.913       21.205        9.808      253.239      449.668       96.201        0.179        0.040       51.912        9.222        0.032      342.869       18.580      861.332
10/08/2014  00:13:00      -56.168       68.084      -11.574       22.951       20.700       12.787      526.765      428.490      163.507        0.452        0.056       88.263       11.724        0.018      342.930       18.685      861.342
10/08/2014  00:14:00      -75.688        6.646      -11.254       17.888       43.704       12.890      319.978     1910.004      166.163        0.415        0.120       75.979       11.341        0.022      342.785       18.438      861.345
10/08/2014  00:15:00      -68.254      -14.885        3.511       31.889       25.885       14.808     1016.898      670.047      219.284        0.340        0.095       69.859       16.198        0.054      342.905       18.643      861.347
10/08/2014  00:16:00      -83.078      -35.166       -4.169       29.465       18.837       13.623      868.191      354.839      185.581        0.478        0.070       90.214       14.176        0.025      342.772       18.414      861.358
10/08/2014  00:17:00      -36.990      -42.860        3.182       16.823       17.504       12.064      283.015      306.398      145.551        0.198        0.037       56.615        6.200        0.012      342.709       18.307      861.382
10/08/2014  00:18:00      -37.979      -35.986        3.919       14.478       10.502       10.199      209.604      110.302      104.018        0.159        0.021       52.320        8.846        0.029      342.298       17.610      861.399
10/08/2014  00:19:00      -13.471      -44.335        4.231       39.955       26.363       19.581     1596.400      695.028      383.414        0.242        0.134       46.336       20.672        0.199      342.359       17.714      861.406
10/08/2014  00:20:00      -61.811      -43.337        7.321       48.868       38.842       25.927     2388.128     1508.696      672.225        0.516        0.228       75.490       24.963        0.109      342.505       17.961      861.408
10/08/2014  00:21:00      -55.835      -63.525       12.441       55.348       41.691       25.600     3063.441     1738.172      655.371        0.638        0.273       84.576       29.128        0.119      342.592       18.108      861.403
10/08/2014  00:22:00      -58.223      -74.142        3.004       38.836       28.639       23.393     1508.261      820.199      547.233        0.589        0.144       94.271       21.123        0.050      342.562       18.059      861.403
10/08/2014  00:23:00      -63.471      -83.459       -1.661       42.492       33.005       22.705     1805.590     1089.298      515.540        0.720        0.171      104.853       23.098        0.049      342.591       18.107      861.404
10/08/2014  00:24:00      -54.287      -55.642        0.848       36.860       28.100       21.603     1358.666      789.629      466.696        0.433        0.131       77.738       21.091        0.074      342.607       18.134      861.399
10/08/2014  00:25:00      -10.731      -43.494        2.518       17.262       29.956       11.487      297.991      897.338      131.947        0.167        0.066       44.798       13.007        0.084      342.598       18.120      861.397
10/08/2014  00:26:00      -37.758      -43.869        3.752       22.425       29.980       14.710      502.894      898.829      216.372        0.249        0.081       57.880       16.096        0.077      342.543       18.026      861.394
10/08/2014  00:27:00      -47.332      -12.527        2.573       18.856       16.115       12.007      355.566      259.695      144.175        0.158        0.038       48.962        9.822        0.040      342.313       17.634      861.409
10/08/2014  00:28:00      -78.456       -2.031       -2.447       10.073       15.996        9.082      101.456      255.875       82.482        0.330        0.022       78.482        5.190        0.004      342.233       17.501      861.427
10/08/2014  00:29:00      -30.070       -9.012        2.103       22.054       25.761       15.428      486.399      663.648      238.023        0.119        0.069       31.391       13.138        0.175      342.000       17.104      861.450
10/08/2014  00:30:00      -30.257       -8.074        0.315       19.845       27.589       14.373      393.808      761.158      206.585        0.117        0.068       31.315        7.731        0.061      341.981       17.071      861.458
10/08/2014  00:31:00      -46.887      -38.215        0.987       25.772       13.979       12.277      664.195      195.418      150.726        0.233        0.051       60.488       13.094        0.047      342.032       17.157      861.458
10/08/2014  00:32:00      -40.794        6.583        1.919       16.651       16.936        7.873      277.262      286.832       61.987        0.117        0.031       41.322        7.766        0.035      341.975       17.063      861.456
10/08/2014  00:33:00      -29.109        6.773        4.077       20.791       12.980        7.908      432.254      168.480       62.539        0.079        0.033       29.886       12.260        0.168      341.870       16.883      861.465
10/08/2014  00:34:00       16.265       62.620       -2.583       23.537       18.890       12.158      553.987      356.815      147.818        0.263        0.053       64.698       10.699        0.027      341.829       16.814      861.471
10/08/2014  00:35:00       63.783       32.478        8.699       31.201       30.879       18.382      973.477      953.499      337.910        0.373        0.113       71.575       14.064        0.039      341.607       16.438      861.463
10/08/2014  00:36:00      -85.565      -14.494       -4.520       70.781       26.931       20.962     5009.961      725.286      439.420        0.686        0.309       86.784       22.274        0.066      341.422       16.124      861.466
10/08/2014  00:37:00     -145.508       10.411      -13.437       48.134       29.522       22.020     2316.841      871.546      484.867        1.257        0.184      145.880       17.967        0.015      341.441       16.156      861.479
10/08/2014  00:38:00       44.485      128.349       -7.692       43.949       43.475       29.859     1931.552     1890.112      891.540        1.161        0.236      135.840       24.943        0.034      341.816       16.790      861.454
10/08/2014  00:39:00       67.092       56.196      -11.955       88.385       51.876       29.646     7811.822     2691.124      878.869        0.959        0.569       87.518       19.235        0.048      341.959       17.033      861.398
10/08/2014  00:40:00        2.296       50.591        0.370       50.769       25.836       20.686     2577.500      667.490      427.894        0.312        0.184       50.643       15.406        0.093      341.862       16.870      861.426
10/08/2014  00:41:00      -71.025      -11.059       -3.444       52.333       25.346       22.583     2738.774      642.400      509.976        0.453        0.195       71.881       28.745        0.160      341.698       16.592      861.447
10/08/2014  00:42:00       -3.357       31.012       -2.606       53.891       18.981       15.248     2904.226      360.294      232.494        0.224        0.175       31.193       17.685        0.321      341.842       16.835      861.446
10/08/2014  00:43:00       59.639       12.824       14.349       44.259       20.365       23.114     1958.840      414.730      534.269        0.342        0.145       61.002       13.480        0.049      341.572       16.378      861.413
10/08/2014  00:44:00      -40.827       -8.290      -13.573       26.875       26.121       10.115      722.242      682.328      102.313        0.171        0.075       41.660        9.443        0.051      341.722       16.632      861.435
10/08/2014  00:45:00      -22.660       -3.414      -10.707       22.959       19.813        6.051      527.093      392.574       36.620        0.080        0.048       22.916        8.156        0.127      341.916       16.963      861.444
10/08/2014  00:46:00       41.483       30.118       17.138       28.164       12.920       18.010      793.207      166.927      324.348        0.210        0.064       51.263        8.307        0.026      341.813       16.786      861.431
10/08/2014  00:47:00        8.836       23.695       -3.614       14.583       18.372       10.770      212.650      337.536      116.002        0.066        0.033       25.289       10.125        0.160      341.710       16.612      861.432
10/08/2014  00:48:00       50.246       25.284        9.655       15.286       19.998       15.024      233.647      399.936      225.734        0.206        0.043       56.249        5.683        0.010      341.612       16.446      861.427
10/08/2014  00:49:00       48.861       38.396        4.675       18.911       17.582       17.949      357.617      309.124      322.155        0.244        0.049       62.142        9.606        0.024      341.597       16.420      861.413
10/08/2014  00:50:00        8.491       67.948       -8.122       16.041       37.105       16.552      257.298     1376.793      273.964        0.333        0.095       68.477       21.183        0.096      341.891       16.919      861.405
10/08/2014  00:51:00       15.413      114.035      -15.753       14.153       11.646        7.304      200.319      135.627       53.354        0.694        0.019      115.072        3.860        0.001      342.062       17.208      861.402
10/08/2014  00:52:00       68.584       66.645        0.975       41.245       30.378       20.792     1701.119      922.852      432.316        0.610        0.153       95.631       21.774        0.052      341.988       17.084      861.394
10/08/2014  00:53:00       70.273       47.849       19.199       25.901       20.771       26.468      670.879      431.429      700.560        0.470        0.090       85.017       10.048        0.014      341.679       16.559      861.388
10/08/2014  00:54:00       50.476       10.641       14.755       27.476       25.278       23.578      754.930      638.956      555.911        0.241        0.097       51.585       12.506        0.059      341.284       15.890      861.392
10/08/2014  00:55:00       16.104      -20.585        1.029       12.567       17.822       14.568      157.938      317.612      212.227        0.069        0.034       26.135        8.904        0.116      340.908       15.254      861.407
10/08/2014  00:56:00       24.293      -26.437       -7.157       20.969       27.300       17.485      439.703      745.268      305.713        0.142        0.075       35.903       11.355        0.100      340.862       15.175      861.412
10/08/2014  00:57:00       13.407      -35.616       10.922       25.697       27.050       20.785      660.353      731.706      432.027        0.170        0.091       38.056       15.696        0.170      340.880       15.206      861.425
10/08/2014  00:58:00       27.096      -46.462        4.166       30.935       21.772       23.800      956.953      474.026      566.435        0.245        0.100       53.786       21.068        0.153      340.856       15.166      861.435
10/08/2014  00:59:00       26.437      -44.179      -12.135       29.859       30.320       20.439      891.545      919.320      417.734        0.251        0.111       51.485       16.416        0.102      341.083       15.549      861.434
10/08/2014  01:00:00       29.557      -66.717       -3.443       26.059       29.965       18.239      679.092      897.881      332.670        0.362        0.095       72.971        4.960        0.005      341.617       16.454      861.437
10/08/2014  01:01:00       -0.072      -20.348       25.517       21.925       37.241       16.056      480.698     1386.925      257.811        0.159        0.106       20.349       18.720        0.846      341.472       16.208      861.436
10/08/2014  01:02:00       -3.441      -17.513       -0.649       13.871       13.450       15.869      192.405      180.915      251.834        0.047        0.031       17.848       10.720        0.361      341.391       16.070      861.437
10/08/2014  01:03:00      -14.155      -23.488        0.003       11.818       12.671       12.842      139.660      160.555      164.919        0.061        0.023       27.424        7.896        0.083      341.433       16.142      861.454
10/08/2014  01:04:00      -48.696      -14.212        1.333       21.301       18.821       12.994      453.732      354.220      168.857        0.178        0.049       50.727       12.260        0.058      341.369       16.034      861.451
10/08/2014  01:05:00      -63.563      -34.256        0.461       38.041       32.252       15.442     1447.083     1040.174      238.441        0.397        0.136       72.207       12.334        0.029      341.214       15.773      861.455
10/08/2014  01:06:00      -76.303      -23.445        2.477       60.686       29.364       27.000     3682.838      862.239      728.981        0.583        0.264       79.824       25.127        0.099      341.201       15.750      861.466
10/08/2014  01:07:00       15.842      -12.541        6.144       65.722       28.771       30.958     4319.398      827.769      958.403        0.327        0.305       20.205       20.527        1.032      340.971       15.359      861.461
10/08/2014  01:08:00       62.533      -23.738       10.311       31.893       31.759       29.647     1017.179     1008.661      878.963        0.374        0.145       66.887       18.262        0.075      340.774       15.028      861.447
10/08/2014  01:09:00       56.097      -12.149       17.577       42.080       33.075       27.990     1770.720     1093.964      783.420        0.363        0.182       57.398       26.440        0.212      340.808       15.085      861.432
10/08/2014  01:10:00       31.536      -32.946       11.722       41.580       24.978       20.755     1728.901      623.876      430.758        0.250        0.139       45.606        8.241        0.033      341.042       15.481      861.430
10/08/2014  01:11:00      -14.280       -4.848        9.219       19.910       21.496       12.550      396.390      462.083      157.500        0.066        0.051       15.081        9.413        0.390      341.036       15.469      861.442
10/08/2014  01:12:00      -43.681        0.596        0.551       15.264       10.698        9.090      232.995      114.454       82.622        0.117        0.022       43.685        7.735        0.031      341.179       15.712      861.455
10/08/2014  01:13:00      -48.133      -10.471        0.675       19.710       15.007       11.030      388.477      225.199      121.662        0.158        0.037       49.259       10.625        0.047      341.123       15.618      861.439
10/08/2014  01:14:00      -74.612        2.568       -9.317       13.040       10.519        9.139      170.041      110.655       83.528        0.301        0.018       74.657        6.966        0.009      341.117       15.608      861.434
10/08/2014  01:15:00      -61.761       -4.278       -6.570       12.516        8.434        6.093      156.644       71.136       37.126        0.207        0.013       61.909        2.202        0.001      341.130       15.630      861.411
10/08/2014  01:16:00      -57.417       -2.117       -7.139       10.711       10.038        8.676      114.717      100.768       75.269        0.182        0.015       57.456        7.328        0.016      341.117       15.608      861.390
10/08/2014  01:17:00      -55.806      -12.371       -6.619       12.251        8.704        6.504      150.091       75.752       42.302        0.179        0.013       57.161        3.871        0.005      341.157       15.675      861.389
10/08/2014  01:18:00      -92.398      -14.797       -9.598       13.692       12.726        9.992      187.480      161.962       99.847        0.465        0.022       93.575        3.339        0.001      341.051       15.494      861.384
10/08/2014  01:19:00     -102.907      -26.892      -15.629       13.461       17.737        9.571      181.193      314.611       91.597        0.607        0.029      106.363        7.001        0.004      340.831       15.122      861.393
10/08/2014  01:20:00      -69.383       -8.841      -10.530       22.308       13.905       15.284      497.633      193.338      233.597        0.296        0.046       69.944       15.272        0.048      340.783       15.043      861.394
10/08/2014  01:21:00      -77.129      -23.904       -6.781       11.466       12.357        8.382      131.464      152.698       70.261        0.346        0.018       80.748        6.455        0.006      340.776       15.031      861.391
10/08/2014  01:22:00     -129.345      -40.673      -18.586       25.701       18.501        9.152      660.521      342.296       83.763        0.991        0.054      135.589        8.560        0.004      340.675       14.860      861.399
10/08/2014  01:23:00     -112.133      -37.358       -9.448       19.590       18.719       12.675      383.762      350.410      160.661        0.748        0.045      118.192        7.449        0.004      340.636       14.794      861.399
10/08/2014  01:24:00     -110.032      -17.217      -10.007       10.315       14.220       11.724      106.399      202.201      137.460        0.647        0.022      111.371        5.690        0.003      340.706       14.911      861.388
10/08/2014  01:25:00      -74.136       -2.950       -6.328       31.084       16.961        9.634      966.218      287.670       92.820        0.345        0.067       74.195        9.841        0.018      340.725       14.943      861.383
10/08/2014  01:26:00      -87.652       14.020       -5.216       18.645       24.148       11.099      347.635      583.106      123.196        0.448        0.053       88.766        7.493        0.007      340.709       14.917      861.365
10/08/2014  01:27:00      -91.510      -18.416       -5.434       13.774       11.522        8.308      189.717      132.764       69.028        0.457        0.020       93.344        7.468        0.006      340.868       15.186      861.347
10/08/2014  01:28:00      -85.235       -7.957      -16.046       33.638       14.117        8.566     1131.499      199.282       73.374        0.449        0.070       85.605        6.854        0.006      340.908       15.253      861.331
10/08/2014  01:29:00      -33.001       -1.216       -5.894       16.086        6.668        8.203      258.765       44.462       67.285        0.075        0.019       33.023        5.857        0.031      340.772       15.025      861.315
10/08/2014  01:30:00      -59.210       -9.019       -6.632        9.804       13.496        7.453       96.120      182.131       55.546        0.198        0.017       59.893        6.086        0.010      341.001       15.409      861.313
10/08/2014  01:31:00      -77.280      -36.064       -5.544       10.798       13.812        6.290      116.593      190.762       39.565        0.383        0.017       85.280        4.421        0.003      340.840       15.139      861.313
10/08/2014  01:32:00     -101.370      -42.248       -7.920       25.191       16.123       11.238      634.574      259.966      126.302        0.657        0.051      109.821        6.852        0.004      340.641       14.802      861.316
10/08/2014  01:33:00      -83.333      -23.964       -3.350       18.604       21.084       14.934      346.116      444.534      223.011        0.427        0.051       86.710       12.448        0.021      340.526       14.606      861.326
10/08/2014  01:34:00      -97.345      -18.091      -10.455       14.874       13.858        8.823      221.248      192.039       77.852        0.520        0.025       99.011        7.679        0.006      340.699       14.900      861.326
10/08/2014  01:35:00     -105.171      -49.140       -1.160       31.589       15.766       12.365      997.877      248.575      152.892        0.744        0.070      116.085       14.173        0.015      340.489       14.544      861.314
10/08/2014  01:36:00      -79.079      -13.804       -2.784       17.909       17.546        8.805      320.739      307.872       77.524        0.358        0.035       80.275        8.062        0.010      340.586       14.709      861.314
10/08/2014  01:37:00      -68.976       -7.565       -0.333       23.358       17.970        9.086      545.608      322.905       82.547        0.288        0.048       69.389        8.997        0.017      340.442       14.465      861.308
10/08/2014  01:38:00      -75.822      -37.894        3.102       38.356       29.010       17.758     1471.221      841.569      315.364        0.491        0.131       84.764       15.447        0.033      340.500       14.565      861.306
10/08/2014  01:39:00      -82.301      -43.215        5.914       41.305       23.596       17.025     1706.112      556.762      289.867        0.561        0.128       92.957       16.075        0.030      340.507       14.575      861.314
10/08/2014  01:40:00     -126.771      -45.966        4.025       41.503       22.259       19.150     1722.472      495.463      366.740        1.039        0.129      134.847       18.328        0.018      340.483       14.535      861.327
10/08/2014  01:41:00     -136.366      -28.913        1.192       33.187       22.141       17.148     1101.410      490.240      294.045        1.066        0.094      139.397       16.030        0.013      340.483       14.535      861.332
10/08/2014  01:42:00     -141.370      -42.734       -2.476       22.397       17.407       15.116      501.608      302.988      228.487        1.143        0.052      147.688       12.319        0.007      340.473       14.517      861.331
10/08/2014  01:43:00     -150.073      -87.047       -5.523       30.811       35.893       22.150      949.300     1288.342      490.602        1.643        0.136      173.491       17.105        0.010      340.553       14.652      861.321
10/08/2014  01:44:00     -156.886      -46.696      -15.762       27.319       30.907       20.520      746.322      955.244      421.065        1.458        0.106      163.688       13.308        0.007      340.606       14.742      861.324
10/08/2014  01:45:00     -149.381      -57.659       -7.252       35.260       48.553       20.979     1243.255     2357.399      440.101        1.487        0.202      160.123       20.718        0.017      340.541       14.631      861.337
10/08/2014  01:46:00     -109.463      -27.527       -0.436       42.384       40.549       20.202     1796.371     1644.238      408.106        0.829        0.192      112.871       20.045        0.032      340.352       14.312      861.339
10/08/2014  01:47:00     -122.348      -55.639        3.370       54.921       35.048       27.644     3016.345     1228.357      764.208        1.154        0.250      134.405       27.799        0.043      340.436       14.454      861.336
10/08/2014  01:48:00     -129.966      -51.434       -1.750       31.999       36.862       24.477     1023.937     1358.829      599.136        1.126        0.149      139.773       16.850        0.015      340.488       14.542      861.340
10/08/2014  01:49:00     -132.075      -71.107       -1.881       50.051       24.797       25.279     2505.075      614.878      639.021        1.313        0.188      150.000       21.479        0.021      340.468       14.509      861.336
10/08/2014  01:50:00      -97.914      -82.486       -4.828       53.689       47.079       27.727     2882.509     2216.399      768.814        1.114        0.293      128.028       27.945        0.048      340.491       14.549      861.323
10/08/2014  01:51:00      -90.907      -65.252        0.569       34.922       31.831       21.163     1219.581     1013.200      447.852        0.760        0.134      111.901       16.157        0.021      340.520       14.598      861.328
10/08/2014  01:52:00     -125.362      -96.277       -2.043       52.449       39.760       26.844     2750.863     1580.832      720.586        1.502        0.253      158.067       21.170        0.018      340.508       14.575      861.335
10/08/2014  01:53:00     -113.829      -49.895       -0.975       28.856       38.487       20.827      832.674     1481.256      433.764        0.910        0.137      124.284       16.752        0.018      340.515       14.590      861.320
10/08/2014  01:54:00      -92.828      -68.299        1.560       40.355       45.159       26.680     1628.548     2039.351      711.822        0.883        0.219      115.247       20.726        0.032      340.471       14.516      861.310
10/08/2014  01:55:00      -75.106      -71.748        0.475       50.238       42.833       22.342     2523.848     1834.706      499.160        0.782        0.243      103.868       18.688        0.032      340.554       14.655      861.307
10/08/2014  01:56:00      -98.082      -81.850       -0.983       47.728       35.756       23.471     2277.941     1278.519      550.897        1.021        0.205      127.748       19.517        0.023      340.522       14.600      861.297
10/08/2014  01:57:00      -77.310      -73.905       -2.211       38.333       33.872       20.431     1469.409     1147.334      417.428        0.724        0.152      106.952       20.646        0.037      340.528       14.611      861.304
10/08/2014  01:58:00      -68.297      -61.755       -0.630       31.314       38.346       15.393      980.565     1470.444      236.949        0.558        0.134       92.077       17.827        0.037      340.507       14.577      861.308
10/08/2014  01:59:00      -79.881      -61.630       -3.582       42.334       32.500       21.309     1792.205     1056.226      454.063        0.675        0.165      100.892       18.881        0.035      340.471       14.514      861.311
10/08/2014  02:00:00      -99.256      -68.997       -7.219       49.571       38.574       21.815     2457.293     1487.971      475.888        0.954        0.221      120.882       21.020        0.030      340.449       14.478      861.330
10/08/2014  02:01:00     -105.685      -91.826       -6.959       51.109       30.307       20.132     2612.135      918.519      405.308        1.179        0.197      140.004       22.968        0.027      340.486       14.539      861.346
10/08/2014  02:02:00      -87.652      -68.313        1.779       47.934       39.164       23.106     2297.700     1533.807      533.866        0.836        0.218      111.128       25.978        0.055      340.442       14.465      861.357
10/08/2014  02:03:00      -94.911      -66.982        2.894       40.957       34.538       26.723     1677.474     1192.847      714.099        0.854        0.179      116.167       23.626        0.041      340.431       14.447      861.360
10/08/2014  02:04:00      -80.256      -53.057       -2.192       30.709       27.182       21.072      943.073      738.859      444.017        0.569        0.106       96.209       17.556        0.033      340.319       14.258      861.376
10/08/2014  02:05:00      -90.672      -88.491       -5.360       45.275       43.450       20.571     2049.827     1887.879      423.183        1.022        0.218      126.697       22.869        0.033      340.408       14.407      861.372
10/08/2014  02:06:00      -92.895      -73.380       -0.321       61.022       45.472       26.687     3723.733     2067.705      712.172        1.026        0.325      118.381       26.462        0.050      340.360       14.326      861.363
10/08/2014  02:07:00      -90.087      -35.565        3.216       34.318       46.805       25.176     1177.706     2190.747      633.834        0.670        0.200       96.854       21.841        0.051      340.267       14.169      861.374
10/08/2014  02:08:00      -98.480      -45.185        0.279       36.289       29.464       19.203     1316.884      868.104      368.741        0.715        0.128      108.351       14.550        0.018      340.304       14.230      861.374
10/08/2014  02:09:00     -112.820      -29.901       -2.180       44.059       34.877       23.509     1941.158     1216.414      552.654        0.867        0.186      116.715       21.595        0.034      340.331       14.278      861.378
10/08/2014  02:10:00      -90.031      -45.388        4.273       44.282       39.161       27.214     1960.864     1533.609      740.627        0.721        0.212      100.825       27.730        0.076      340.246       14.133      861.396
10/08/2014  02:11:00     -106.843      -54.657       -3.202       59.718       32.920       27.049     3566.199     1083.738      731.627        0.990        0.269      120.011       28.020        0.055      340.282       14.195      861.408
10/08/2014  02:12:00     -136.801      -49.756       -1.151       55.718       36.776       30.172     3104.529     1352.479      910.357        1.328        0.268      145.568       26.198        0.032      340.251       14.142      861.409
10/08/2014  02:13:00     -167.345      -58.928       -0.246       63.961       53.709       31.849     4090.966     2884.702     1014.343        1.973        0.400      177.417       33.662        0.036      340.242       14.125      861.409
10/08/2014  02:14:00     -131.791      -61.443       -2.594       81.747       42.334       29.348     6682.618     1792.184      861.287        1.524        0.467      145.410       36.799        0.064      340.229       14.105      861.419
10/08/2014  02:15:00     -168.539      -85.962       -1.071       50.767       48.096       30.275     2577.260     2313.213      916.548        2.080        0.290      189.195       23.349        0.015      340.248       14.135      861.423
10/08/2014  02:16:00     -122.817      -57.712       -5.328       44.220       41.972       22.119     1955.376     1761.611      489.235        1.132        0.210      135.701       19.390        0.020      340.209       14.071      861.429
10/08/2014  02:17:00      -85.289      -29.176        7.208       55.569       30.484       23.442     3087.918      929.259      549.513        0.637        0.228       90.141       28.050        0.097      340.073       13.842      861.445
10/08/2014  02:18:00      -97.775      -29.843       -2.113       26.716       29.657       17.975      713.734      879.551      323.083        0.619        0.096      102.228       14.035        0.019      340.092       13.873      861.455
10/08/2014  02:19:00      -80.451      -26.887       -3.065       34.870       25.023       19.314     1215.885      626.127      373.014        0.471        0.111       84.825       17.403        0.042      339.829       13.431      861.455
10/08/2014  02:20:00     -114.988        3.146       -8.427       27.380       22.625       17.543      749.662      511.878      307.769        0.744        0.078      115.031       16.949        0.022      339.916       13.578      861.458
10/08/2014  02:21:00     -107.377       11.264       -9.409       23.723       22.858       17.727      562.789      522.488      314.262        0.657        0.070      107.966       11.137        0.011      339.821       13.417      861.467
10/08/2014  02:22:00     -115.803        3.649      -12.812       42.166       33.635       19.928     1777.999     1131.289      397.121        0.845        0.165      115.860       16.487        0.020      339.694       13.204      861.477
10/08/2014  02:23:00     -116.245      -23.766       -7.933       28.894       23.551       20.123      834.880      554.670      404.916        0.797        0.090      118.650       16.409        0.019      339.705       13.221      861.473
10/08/2014  02:24:00      -96.121      -34.664       -1.732       32.945       35.794       19.724     1085.371     1281.226      389.043        0.660        0.138      102.180       13.863        0.018      339.748       13.294      861.466
10/08/2014  02:25:00     -129.072      -32.838       -2.730       36.985       35.784       24.429     1367.854     1280.501      596.765        1.049        0.162      133.184       20.795        0.024      339.683       13.186      861.465
10/08/2014  02:26:00      -86.333      -13.139        1.557       46.612       29.234       21.898     2172.667      854.630      479.528        0.557        0.175       87.327       16.623        0.036      339.730       13.265      861.463
10/08/2014  02:27:00     -148.022      -40.919      -12.179       43.629       22.043       20.616     1903.516      485.873      425.037        1.327        0.141      153.574       16.707        0.012      339.832       13.436      861.456
10/08/2014  02:28:00     -128.892      -22.412      -13.627       40.730       36.041       22.802     1658.968     1298.955      519.937        1.039        0.174      130.826       21.481        0.027      339.637       13.107      861.469
10/08/2014  02:29:00     -112.067       -9.250       -7.352       49.620       35.275       23.517     2462.174     1244.328      553.046        0.848        0.213      112.448       26.708        0.056      339.642       13.115      861.465
10/08/2014  02:30:00      -96.842      -20.179       -5.709       50.149       37.047       16.555     2514.967     1372.503      274.056        0.699        0.208       98.922       19.673        0.040      339.693       13.201      861.460
10/08/2014  02:31:00     -156.569      -35.879      -17.717       21.080       32.202       15.096      444.387     1036.979      227.884        1.391        0.085      160.627        7.152        0.002      339.713       13.235      861.460
10/08/2014  02:32:00      -95.270      -12.894        3.110       25.478       24.954       19.602      649.124      622.716      384.256        0.545        0.083       96.139       10.923        0.013      339.531       12.928      861.455
10/08/2014  02:33:00     -105.840       -7.541       -6.192       37.308       25.047       16.881     1391.905      627.354      284.984        0.680        0.115      106.108       17.967        0.029      339.522       12.911      861.440
10/08/2014  02:34:00     -114.088       -6.000      -11.463       46.025       19.570       16.031     2118.315      382.980      256.979        0.797        0.138      114.245       20.066        0.031      339.554       12.966      861.437
10/08/2014  02:35:00      -90.842      -16.506       -3.038       45.938       25.480       15.662     2110.330      649.211      245.283        0.577        0.150       92.330       19.695        0.046      339.591       13.027      861.427
10/08/2014  02:36:00      -77.679      -10.351       -2.273       21.852       23.472       12.326      477.524      550.955      151.918        0.366        0.059       78.366       10.627        0.018      339.626       13.088      861.426
10/08/2014  02:37:00      -64.652      -16.607        2.897       22.209       19.574       11.520      493.233      383.138      132.718        0.274        0.050       66.751       10.077        0.023      339.571       12.996      861.425
10/08/2014  02:38:00      -98.659      -33.457       -2.609       17.554       14.083       10.484      308.145      198.340      109.922        0.574        0.031      104.177       10.553        0.010      339.787       13.362      861.422
10/08/2014  02:39:00     -122.910      -40.335       -9.455       12.366       10.131        9.755      152.918      102.639       95.161        0.859        0.018      129.359        2.694        0.000      339.727       13.260      861.414
10/08/2014  02:40:00     -105.161      -24.913       -6.742       21.378       17.506       16.611      457.004      306.473      275.932        0.638        0.052      108.072       10.950        0.010      339.751       13.300      861.420
10/08/2014  02:41:00      -99.161        6.415       -6.691       28.169       21.141       21.244      793.507      446.949      451.300        0.581        0.085       99.369       18.039        0.033      339.611       13.062      861.407
10/08/2014  02:42:00     -106.864       -4.843       -2.837       33.238       19.932       14.728     1104.792      397.297      216.925        0.658        0.086      106.974       13.432        0.016      339.699       13.210      861.405
10/08/2014  02:43:00     -113.617      -32.087       -7.301       24.610       22.718       14.297      605.651      516.129      204.406        0.766        0.066      118.061       10.887        0.009      339.706       13.222      861.395
10/08/2014  02:44:00     -115.945      -51.476       -4.153       19.960       20.580       13.234      398.416      423.538      175.148        0.855        0.050      126.858       10.571        0.007      339.512       12.895      861.381
10/08/2014  02:45:00      -68.459      -36.065        1.865       48.683       25.204       18.105     2370.061      635.247      327.804        0.466        0.167       77.378       20.286        0.069      339.402       12.709      861.386
10/08/2014  02:46:00     -115.661      -57.347       -3.301       22.989       16.593       17.894      528.514      275.343      320.190        0.890        0.056      129.098       11.581        0.008      339.586       13.019      861.382
10/08/2014  02:47:00     -103.902      -23.875       -2.652       32.464       21.757       20.142     1053.911      473.354      405.712        0.665        0.097      106.610       18.641        0.031      339.497       12.871      861.382
10/08/2014  02:48:00     -105.230      -18.411       -3.824       50.036       25.184       20.683     2503.581      634.211      427.806        0.750        0.178      106.829       21.756        0.041      339.304       12.545      861.389
10/08/2014  02:49:00     -139.273      -36.669       -3.426       40.762       27.683       19.944     1661.559      766.322      397.777        1.179        0.141      144.020       22.650        0.025      339.193       12.359      861.397
10/08/2014  02:50:00     -143.827      -35.993       -7.988       28.468       26.964       16.264      810.416      727.031      264.506        1.192        0.090      148.262        9.214        0.004      339.165       12.311      861.383
10/08/2014  02:51:00     -124.016      -54.768       -2.284       30.786       29.882       18.364      947.788      892.913      337.224        1.028        0.109      135.571       11.843        0.008      339.158       12.300      861.370
10/08/2014  02:52:00      -82.369      -52.316        2.771       37.770       24.206       20.178     1426.546      585.917      407.141        0.597        0.121       97.579       14.446        0.022      339.209       12.386      861.370
10/08/2014  02:53:00      -95.450      -44.315        1.780       45.019       30.658       23.207     2026.669      939.897      538.565        0.729        0.175      105.236       24.271        0.053      339.467       12.821      861.353
10/08/2014  02:54:00      -35.807      -21.575       11.116       43.027       24.306       18.710     1851.295      590.775      350.083        0.233        0.140       41.805       17.515        0.176      339.533       12.931      861.338
10/08/2014  02:55:00      -54.897       -2.980       -2.972       27.371       12.873        8.818      749.161      165.724       77.762        0.201        0.050       54.978        8.716        0.025      339.564       12.984      861.330
10/08/2014  02:56:00      -55.398      -26.440        3.978       24.112       22.087       13.782      581.399      487.820      189.941        0.252        0.063       61.384       16.796        0.075      339.544       12.952      861.314
10/08/2014  02:57:00      -90.950      -28.263       -1.445       39.771       18.588       14.909     1581.770      345.532      222.289        0.561        0.107       95.241       17.565        0.034      339.439       12.774      861.304
10/08/2014  02:58:00      -79.831      -14.941       -2.238       33.984       17.815       15.573     1154.930      317.383      242.528        0.416        0.086       81.217       17.754        0.048      339.455       12.799      861.302
10/08/2014  02:59:00      -77.672      -24.654       -1.044       17.015       22.464       12.210      289.524      504.623      149.089        0.379        0.047       81.491        9.446        0.013      339.531       12.928      861.297
10/08/2014  03:00:00      -86.447      -24.107       -8.736       18.509       11.747       12.062      342.582      138.000      145.497        0.438        0.031       89.746        8.236        0.008      339.589       13.026      861.287
10/08/2014  03:01:00      -65.185      -17.771       -6.332       18.777       13.818       10.523      352.572      190.927      110.732        0.263        0.033       67.564       10.705        0.025      339.594       13.035      861.279
10/08/2014  03:02:00      -65.085      -34.568        1.315       19.055       15.944        8.688      363.111      254.217       75.480        0.306        0.035       73.695        6.880        0.009      339.553       12.967      861.277
10/08/2014  03:03:00      -59.726      -34.330       -0.166       33.593       17.546       17.137     1128.519      307.874      293.664        0.324        0.087       68.889        9.086        0.017      339.436       12.766      861.270
10/08/2014  03:04:00      -68.931      -10.910       -4.288       27.658       12.135        9.720      764.960      147.252       94.470        0.295        0.050       69.789        9.886        0.020      339.497       12.869      861.269
10/08/2014  03:05:00      -72.716      -36.339       -5.482       27.040       20.859       14.591      731.179      435.103      212.904        0.401        0.069       81.290       12.296        0.023      339.412       12.727      861.280
10/08/2014  03:06:00     -107.383      -33.311        2.634       31.055       26.333       15.889      964.436      693.425      252.451        0.728        0.096      112.431       17.018        0.023      339.315       12.563      861.284
10/08/2014  03:07:00      -96.600      -26.363       -8.195       17.129       15.525       13.584      293.417      241.015      184.523        0.541        0.036      100.133        5.582        0.003      339.311       12.556      861.285
10/08/2014  03:08:00      -75.946      -20.824       -3.370       14.397       11.195        8.502      207.280      125.330       72.287        0.331        0.020       78.749        6.461        0.007      339.342       12.608      861.265
10/08/2014  03:09:00      -62.749      -57.209       -2.245       29.812       27.659       13.897      888.771      765.003      193.134        0.453        0.092       84.913       16.602        0.038      339.515       12.901      861.242
10/08/2014  03:10:00      -41.529      -87.702        0.340       20.292       24.140       17.118      411.772      582.760      293.021        0.535        0.064       97.038       15.116        0.024      339.681       13.182      861.244
10/08/2014  03:11:00      -19.900      -40.255        8.808       20.697       34.539       12.809      428.358     1192.975      164.059        0.194        0.089       44.905       11.027        0.060      339.672       13.165      861.254
10/08/2014  03:12:00      -11.613        7.320       17.012       16.632       14.360       12.968      276.622      206.215      168.163        0.056        0.033       13.727       10.763        0.615      339.295       12.530      861.258
10/08/2014  03:13:00      -38.721        9.109        3.330       21.071       13.982       12.326      443.982      195.498      151.925        0.119        0.040       39.778       10.526        0.070      339.355       12.631      861.264
10/08/2014  03:14:00      -19.862        1.001        7.832       16.084       13.203        7.287      258.684      174.324       53.101        0.047        0.024       19.887        7.403        0.139      339.280       12.505      861.262
10/08/2014  03:15:00      -33.378        3.803        9.236       24.200       13.681        9.179      585.634      187.168       84.248        0.104        0.043       33.594        5.329        0.025      339.298       12.535      861.248
10/08/2014  03:16:00      -14.301      -30.100        3.623       10.889       11.005       11.740      118.570      121.109      137.837        0.075        0.019       33.324        6.058        0.033      339.563       12.982      861.234
10/08/2014  03:17:00      -38.659      -37.328        0.997       13.830       23.364       12.744      191.269      545.868      162.407        0.189        0.045       53.740        9.547        0.032      339.668       13.160      861.225
10/08/2014  03:18:00      -45.033       -4.104       -1.978       11.564       12.009        8.546      133.716      144.212       73.036        0.120        0.018       45.220        6.567        0.021      339.489       12.854      861.244
10/08/2014  03:19:00      -67.566      -16.627       -8.758        8.623       13.577        8.667       74.352      184.324       75.112        0.263        0.017       69.582        5.170        0.006      339.460       12.806      861.245
10/08/2014  03:20:00      -64.267      -44.499       -4.548       19.347       13.026       10.565      374.296      169.666      111.610        0.339        0.033       78.169       10.477        0.018      339.436       12.768      861.233
10/08/2014  03:21:00      -39.051      -43.412        4.145       28.740       20.536       16.515      826.003      421.741      272.755        0.247        0.076       58.392       13.815        0.056      339.367       12.653      861.210
10/08/2014  03:22:00       -9.080      -12.679        9.705       26.027       12.726       17.610      677.387      161.953      310.128        0.074        0.057       15.595       16.498        1.119      339.150       12.286      861.200
10/08/2014  03:23:00      -46.656       -7.043        1.362       39.043       11.923       12.204     1524.364      142.157      148.936        0.202        0.091       47.184       17.336        0.135      339.163       12.307      861.207
10/08/2014  03:24:00      -80.877       -9.127       -8.666       18.474       10.799        7.634      341.282      116.623       58.279        0.361        0.026       81.390        6.072        0.006      339.247       12.449      861.210
10/08/2014  03:25:00      -71.495      -13.541       -3.744       28.466       17.069       10.174      810.309      291.342      103.514        0.326        0.060       72.766       12.292        0.029      339.235       12.429      861.211
10/08/2014  03:26:00      -26.542      -21.098       10.279       32.467       14.366       11.571     1054.082      206.385      133.895        0.132        0.070       33.905       12.901        0.145      339.207       12.382      861.217
10/08/2014  03:27:00      -34.894      -32.492       -0.108       18.270       14.405        9.126      333.777      207.510       83.284        0.145        0.031       47.679        9.055        0.036      339.221       12.405      861.222
10/08/2014  03:28:00      -59.249      -20.842       -3.254       21.675       12.495       10.340      469.812      156.129      106.911        0.234        0.037       62.808        9.291        0.022      339.308       12.552      861.226
10/08/2014  03:29:00      -40.461      -13.913        1.009       12.303       16.242       12.408      151.353      263.788      153.968        0.120        0.028       42.787        8.911        0.043      339.181       12.338      861.233
10/08/2014  03:30:00      -46.943      -30.806       -1.173        8.851        7.665        6.546       78.347       58.755       42.844        0.167        0.009       56.149        4.036        0.005      339.304       12.545      861.228
10/08/2014  03:31:00      -31.992      -22.994        9.272       30.533       13.955       11.751      932.290      194.735      138.079        0.145        0.063       39.398        9.951        0.064      339.185       12.345      861.220
10/08/2014  03:32:00      -54.070      -37.301       -1.837       28.438       24.701       17.573      808.717      610.137      308.824        0.302        0.086       65.688       11.411        0.030      339.058       12.132      861.214
10/08/2014  03:33:00       -1.952      -10.502        1.742       22.124       10.305        9.971      489.469      106.192       99.415        0.041        0.035       10.682       11.242        1.108      339.031       12.085      861.224
10/08/2014  03:34:00      -51.521      -18.189       -0.999       36.423       21.038       11.522     1326.642      442.613      132.749        0.244        0.095       54.637        9.759        0.032      339.136       12.263      861.226
10/08/2014  03:35:00      -70.401       12.492       -1.532       10.766       11.094        6.500      115.901      123.075       42.246        0.270        0.014       71.501        3.109        0.002      339.103       12.205      861.223
10/08/2014  03:36:00      -40.803      -12.284       -2.142       20.347       29.935        8.365      413.982      896.120       69.978        0.160        0.069       42.612        9.190        0.047      339.124       12.242      861.234
10/08/2014  03:37:00      -71.522      -32.043        1.942       32.647       18.723       12.354     1065.807      350.550      152.614        0.386        0.078       78.372       11.928        0.023      339.124       12.244      861.247
10/08/2014  03:38:00      -74.503       -8.721       -2.069       26.115       19.004        9.515      681.995      361.150       90.545        0.338        0.057       75.012        3.055        0.002      339.105       12.210      861.248
10/08/2014  03:39:00      -64.712      -20.067       -4.078       29.323       16.801        8.980      859.815      282.275       80.645        0.291        0.061       67.752        7.650        0.013      339.142       12.271      861.242
10/08/2014  03:40:00      -87.162      -24.444       -1.731       21.485       17.093       12.824      461.605      292.176      164.462        0.456        0.046       90.525       10.267        0.013      339.192       12.355      861.233
10/08/2014  03:41:00      -87.071      -12.800       -3.767       25.136       23.370       13.266      631.805      546.170      175.988        0.456        0.068       88.007       11.016        0.016      339.089       12.183      861.236
10/08/2014  03:42:00      -56.903      -19.266       -4.526       17.452       18.682       11.230      304.580      349.009      126.124        0.220        0.039       60.076        7.888        0.017      338.983       12.004      861.243
10/08/2014  03:43:00      -65.750       -9.158       -0.029       29.479       16.739       15.130      868.984      280.200      228.907        0.289        0.069       66.384       17.830        0.072      338.995       12.024      861.237
10/08/2014  03:44:00      -81.409      -33.489       -5.446       21.937       15.869       10.367      481.237      251.823      107.467        0.431        0.042       88.028        9.935        0.013      339.086       12.178      861.236
10/08/2014  03:45:00     -101.403      -13.656      -14.458       21.670       14.169       14.495      469.578      200.758      210.119        0.578        0.044      102.318       11.909        0.014      339.026       12.077      861.238
10/08/2014  03:46:00     -125.395       -8.720       -9.256       22.658       21.978       15.259      513.380      483.024      232.835        0.856        0.061      125.697       12.695        0.010      339.011       12.053      861.243
10/08/2014  03:47:00     -137.167      -45.030       -0.259       29.762       26.228       20.176      885.777      687.905      407.076        1.141        0.099      144.369       13.492        0.009      339.023       12.072      861.244
10/08/2014  03:48:00      -85.235      -27.705        4.760       43.688       31.598       19.967     1908.662      998.465      398.691        0.568        0.165       89.624       16.591        0.034      338.953       11.953      861.249
10/08/2014  03:49:00      -93.181       -5.578       -5.931       27.496       14.950       14.640      756.056      223.514      214.317        0.497        0.060       93.348       14.949        0.026      338.785       11.672      861.267
10/08/2014  03:50:00     -145.134       -4.055      -19.950       19.057       10.614        7.970      363.171      112.650       63.522        1.101        0.027      145.191        6.642        0.002      338.985       12.010      861.282
10/08/2014  03:51:00     -146.563      -16.361      -18.988       22.799       24.761       15.045      519.778      613.100      226.347        1.173        0.068      147.473       11.171        0.006      338.797       11.693      861.283
10/08/2014  03:52:00     -111.016      -20.724       -9.713       29.673       24.888       16.779      880.502      619.410      281.532        0.731        0.089      112.934       16.784        0.022      338.706       11.540      861.278
10/08/2014  03:53:00     -140.423       -4.368       -8.122       49.467       25.693       19.639     2446.985      660.118      385.693        1.165        0.175      140.491       22.482        0.026      338.738       11.593      861.277
10/08/2014  03:54:00     -124.693      -42.410      -13.176       29.413       24.106       24.718      865.123      581.097      610.976        0.979        0.103      131.708       18.261        0.019      338.728       11.576      861.288
10/08/2014  03:55:00     -155.454      -41.835       -4.034       30.795       26.537       20.344      948.308      704.196      413.890        1.400        0.103      160.985       19.157        0.014      338.702       11.533      861.285
10/08/2014  03:56:00     -153.784      -17.084      -12.432       24.635       16.106       12.710      606.871      259.418      161.555        1.256        0.051      154.730        8.236        0.003      338.752       11.617      861.281
10/08/2014  03:57:00     -110.406      -26.750       -5.672       30.994       17.282       17.477      960.601      298.667      305.458        0.725        0.078      113.600       18.293        0.026      338.767       11.644      861.278
10/08/2014  03:58:00     -107.245      -13.001      -16.130       22.687       20.876       12.438      514.721      435.810      154.705        0.652        0.055      108.030        5.651        0.003      338.752       11.616      861.281
10/08/2014  03:59:00     -102.300      -18.846       -7.347       38.194       29.393       20.537     1458.806      863.941      421.778        0.681        0.137      104.021       21.060        0.041      338.745       11.606      861.280
10/08/2014  04:00:00     -151.593      -30.629      -16.737       22.020       15.557       16.020      484.866      242.031      256.631        1.259        0.049      154.656       11.444        0.005      338.718       11.559      861.287
10/08/2014  04:01:00      -96.020      -17.319       -1.039       29.956       23.095       16.186      897.384      533.392      261.999        0.561        0.085       97.570       17.407        0.032      338.615       11.386      861.298
10/08/2014  04:02:00     -108.586      -15.492       -5.263       27.868       19.702       16.918      776.615      388.166      286.203        0.675        0.073      109.685       15.644        0.020      338.682       11.499      861.293
10/08/2014  04:03:00     -136.732      -25.016      -16.931       20.046       19.232       13.876      401.841      369.887      192.543        1.029        0.048      139.002       10.510        0.006      338.666       11.473      861.285
10/08/2014  04:04:00      -69.032       -5.883        5.013       40.777       46.804       22.203     1662.765     2190.645      492.977        0.459        0.217       69.282       20.759        0.090      338.657       11.458      861.277
10/08/2014  04:05:00      -78.533      -11.420       -8.950       40.326       35.235       20.211     1626.161     1241.478      408.504        0.483        0.164       79.359       17.065        0.046      338.865       11.807      861.262
10/08/2014  04:06:00     -101.100      -52.142      -10.743       36.575       32.404       22.474     1337.767     1050.019      505.101        0.797        0.145      113.755       13.530        0.014      338.697       11.523      861.260
10/08/2014  04:07:00      -90.139      -61.701       -3.486       44.381       48.583       29.150     1969.681     2360.346      849.734        0.856        0.259      109.234       29.498        0.073      338.608       11.375      861.262
10/08/2014  04:08:00     -103.953      -21.657       -1.127       76.183       32.493       29.182     5803.797     1055.826      851.610        0.949        0.386      106.185       33.535        0.100      338.622       11.397      861.257
10/08/2014  04:09:00     -165.797      -52.596      -12.987       56.716       45.572       25.295     3216.741     2076.845      639.845        1.818        0.297      173.939       27.088        0.024      338.578       11.324      861.259
10/08/2014  04:10:00     -127.499       -8.365      -12.838       63.525       37.539       26.052     4035.426     1409.164      678.698        1.131        0.306      127.774       27.043        0.045      338.661       11.463      861.259
10/08/2014  04:11:00      -45.465        3.428       -0.541       44.230       34.965       20.314     1956.261     1222.578      412.656        0.283        0.180       45.594       21.934        0.231      338.773       11.652      861.242
10/08/2014  04:12:00      -58.721      -23.665       -3.556       35.198       32.719       18.457     1238.893     1070.515      340.647        0.333        0.133       63.310        7.984        0.016      338.763       11.636      861.233
10/08/2014  04:13:00     -110.383      -68.647      -12.925       29.993       35.965       21.190      899.568     1293.463      449.010        0.985        0.132      129.988       16.869        0.017      338.723       11.569      861.227
10/08/2014  04:14:00      -95.563      -68.091       -7.631       62.298       47.200       28.368     3881.074     2227.796      804.739        1.037        0.346      117.340       30.185        0.066      338.651       11.446      861.218
10/08/2014  04:15:00     -124.721      -54.465       -5.959       28.755       25.235       14.952      826.838      636.805      223.571        1.012        0.084      136.095       11.882        0.008      338.674       11.487      861.229
10/08/2014  04:16:00     -119.504      -44.555      -14.252       13.089       16.277        9.610      171.312      264.929       92.349        0.850        0.026      127.539        3.545        0.001      338.799       11.695      861.234
10/08/2014  04:17:00     -126.074      -52.888      -10.332       18.299       16.500       13.439      334.839      272.251      180.606        0.979        0.039      136.718       13.946        0.010      338.710       11.545      861.239
10/08/2014  04:18:00     -140.611      -48.363      -11.445       25.119       24.775       17.700      630.981      613.794      313.293        1.190        0.078      148.696       15.679        0.011      338.656       11.453      861.259
10/08/2014  04:19:00     -117.987      -20.863      -10.530       30.286       17.344       14.167      917.218      300.819      200.697        0.794        0.071      119.817       10.218        0.007      338.691       11.514      861.270
10/08/2014  04:20:00     -118.791      -22.784      -13.462       28.226       15.954       16.995      796.688      254.521      288.830        0.808        0.067      120.956       14.008        0.013      338.644       11.435      861.261
10/08/2014  04:21:00     -130.760      -56.805       -9.885       21.026       19.260       11.226      442.105      370.936      126.030        1.068        0.047      142.566        9.638        0.005      338.767       11.643      861.265
10/08/2014  04:22:00     -130.048      -53.766      -13.196       15.363       17.165       10.341      236.021      294.638      106.930        1.031        0.032      140.724        6.998        0.002      338.865       11.808      861.264
10/08/2014  04:23:00     -121.066      -52.379      -16.238       14.404       12.478       11.848      207.465      155.711      140.381        0.908        0.025      131.911        9.238        0.005      338.842       11.767      861.257
10/08/2014  04:24:00     -138.948      -48.106      -12.407       14.795       15.221       11.636      218.892      231.687      135.396        1.118        0.029      147.040        7.297        0.002      338.784       11.672      861.273
10/08/2014  04:25:00     -111.799      -34.516       -8.762       14.930       18.048       12.225      222.901      325.712      149.459        0.723        0.035      117.006        7.698        0.004      338.718       11.559      861.278
10/08/2014  04:26:00      -98.957      -56.548       -1.307       42.065       32.878       23.468     1769.506     1080.961      550.764        0.820        0.170      113.975       21.045        0.034      338.675       11.489      861.282
10/08/2014  04:27:00      -67.705      -54.922        0.454       52.192       34.564       22.147     2723.995     1194.660      490.489        0.600        0.220       87.180       26.396        0.092      338.701       11.530      861.288
10/08/2014  04:28:00     -115.926      -67.408       -0.943       38.341       34.015       21.608     1470.003     1157.003      466.897        1.054        0.155      134.100       19.506        0.021      338.733       11.584      861.298
10/08/2014  04:29:00      -88.882      -77.329       -2.067       37.029       27.088       22.908     1371.133      733.778      524.788        0.826        0.131      117.813       16.698        0.020      338.852       11.786      861.295
10/08/2014  04:30:00     -107.107      -76.315        1.619       47.422       36.828       22.282     2248.837     1356.282      496.484        1.070        0.205      131.514       21.196        0.026      338.930       11.917      861.297
10/08/2014  04:31:00     -115.402      -69.296       -0.856       35.819       34.527       20.504     1282.986     1192.083      420.427        1.051        0.145      134.609       19.405        0.021      338.971       11.986      861.308
10/08/2014  04:32:00      -79.232      -79.306        4.976       49.999       44.271       27.012     2499.929     1959.884      729.627        0.889        0.259      112.103       20.500        0.033      338.875       11.822      861.326
10/08/2014  04:33:00     -125.398      -81.321       -3.199       40.778       33.218       26.446     1662.885     1103.421      699.390        1.291        0.173      149.458       27.193        0.033      338.849       11.781      861.331
10/08/2014  04:34:00     -106.850      -60.653        5.053       41.337       31.323       22.489     1708.739      981.117      505.748        0.916        0.160      122.864       21.805        0.031      338.814       11.721      861.351
10/08/2014  04:35:00     -120.942      -35.574       -2.337       43.123       27.296       21.848     1859.581      745.061      477.332        0.949        0.154      126.066       20.547        0.027      338.775       11.655      861.372
10/08/2014  04:36:00     -128.506      -55.056       -3.597       36.878       35.971       20.292     1360.002     1293.925      411.776        1.131        0.153      139.804       15.019        0.012      338.821       11.733      861.388
10/08/2014  04:37:00     -103.619      -25.659       -0.857       26.263       25.384       17.036      689.755      644.328      290.210        0.651        0.081      106.749       14.739        0.019      338.766       11.641      861.383
10/08/2014  04:38:00     -107.339      -45.688       -2.711       40.278       37.400       20.293     1622.340     1398.724      411.787        0.852        0.172      116.658       16.273        0.019      338.892       11.854      861.383
10/08/2014  04:39:00      -94.724      -40.871        0.817       34.389       24.785       19.076     1182.617      614.275      363.889        0.640        0.108      103.166       18.083        0.031      338.881       11.833      861.382
10/08/2014  04:40:00     -117.852      -40.732      -11.794       32.658       33.772       18.372     1066.533     1140.554      337.544        0.912        0.127      124.693       15.917        0.016      338.860       11.798      861.382
10/08/2014  04:41:00     -163.027      -58.332       -5.278       23.413       22.841       14.404      548.154      521.720      207.482        1.564        0.064      173.149       10.687        0.004      338.813       11.719      861.389
10/08/2014  04:42:00      -70.852      -39.418        2.757       45.056       30.371       24.793     2030.035      922.376      614.707        0.507        0.178       81.078       25.269        0.097      338.832       11.752      861.404
10/08/2014  04:43:00      -87.125      -51.085       -0.994       34.779       31.413       22.364     1209.544      986.793      500.140        0.645        0.135      100.997       15.039        0.022      338.872       11.818      861.405
10/08/2014  04:44:00      -69.913      -54.839        5.562       35.450       33.559       27.733     1256.677     1126.175      769.108        0.554        0.158       88.854       19.905        0.050      338.790       11.681      861.405
10/08/2014  04:45:00     -116.363      -70.127       -6.612       35.779       24.184       21.288     1280.142      584.861      453.194        1.041        0.116      135.861       15.202        0.013      338.786       11.673      861.420
10/08/2014  04:46:00     -104.876      -60.715       -2.487       23.111       20.055       17.190      534.102      402.200      295.495        0.796        0.062      121.183       14.535        0.014      338.833       11.752      861.419
10/08/2014  04:47:00      -47.187      -37.201        2.248       30.465       20.426       15.448      928.117      417.224      238.627        0.260        0.079       60.088       15.071        0.063      338.744       11.603      861.407
10/08/2014  04:48:00      -62.484      -30.587       -0.869       25.611       18.686       15.176      655.920      349.172      230.318        0.304        0.062       69.568       15.097        0.047      338.783       11.668      861.389
10/08/2014  04:49:00      -97.144      -47.308       -7.881       26.243       21.293       13.509      688.682      453.378      182.494        0.653        0.066      108.050       10.692        0.010      338.744       11.602      861.393
10/08/2014  04:50:00     -100.271       -5.148       -9.350       27.089       20.624       17.314      733.821      425.342      299.766        0.581        0.073      100.403       15.968        0.025      338.597       11.357      861.410
10/08/2014  04:51:00      -90.069      -15.236        0.958       26.264       17.866       17.261      689.789      319.210      297.934        0.483        0.065       91.348       15.684        0.029      338.495       11.185      861.420
10/08/2014  04:52:00      -83.744      -38.100        9.556       43.139       22.125       17.985     1861.007      489.504      323.451        0.561        0.134       92.004       17.719        0.037      338.633       11.416      861.433
10/08/2014  04:53:00      -28.158      -31.957        1.114       27.839       21.762       14.644      775.022      473.572      214.444        0.164        0.073       42.592        9.176        0.046      338.526       11.238      861.442
10/08/2014  04:54:00      -54.409      -70.554       -0.824       29.060       43.526       21.734      844.476     1894.520      472.362        0.557        0.161       89.096       20.281        0.052      338.632       11.415      861.442
10/08/2014  04:55:00      -71.756      -61.060       -1.543       36.056       32.008       24.256     1300.053     1024.502      588.346        0.590        0.146       94.218       24.095        0.065      338.748       11.609      861.456
10/08/2014  04:56:00     -125.907      -68.858      -13.905       25.655       26.707       17.190      658.188      713.237      295.512        1.123        0.083      143.506       11.587        0.007      338.703       11.535      861.473
10/08/2014  04:57:00      -87.911      -28.074       -8.052       16.474       13.053        7.160      271.399      170.372       51.273        0.454        0.025       92.284        3.416        0.001      338.781       11.666      861.479
10/08/2014  04:58:00      -55.983      -27.414       -6.244       13.265       13.887        6.514      175.948      192.841       42.439        0.217        0.021       62.334        4.160        0.004      338.930       11.916      861.480
10/08/2014  04:59:00      -97.859      -44.916       -3.796       46.400       20.157       14.932     2153.006      406.314      222.974        0.719        0.139      107.675       19.612        0.033      338.732       11.583      861.481
10/08/2014  05:00:00     -148.455      -32.149       -7.516       35.850       23.968       20.010     1285.189      574.475      400.382        1.269        0.113      151.896       17.358        0.013      338.638       11.426      861.505
10/08/2014  05:01:00     -118.840      -29.698       -2.380       31.165       30.084       20.828      971.237      905.053      433.805        0.866        0.116      122.494       16.982        0.019      338.724       11.569      861.528
10/08/2014  05:02:00      -65.257        0.014       -5.435       30.943       20.772       13.104      957.487      431.485      171.704        0.292        0.078       65.257       12.935        0.039      338.761       11.632      861.532
10/08/2014  05:03:00      -60.709      -51.821       -2.421       35.512       29.016       22.516     1261.085      841.903      506.951        0.449        0.130       79.819       12.436        0.024      338.825       11.740      861.528
10/08/2014  05:04:00     -106.988      -66.503        3.299       39.823       42.921       21.505     1585.857     1842.182      462.452        0.988        0.195      125.973       19.030        0.023      338.683       11.502      861.525
10/08/2014  05:05:00     -116.340       -9.659      -11.419       22.111       25.460       13.542      488.886      648.228      183.376        0.754        0.066      116.740       12.958        0.012      338.765       11.638      861.526
10/08/2014  05:06:00     -141.289      -10.843      -17.339       15.447       20.876       14.549      238.612      435.807      211.681        1.063        0.044      141.704        9.296        0.004      338.597       11.356      861.529
10/08/2014  05:07:00      -85.587      -20.378       -3.115       33.379       21.614       15.650     1114.180      467.160      244.928        0.479        0.091       87.979       15.747        0.032      338.594       11.351      861.527
10/08/2014  05:08:00      -64.331      -33.924        3.663       46.001       30.212       18.688     2116.109      912.785      349.245        0.434        0.169       72.727       15.028        0.043      338.565       11.303      861.528
10/08/2014  05:09:00      -88.384      -23.380       -4.513       40.615       24.161       19.604     1649.583      583.768      384.327        0.550        0.131       91.424       18.537        0.041      338.418       11.056      861.528
10/08/2014  05:10:00      -57.279       26.402      -11.001       25.250       31.724       19.708      637.584     1006.381      388.423        0.307        0.102       63.071       17.397        0.076      338.828       11.744      861.511
10/08/2014  05:11:00      -60.705       35.717      -12.860       19.463       26.262       12.411      378.827      689.669      154.021        0.317        0.061       70.433        8.862        0.016      339.154       12.293      861.485
10/08/2014  05:12:00      -85.825      -37.195      -12.238       32.645       28.154       14.596     1065.687      792.660      213.045        0.548        0.104       93.538        9.762        0.011      338.778       11.661      861.479
10/08/2014  05:13:00     -102.821      -64.968       -6.256       34.906       34.602       20.530     1218.457     1197.321      421.476        0.883        0.142      121.626       18.815        0.024      338.403       11.030      861.478
10/08/2014  05:14:00      -68.116        5.159       -3.326       24.602       14.119       12.457      605.239      199.336      155.189        0.282        0.048       68.312       12.165        0.032      338.702       11.532      861.477
10/08/2014  05:15:00      -53.954      -23.162       -0.942       28.444       26.369       15.249      809.063      695.331      232.518        0.259        0.087       58.716       14.449        0.061      338.629       11.411      861.485
10/08/2014  05:16:00      -87.200      -67.933       -8.809       30.129       26.699       18.392      907.729      712.823      338.265        0.713        0.098      110.538        7.787        0.005      338.514       11.217      861.502
10/08/2014  05:17:00      -65.368      -54.138        2.515       33.149       33.326       26.348     1098.881     1110.596      694.240        0.506        0.145       84.876       22.822        0.072      338.359       10.957      861.520
10/08/2014  05:18:00      -75.421      -16.352       -5.574       21.393       28.027       14.540      457.649      785.529      211.398        0.372        0.073       77.174        8.745        0.013      338.441       11.094      861.529
10/08/2014  05:19:00      -72.036       -9.875       -7.335       21.923       21.244       11.752      480.636      451.315      138.113        0.321        0.054       72.710        8.722        0.014      338.723       11.567      861.537
10/08/2014  05:20:00      -71.374      -60.526       -0.371       19.357       15.453       13.414      374.709      238.810      179.933        0.478        0.040       93.582       11.007        0.014      338.721       11.564      861.536
10/08/2014  05:21:00      -74.989      -28.725       -1.846       17.653       21.821        9.554      311.626      476.142       91.278        0.367        0.044       80.303        9.344        0.014      338.679       11.494      861.539
10/08/2014  05:22:00      -79.967      -15.892       -6.407       17.006       13.203       10.116      289.190      174.327      102.325        0.363        0.028       81.530        5.360        0.004      338.670       11.478      861.539
10/08/2014  05:23:00      -30.174      -26.376        8.715       39.840       24.689       20.833     1587.254      609.544      434.018        0.216        0.132       40.077       18.302        0.209      338.490       11.176      861.554
10/08/2014  05:24:00      -51.075      -43.747        2.296       27.313       33.630       17.965      746.014     1130.993      322.738        0.336        0.110       67.249       11.471        0.029      338.479       11.158      861.573
10/08/2014  05:25:00      -61.427      -16.860       -2.492       33.554       28.388       23.225     1125.863      805.896      539.411        0.327        0.124       63.699       16.136        0.064      338.653       11.451      861.571
10/08/2014  05:26:00      -76.904      -48.406       -6.242       22.731       26.610       14.803      516.684      708.070      219.143        0.487        0.072       90.870       12.408        0.019      338.741       11.599      861.567
10/08/2014  05:27:00      -37.256      -33.411        3.634       40.978       28.073       17.342     1679.195      788.085      300.733        0.264        0.138       50.043       21.423        0.183      338.645       11.437      861.580
10/08/2014  05:28:00      -47.635      -35.777        4.718       37.103       24.743       22.272     1376.633      612.239      496.034        0.303        0.124       59.574       20.594        0.120      338.542       11.263      861.587
10/08/2014  05:29:00      -61.736      -25.828       -1.608       22.784       20.767       15.541      519.104      431.274      241.528        0.284        0.060       66.921       10.436        0.024      338.593       11.349      861.583
10/08/2014  05:30:00      -92.379      -40.708       -9.657       17.392       16.004        8.413      302.477      256.125       70.777        0.546        0.031      100.951        8.463        0.007      338.561       11.298      861.586
10/08/2014  05:31:00      -84.899      -19.886      -10.057       14.526       13.616       10.808      210.994      185.391      116.814        0.411        0.026       87.197        9.390        0.012      338.543       11.266      861.612
10/08/2014  05:32:00      -66.015      -42.254       -0.981       17.873       16.146       12.917      319.428      260.688      166.839        0.345        0.037       78.379       10.936        0.019      338.532       11.247      861.624
10/08/2014  05:33:00      -92.942      -30.227       -9.441       15.389       19.557        8.908      236.807      382.466       79.350        0.517        0.035       97.734        5.101        0.003      338.554       11.285      861.622
10/08/2014  05:34:00     -100.169        8.848       -9.000       24.418       13.757       14.581      596.261      189.255      212.615        0.560        0.050      100.559       15.126        0.023      338.493       11.182      861.616
10/08/2014  05:35:00     -120.712      -21.415      -11.324       25.446       14.221       10.768      647.522      202.237      115.954        0.806        0.048      122.597       11.603        0.009      338.677       11.492      861.616
10/08/2014  05:36:00      -68.088      -26.413        4.358       42.838       23.284       14.358     1835.131      542.161      206.153        0.397        0.129       73.032       17.878        0.060      338.562       11.298      861.612
10/08/2014  05:37:00      -38.469      -25.154        3.209       25.099       15.761        9.459      629.953      248.417       89.467        0.155        0.048       45.963       10.450        0.052      338.542       11.264      861.614
10/08/2014  05:38:00      -49.723      -32.431       -1.315       17.312       12.829       10.757      299.704      164.583      115.723        0.205        0.029       59.365       11.395        0.037      338.660       11.463      861.613
10/08/2014  05:39:00      -47.935      -13.486       -2.695       14.385       13.018        7.456      206.918      169.480       55.597        0.146        0.022       49.796        2.599        0.003      338.653       11.450      861.601
10/08/2014  05:40:00      -23.548      -23.178       -2.925       12.748       11.013        6.861      162.523      121.294       47.068        0.072        0.017       33.041        5.542        0.028      338.525       11.235      861.595
10/08/2014  05:41:00        8.243      -12.143        4.534       12.586       12.975        8.292      158.405      168.363       68.756        0.032        0.020       14.677        4.050        0.076      338.527       11.239      861.588
10/08/2014  05:42:00       15.916      -18.439       -2.914       19.435       14.494       16.087      377.716      210.081      258.808        0.072        0.042       24.358       13.627        0.313      338.463       11.132      861.590
10/08/2014  05:43:00        5.500      -49.879      -11.042       13.164       17.077       12.524      173.299      291.632      156.852        0.163        0.031       50.182        8.139        0.026      338.690       11.514      861.601
10/08/2014  05:44:00       14.619      -23.169        0.108       12.490       14.712       13.338      156.000      216.441      177.899        0.065        0.028       27.396       10.780        0.155      338.683       11.501      861.625
10/08/2014  05:45:00       -7.435       -7.301        2.519       27.392       18.437       13.610      750.309      339.906      185.226        0.069        0.064       10.420       13.703        1.729      338.501       11.195      861.652
10/08/2014  05:46:00      -13.432       -9.458       -2.404       25.847       21.987       14.864      668.063      483.414      220.932        0.082        0.069       16.428       16.835        1.050      338.546       11.269      861.661
10/08/2014  05:47:00      -61.042      -11.493       -1.310       30.246       20.830       13.595      914.835      433.888      184.813        0.270        0.077       62.114        9.211        0.022      338.559       11.293      861.662
10/08/2014  05:48:00      -70.360      -44.455       -3.819       22.838       14.133       12.431      521.596      199.728      154.530        0.391        0.044       83.227       10.447        0.016      338.361       10.960      861.672
10/08/2014  05:49:00      -76.489      -36.783        2.197       32.246       14.865       16.719     1039.806      220.981      279.538        0.437        0.077       84.874       17.764        0.044      338.342       10.928      861.672
10/08/2014  05:50:00     -101.082      -48.901       -7.273       17.415       24.982       13.617      303.275      624.111      185.422        0.689        0.056      112.290        6.848        0.004      338.369       10.974      861.668
10/08/2014  05:51:00      -91.316      -28.426        0.187       12.546       14.739        9.168      157.412      217.233       84.052        0.480        0.023       95.638        6.018        0.004      338.380       10.991      861.667
10/08/2014  05:52:00     -124.311      -26.207      -11.185       25.976       17.370       11.971      674.737      301.701      143.307        0.869        0.056      127.043       13.560        0.011      338.295       10.850      861.666
10/08/2014  05:53:00     -108.507      -20.509       -5.174       28.737       28.197       17.992      825.796      795.078      323.711        0.708        0.097      110.428       18.539        0.028      338.092       10.510      861.660
10/08/2014  05:54:00      -84.239      -37.188        1.859       32.878       21.323       14.775     1080.966      454.669      218.303        0.512        0.088       92.082       12.979        0.020      338.100       10.523      861.663
10/08/2014  05:55:00      -92.884      -12.092       -1.900       32.708       26.860       15.516     1069.798      721.461      240.755        0.540        0.102       93.668       12.323        0.017      338.176       10.649      861.650
10/08/2014  05:56:00     -122.034       21.102       -9.483       30.500       20.314       14.618      930.255      412.643      213.673        0.849        0.078      123.845       11.471        0.009      338.001       10.356      861.644
10/08/2014  05:57:00      -91.105      -21.019       -7.132       23.652       16.574       10.907      559.417      274.705      118.956        0.487        0.048       93.498        9.087        0.009      337.986       10.330      861.660
10/08/2014  05:58:00      -89.554      -28.577      -12.693       18.513       15.897       10.048      342.744      252.702      100.972        0.485        0.035       94.003        8.183        0.008      338.277       10.820      861.677
10/08/2014  05:59:00      -58.720      -45.565       -4.430       26.858       19.188       16.044      721.373      368.198      257.421        0.345        0.067       74.325       13.038        0.031      338.020       10.387      861.692
10/08/2014  06:00:00      -56.817      -50.238       -7.080       23.396       15.776       13.456      547.375      248.879      181.051        0.339        0.049       75.842       10.008        0.017      337.893       10.176      861.713
10/08/2014  06:01:00      -52.326      -30.764       -4.686       21.993       11.667       11.655      483.675      136.122      135.849        0.223        0.038       60.700       12.268        0.041      338.039       10.419      861.731
10/08/2014  06:02:00      -91.754      -35.116       -1.358       20.098       20.309       13.547      403.915      412.475      183.510        0.533        0.050       98.244        9.296        0.009      338.112       10.541      861.759
10/08/2014  06:03:00     -124.737      -40.347      -12.471       14.344       19.263       13.266      205.746      371.068      175.988        0.905        0.038      131.100        8.018        0.004      338.105       10.530      861.801
10/08/2014  06:04:00     -113.825      -31.911       -8.075       19.484       25.834       13.541      379.630      667.385      183.368        0.763        0.062      118.214       11.378        0.009      338.113       10.544      861.820
10/08/2014  06:05:00     -101.034       -5.915       -6.763       23.376       19.441       15.396      546.433      377.936      237.029        0.572        0.058      101.207       14.288        0.020      338.170       10.638      861.824
10/08/2014  06:06:00      -94.929      -21.692      -12.754       20.996       16.200       12.148      440.812      262.433      147.583        0.525        0.043       97.376        7.481        0.006      338.252       10.778      861.821
10/08/2014  06:07:00      -91.453      -16.934      -11.992       21.556       13.985       12.922      464.651      195.592      166.987        0.481        0.041       93.008       11.893        0.016      338.244       10.764      861.817
10/08/2014  06:08:00      -81.727      -15.452       -8.279       24.526       15.320       14.970      601.533      234.699      224.105        0.402        0.053       83.175       12.834        0.024      338.200       10.690      861.825
10/08/2014  06:09:00      -56.085      -38.051        1.591       22.362       17.508       13.631      500.059      306.524      185.802        0.279        0.050       67.775        5.145        0.006      338.260       10.791      861.839
10/08/2014  06:10:00      -37.686      -32.497        1.588       35.306       22.430       16.720     1246.519      503.125      279.551        0.225        0.101       49.762       18.316        0.135      338.116       10.550      861.847
10/08/2014  06:11:00      -23.621      -23.017       -1.245       28.083       18.313       18.786      788.660      335.354      352.906        0.128        0.074       32.981       14.784        0.201      337.988       10.335      861.847
10/08/2014  06:12:00      -55.756      -43.089      -13.036       19.689       16.489       14.955      387.666      271.892      223.649        0.301        0.044       70.466       14.154        0.040      338.027       10.400      861.837
10/08/2014  06:13:00     -102.473      -26.595      -13.793       17.534       12.067        6.531      307.424      145.604       42.652        0.595        0.025      105.868        6.825        0.004      338.148       10.604      861.836
10/08/2014  06:14:00      -86.943      -24.082      -10.593       15.699       12.802        9.153      246.469      163.883       83.786        0.437        0.025       90.217        6.405        0.005      338.134       10.581      861.840
10/08/2014  06:15:00      -60.925      -23.308       -3.284       12.758       11.389        9.687      162.764      129.720       93.847        0.233        0.019       65.232        4.451        0.005      338.187       10.668      861.849
10/08/2014  06:16:00      -75.688      -15.619      -12.191        8.274       11.897        7.180       68.457      141.536       51.556        0.319        0.013       77.283        1.157        0.000      338.126       10.566      861.853
10/08/2014  06:17:00      -71.321      -16.364      -13.181        6.967        7.513        7.502       48.543       56.452       56.287        0.284        0.008       73.174        2.963        0.002      338.134       10.578      861.846
10/08/2014  06:18:00      -82.788      -13.931      -10.436       12.995        9.471        7.316      168.861       89.708       53.530        0.373        0.016       83.952        7.840        0.009      338.275       10.815      861.838
10/08/2014  06:19:00     -103.196      -19.643       -7.809        8.088       10.012        9.808       65.419      100.243       96.189        0.568        0.013      105.049        7.205        0.005      338.318       10.887      861.832
10/08/2014  06:20:00      -91.807      -33.520       -7.011       19.713       11.211        9.183      388.602      125.689       84.321        0.510        0.030       97.735        2.854        0.001      338.212       10.710      861.833
10/08/2014  06:21:00      -90.242      -22.629      -10.585       14.078       12.891        9.218      198.198      166.181       84.977        0.461        0.022       93.036        3.729        0.002      338.219       10.722      861.828
10/08/2014  06:22:00      -74.370      -12.845      -13.793       19.390       20.409       14.738      375.964      416.536      217.220        0.345        0.050       75.471       11.250        0.022      338.466       11.137      861.817
10/08/2014  06:23:00      -97.403      -37.632      -11.118       10.977       11.201        8.024      120.499      125.462       64.390        0.567        0.016      104.420        1.834        0.000      338.206       10.700      861.804
10/08/2014  06:24:00     -166.020      -65.414      -10.004       13.080       16.656       11.611      171.083      277.432      134.812        1.626        0.029      178.442        7.834        0.002      338.026       10.398      861.798
10/08/2014  06:25:00     -155.397      -54.900      -15.251       16.346       23.725       14.924      267.207      562.865      222.717        1.422        0.053      164.810       10.418        0.004      337.812       10.039      861.804
10/08/2014  06:26:00     -130.532      -14.989      -10.864       35.802       26.749       21.383     1281.771      715.532      457.249        0.992        0.123      131.390       22.027        0.028      337.906       10.197      861.794
10/08/2014  06:27:00     -153.898       -5.631      -15.640       35.878       19.921       23.282     1287.253      396.845      542.030        1.309        0.111      154.001       23.110        0.023      337.914       10.210      861.794
10/08/2014  06:28:00     -141.809      -42.485      -11.027       21.624       26.916       15.131      467.606      724.471      228.942        1.173        0.071      148.036       10.723        0.005      337.771        9.970      861.787
10/08/2014  06:29:00     -124.343      -69.581       -7.751       33.286       19.599       20.863     1107.934      384.115      435.268        1.114        0.096      142.488       18.246        0.016      337.693        9.840      861.780
10/08/2014  06:30:00      -73.744      -39.606        0.576       41.270       30.454       21.532     1703.175      927.473      463.626        0.505        0.155       83.707       21.995        0.069      337.839       10.084      861.780
10/08/2014  06:31:00      -78.818       -5.770       -6.348       60.923       38.106       33.651     3711.574     1452.052     1132.373        0.629        0.315       79.029       37.689        0.227      337.884       10.160      861.786
10/08/2014  06:32:00     -127.329       -8.503      -16.125       46.384       44.000       26.466     2151.487     1936.044      700.456        1.067        0.239      127.612       17.558        0.019      337.916       10.212      861.790
10/08/2014  06:33:00     -138.095      -40.217       -8.274       34.651       31.721       18.462     1200.709     1006.249      340.833        1.165        0.127      143.832       16.834        0.014      337.818       10.048      861.791
10/08/2014  06:34:00     -140.115      -10.667       -8.071       35.173       28.666       21.071     1237.157      821.725      444.003        1.116        0.125      140.520       19.191        0.019      337.783        9.990      861.786
10/08/2014  06:35:00      -91.686       -6.533       -4.114       52.737       25.063       25.253     2781.181      628.177      637.702        0.626        0.202       91.919       28.072        0.093      337.818       10.048      861.767
10/08/2014  06:36:00      -81.550       -8.997       -0.074       45.426       40.144       22.858     2063.529     1611.568      522.483        0.546        0.210       82.045       23.030        0.079      337.787        9.997      861.754
10/08/2014  06:37:00      -81.382      -23.340        5.974       41.975       44.762       24.775     1761.909     2003.600      613.805        0.579        0.219       84.663       23.254        0.075      337.742        9.922      861.747
10/08/2014  06:38:00      -85.480      -27.718        3.519       47.589       36.087       21.608     2264.700     1302.255      466.904        0.606        0.202       89.862       24.684        0.075      337.803       10.023      861.743
10/08/2014  06:39:00      -78.787      -58.703       -4.478       46.482       35.320       24.855     2160.571     1247.499      617.791        0.685        0.201       98.252       22.331        0.052      337.822       10.056      861.743
10/08/2014  06:40:00     -127.278      -81.833       -9.683       47.263       33.508       27.313     2233.756     1122.797      745.990        1.355        0.205      151.316       20.913        0.019      337.821       10.054      861.742
10/08/2014  06:41:00     -161.564      -41.010        1.092       41.728       31.804       22.559     1741.226     1011.471      508.911        1.552        0.163      166.688       20.730        0.015      337.870       10.136      861.745
10/08/2014  06:42:00     -100.230      -48.806       -9.270       49.707       30.681       19.717     2470.777      941.331      388.744        0.816        0.190      111.482       15.478        0.019      337.998       10.351      861.744
10/08/2014  06:43:00     -106.846      -49.516       -4.453       31.197       20.818       14.567      973.269      433.378      212.187        0.775        0.081      117.762       11.531        0.010      338.094       10.510      861.740
10/08/2014  06:44:00     -110.387      -57.745       -4.922       37.736       21.793       16.674     1424.035      474.928      278.025        0.886        0.109      124.579       15.687        0.016      338.117       10.550      861.740
10/08/2014  06:45:00     -107.101      -68.875       -3.823       39.922       24.884       19.220     1593.771      619.189      369.404        0.941        0.129      127.335       17.810        0.020      338.025       10.396      861.732
10/08/2014  06:46:00      -89.594      -61.461       -5.815       36.580       25.466       19.598     1338.068      648.514      384.077        0.710        0.119      108.649       14.006        0.017      337.964       10.295      861.734
10/08/2014  06:47:00      -85.286      -87.488        6.285       59.326       46.281       36.006     3519.571     2141.959     1296.428        1.096        0.348      122.180       36.850        0.091      337.971       10.305      861.742
10/08/2014  06:48:00      -91.207      -92.326       13.731       81.555       58.862       38.770     6651.178     3464.677     1503.142        1.432        0.581      129.780       43.162        0.111      338.029       10.401      861.757
10/08/2014  06:49:00     -156.872      -87.344       -4.986       56.608       29.265       28.962     3204.422      856.440      838.787        1.858        0.245      179.549       32.251        0.032      338.265       10.800      861.788
10/08/2014  06:50:00     -155.967      -77.455      -13.342       19.536       27.725       20.005      381.663      768.671      400.217        1.603        0.078      174.140       12.472        0.005      338.266       10.800      861.797
10/08/2014  06:51:00      -95.879      -52.523        2.536       38.223       37.597       21.998     1461.011     1413.549      483.897        0.766        0.168      109.322       19.104        0.031      338.298       10.853      861.804
10/08/2014  06:52:00      -18.573      -28.366        6.727       33.682       32.749       15.654     1134.460     1072.494      245.036        0.182        0.123       33.905       15.571        0.211      338.312       10.878      861.801
10/08/2014  06:53:00     -109.639      -52.456       -6.996       48.155       33.458       16.725     2318.900     1119.438      279.710        0.927        0.186      121.541       13.923        0.013      338.181       10.659      861.805
10/08/2014  06:54:00      -57.885      -41.365        3.105       49.922       28.871       18.988     2492.204      833.507      360.562        0.438        0.184       71.146       20.006        0.079      338.028       10.402      861.819
10/08/2014  06:55:00      -62.098      -37.676        1.080       29.021       26.121       14.375      842.247      682.292      206.634        0.350        0.087       72.633       10.917        0.023      338.088       10.503      861.840
10/08/2014  06:56:00      -76.110      -42.903       -1.465       34.342       21.393       18.102     1179.391      457.678      327.680        0.480        0.098       87.369       14.765        0.029      338.031       10.407      861.857
10/08/2014  06:57:00      -64.111      -32.353       -2.384       27.829       14.891       11.291      774.451      221.734      127.477        0.314        0.056       71.812        4.718        0.004      338.035       10.413      861.865
10/08/2014  06:58:00     -107.789      -22.497      -10.555       18.599       14.526       11.045      345.922      211.000      121.992        0.646        0.034      110.112        8.759        0.006      338.079       10.487      861.862
10/08/2014  06:59:00      -99.091      -39.165       -0.784       21.139       20.304       15.610      446.836      412.242      243.659        0.623        0.055      106.550       14.292        0.018      338.142       10.594      861.859
10/08/2014  07:00:00      -95.330      -47.563       -6.916       22.696       25.765       12.442      515.114      663.818      154.794        0.637        0.067      106.537        7.454        0.005      338.201       10.692      861.843
10/08/2014  07:01:00      -73.291      -41.252       -0.583       25.966       24.573       13.771      674.227      603.810      189.635        0.427        0.073       84.103       15.613        0.034      338.300       10.857      861.836
10/08/2014  07:02:00      -94.296      -39.907       -3.956       27.430       17.156       10.401      752.432      294.311      108.172        0.583        0.058      102.393        9.857        0.009      338.306       10.869      861.816
10/08/2014  07:03:00      -80.220      -52.911       -0.371       32.239       26.752       25.726     1039.328      715.692      661.813        0.583        0.121       96.098       20.922        0.047      338.138       10.587      861.809
10/08/2014  07:04:00      -80.724      -42.786       -1.734       22.342       16.705       13.253      499.160      279.070      175.652        0.465        0.048       91.362       11.755        0.017      338.171       10.642      861.808
10/08/2014  07:05:00      -80.452      -20.274       -3.454       20.023       11.545       10.017      400.909      133.276      100.340        0.376        0.032       82.967       10.110        0.015      338.316       10.886      861.797
10/08/2014  07:06:00      -60.004      -30.233       -8.311       16.015       15.699        7.933      256.485      246.457       62.940        0.257        0.028       67.190        5.798        0.007      338.283       10.829      861.807
10/08/2014  07:07:00      -17.506      -17.270        2.996       10.554       14.613        8.661      111.397      213.531       75.020        0.051        0.020       24.591        6.102        0.062      338.347       10.938      861.825
10/08/2014  07:08:00      -38.101       -9.410       -4.482       26.881       12.558       10.991      722.599      157.704      120.800        0.128        0.050       39.245       13.242        0.114      338.222       10.726      861.837
10/08/2014  07:09:00      -24.379       -5.659        7.088       17.363       13.027       13.205      301.490      169.693      174.364        0.066        0.032       25.027       12.613        0.254      338.154       10.614      861.844
10/08/2014  07:10:00      -39.419      -33.561        0.369       16.890       17.911       13.698      285.277      320.800      187.639        0.174        0.040       51.771        7.238        0.020      338.117       10.551      861.854
10/08/2014  07:11:00      -39.068      -12.779       -2.567       18.852        9.632       10.548      355.388       92.768      111.268        0.113        0.028       41.105        4.837        0.014      337.930       10.235      861.872
10/08/2014  07:12:00       -0.579      -28.902        8.037       10.943       12.526        9.948      119.739      156.909       98.965        0.064        0.019       28.907        4.609        0.025      338.113       10.543      861.880
10/08/2014  07:13:00       14.203      -18.444       13.913       10.260        8.558        6.957      105.264       73.240       48.394        0.048        0.011       23.278        4.391        0.036      338.256       10.783      861.897
10/08/2014  07:14:00      -16.211      -17.466       -0.187       13.535        8.480        7.093      183.190       71.909       50.313        0.044        0.015       23.830        4.280        0.032      338.108       10.537      861.898
10/08/2014  07:15:00       -4.679       -4.969       -4.620        9.651        6.634        6.865       93.133       44.005       47.124        0.013        0.009        6.825        4.740        0.482      338.096       10.516      861.909
10/08/2014  07:16:00      -17.532        0.525       -4.678        5.622        4.733        5.232       31.609       22.403       27.375        0.021        0.004       17.540        3.156        0.032      338.202       10.691      861.899
10/08/2014  07:17:00      -33.930       -7.151       -4.757        6.840        6.523        4.997       46.780       42.545       24.966        0.067        0.006       34.676        3.164        0.008      338.280       10.823      861.904
10/08/2014  07:18:00      -50.970      -19.371      -11.068        9.688        7.374        6.178       93.860       54.381       38.167        0.164        0.009       54.527        5.792        0.011      338.168       10.636      861.912
10/08/2014  07:19:00      -81.765      -13.097      -13.718       16.795       10.341        9.707      282.058      106.927       94.221        0.376        0.024       82.808        7.613        0.008      337.914       10.210      861.928
10/08/2014  07:20:00      -61.013      -16.626      -12.439       26.423       16.791       13.311      698.168      281.932      177.177        0.266        0.058       63.238       11.536        0.033      337.904       10.194      861.939
10/08/2014  07:21:00      -52.339      -23.015       -2.453       19.466       16.481       12.214      378.931      271.626      149.170        0.204        0.040       57.176       10.403        0.033      337.996       10.348      861.942
10/08/2014  07:22:00      -64.900       -3.030       -4.035       19.260       16.290       11.561      370.935      265.357      133.653        0.250        0.038       64.971        8.572        0.017      337.862       10.122      861.937
10/08/2014  07:23:00      -69.787      -14.197       -3.145       24.059       19.600       14.006      578.835      384.145      196.172        0.312        0.058       71.217       14.085        0.039      337.824       10.060      861.940
10/08/2014  07:24:00      -57.569       -4.614       -0.248       24.013       18.851       10.681      576.648      355.369      114.074        0.219        0.052       57.754        8.268        0.020      337.882       10.156      861.941
10/08/2014  07:25:00      -39.153      -28.259       -5.018       20.816       14.664        8.393      433.291      215.032       70.435        0.154        0.036       48.286        6.909        0.020      338.040       10.422      861.943
10/08/2014  07:26:00      -47.205       -3.437       -1.223       19.581       21.085       10.897      383.433      444.559      118.745        0.159        0.047       47.330        8.786        0.034      337.992       10.339      861.950
10/08/2014  07:27:00      -48.026       27.651       -7.306       23.544       14.096        7.601      554.341      198.692       57.778        0.197        0.041       55.417        6.166        0.012      338.005       10.362      861.954
10/08/2014  07:28:00      -41.865      -18.514       -2.937        9.282       16.983        7.010       86.150      288.428       49.138        0.126        0.021       45.776        6.802        0.022      338.009       10.369      861.947
10/08/2014  07:29:00      -34.231      -17.906       -7.276       19.288       14.762        6.993      372.023      217.907       48.901        0.109        0.032       38.632        5.179        0.018      338.010       10.371      861.928
10/08/2014  07:30:00      -16.225       -2.193       -8.270       10.601        5.532        6.032      112.386       30.603       36.387        0.026        0.009       16.372        3.827        0.055      337.996       10.347      861.917
10/08/2014  07:31:00        0.642        9.161       -7.383       12.519       11.264        6.869      156.734      126.878       47.185        0.023        0.017        9.183        7.270        0.627      338.026       10.399      861.902
10/08/2014  07:32:00      -42.377        0.521      -11.927       27.773       10.863       11.296      771.362      118.011      127.602        0.148        0.051       42.380       10.990        0.067      338.070       10.473      861.906
10/08/2014  07:33:00      -68.412      -13.138       -9.628       11.433        9.792        7.582      130.708       95.885       57.482        0.261        0.014       69.662        6.524        0.009      338.115       10.546      861.921
10/08/2014  07:34:00      -46.665      -10.974       -4.249       18.907       13.079       10.541      357.491      171.059      111.119        0.148        0.032       47.938       11.441        0.057      338.183       10.662      861.924
10/08/2014  07:35:00      -42.172      -23.989       -4.223       15.161       10.720        8.393      229.848      114.912       70.447        0.139        0.021       48.517        7.158        0.022      338.172       10.644      861.931
10/08/2014  07:36:00      -46.325      -20.027       -8.860       10.232       10.878        6.596      104.697      118.329       43.502        0.145        0.013       50.469        3.487        0.005      338.198       10.686      861.928
10/08/2014  07:37:00      -52.405      -25.118       -2.417       10.594       10.458        5.788      112.230      109.365       33.502        0.182        0.013       58.114        3.666        0.004      338.189       10.671      861.938
10/08/2014  07:38:00      -44.786      -35.701       -3.821       15.488       12.449        8.988      239.893      154.975       80.783        0.189        0.024       57.275        6.433        0.013      338.195       10.681      861.938
10/08/2014  07:39:00      -23.150      -22.019        9.677       18.174       11.158       13.312      330.308      124.499      177.217        0.087        0.032       31.949       11.300        0.125      338.307       10.869      861.940
10/08/2014  07:40:00      -48.759      -21.164       -3.025       19.489       13.687        8.988      379.828      187.339       80.782        0.174        0.032       53.154        7.838        0.022      338.218       10.720      861.937
10/08/2014  07:41:00      -64.188      -26.806       -1.320       18.967        9.815        6.228      359.743       96.327       38.790        0.267        0.025       69.561        7.670        0.012      338.144       10.596      861.939
10/08/2014  07:42:00      -10.048      -26.462        1.749       15.219       13.975        7.855      231.603      195.312       61.704        0.065        0.024       28.306        6.166        0.047      338.206       10.700      861.940
10/08/2014  07:43:00      -13.562      -28.592       -9.402       20.795       15.236       11.448      432.413      232.121      131.065        0.094        0.040       31.646        6.218        0.039      338.325       10.901      861.936
10/08/2014  07:44:00      -15.988       -9.136        0.258       13.856       12.431        9.899      191.998      154.542       97.987        0.039        0.022       18.414        6.152        0.112      338.395       11.017      861.953
10/08/2014  07:45:00      -15.253       -6.562        3.812       17.026       14.435       10.372      289.900      208.375      107.579        0.045        0.030       16.604        6.750        0.165      338.466       11.136      861.962
10/08/2014  07:46:00      -24.530      -20.686        4.899       20.067       19.560       11.354      402.687      382.596      128.918        0.098        0.046       32.087        9.152        0.081      338.490       11.176      861.953
10/08/2014  07:47:00      -46.826      -18.124        3.565       15.467       22.643       15.600      239.238      512.702      243.358        0.176        0.050       50.211       10.166        0.041      338.271       10.810      861.945
10/08/2014  07:48:00      -25.791       10.201       19.838       13.071       12.390       12.001      170.851      153.505      144.021        0.082        0.023       27.735        9.991        0.130      338.443       11.099      861.938
10/08/2014  07:49:00       -1.894      -25.630        9.716       17.887       19.850       17.935      319.930      394.042      321.662        0.090        0.052       25.700        9.626        0.140      338.644       11.436      861.943
10/08/2014  07:50:00      -24.482      -22.408        2.556       25.836       16.140       12.261      667.525      260.511      150.341        0.109        0.054       33.189        9.869        0.088      338.491       11.178      861.962
10/08/2014  07:51:00      -34.705      -15.615       -0.696       12.082       12.086        6.108      145.970      146.065       37.306        0.089        0.016       38.056        4.617        0.015      338.421       11.060      861.981
10/08/2014  07:52:00      -26.342      -10.101       -8.575        9.051       16.585        9.017       81.920      275.051       81.308        0.065        0.022       28.213        7.347        0.068      338.434       11.084      861.994
10/08/2014  07:53:00      -37.422       20.650       -4.297        7.771        7.200        8.299       60.396       51.845       68.874        0.101        0.009       42.742        2.843        0.004      338.390       11.011      862.002
10/08/2014  07:54:00      -19.393       -1.417       -5.122       18.240       11.300        8.971      332.683      127.693       80.486        0.047        0.027       19.445        8.030        0.171      338.495       11.186      862.013
10/08/2014  07:55:00      -22.154       -9.819        9.684       14.290       13.946       12.511      204.212      194.501      156.530        0.062        0.028       24.233        6.536        0.073      338.671       11.479      862.031
10/08/2014  07:56:00      -11.127      -33.509       19.899       18.549       24.279       16.980      344.079      589.459      288.324        0.143        0.061       35.308        8.381        0.056      338.761       11.631      862.034
10/08/2014  07:57:00       -8.211      -23.391       33.310       10.104       14.159       10.165      102.098      200.464      103.327        0.106        0.020       24.790        6.237        0.063      338.887       11.843      862.036
10/08/2014  07:58:00       -5.763       -9.019        7.810       14.717       17.025       12.847      216.581      289.839      165.044        0.042        0.034       10.703        9.729        0.826      338.833       11.753      862.030
10/08/2014  07:59:00       10.323        4.457       15.115       10.603       13.839       12.399      112.421      191.510      153.731        0.041        0.023       11.244        8.495        0.571      338.899       11.863      862.025
10/08/2014  08:00:00        5.833       11.582       -8.645       14.062       15.740       12.821      197.733      247.743      164.389        0.043        0.030       12.968        4.142        0.102      338.598       11.359      862.037
10/08/2014  08:01:00      -10.208      -17.829       -1.397       12.467       16.438       10.060      155.423      270.211      101.211        0.048        0.026       20.544        6.873        0.112      338.720       11.564      862.045
10/08/2014  08:02:00       -2.967      -31.546       -8.344       20.299       17.980       16.103      412.069      323.283      259.302        0.103        0.050       31.685       14.048        0.197      338.714       11.553      862.065
10/08/2014  08:03:00      -27.045       -6.477       -3.478        5.157        9.106        4.424       26.597       82.927       19.569        0.046        0.006       27.810        3.327        0.014      338.722       11.568      862.085
10/08/2014  08:04:00      -27.107       -9.115       -3.233        6.573        8.147        6.099       43.211       66.365       37.202        0.049        0.007       28.598        3.357        0.014      338.706       11.539      862.097
10/08/2014  08:05:00      -21.834      -16.991        0.085       14.469       14.589       13.022      209.340      212.830      169.570        0.068        0.030       27.666        9.415        0.116      338.756       11.624      862.104
10/08/2014  08:06:00        4.471       -9.187       14.184       24.270       14.894       15.340      589.032      221.839      235.314        0.068        0.052       10.217       13.530        1.754      338.979       11.998      862.110
10/08/2014  08:07:00       22.616       24.369      -17.422       11.599       19.592       13.938      134.530      383.840      194.278        0.106        0.036       33.246        8.637        0.067      338.787       11.676      862.118
10/08/2014  08:08:00       15.479        0.898        6.052       16.390       17.205       15.221      268.621      296.008      231.673        0.054        0.040       15.505        6.975        0.202      339.095       12.194      862.131
10/08/2014  08:09:00       29.826      -19.520        6.050       24.150       38.380       27.138      583.232     1473.059      736.493        0.205        0.140       35.646       27.152        0.580      339.002       12.039      862.138
10/08/2014  08:10:00       42.236        3.582       22.820       34.340       32.557       28.169     1179.210     1059.973      793.509        0.267        0.152       42.387       24.209        0.326      338.985       12.008      862.135
10/08/2014  08:11:00       13.142        7.974       34.496       20.882       26.299       21.180      436.063      691.625      448.587        0.150        0.079       15.372       18.161        1.396      339.232       12.424      862.140
10/08/2014  08:12:00        5.065      -20.089       14.484       16.773       26.701       15.240      281.347      712.939      232.244        0.093        0.061       20.718       13.023        0.395      339.285       12.514      862.132
10/08/2014  08:13:00       -7.757      -12.297       17.778       26.297       21.795       12.692      691.544      475.023      161.098        0.093        0.066       14.540       13.597        0.875      339.149       12.285      862.133
10/08/2014  08:14:00        0.385      -33.558        2.715       20.058       26.829       15.868      402.325      719.775      251.799        0.125        0.069       33.561       13.368        0.159      339.139       12.268      862.130
10/08/2014  08:15:00       -8.680       -0.916       18.487       14.414       30.509       13.417      207.769      930.776      180.003        0.087        0.066        8.728       14.825        2.885      339.225       12.413      862.122
10/08/2014  08:16:00       -0.272        1.227       26.780       10.517       21.825       12.987      110.616      476.337      168.654        0.074        0.038        1.257       12.312       95.996      339.608       13.059      862.118
10/08/2014  08:17:00        1.783      -15.066       15.903       20.961       25.187       20.538      439.358      634.383      421.794        0.099        0.075       15.171       17.053        1.263      339.231       12.423      862.127
10/08/2014  08:18:00       25.459      -42.435       -5.994       29.502       17.090       25.166      870.374      292.069      633.307        0.214        0.090       49.486       15.885        0.103      339.019       12.067      862.139
10/08/2014  08:19:00       -6.593       -4.128       10.153       23.799       12.886       19.090      566.381      166.061      364.433        0.063        0.055        7.778        9.877        1.613      339.453       12.796      862.148
10/08/2014  08:20:00      -30.299        3.314       15.488       24.672       15.529       20.372      608.730      241.159      415.029        0.122        0.063       30.480       16.074        0.278      339.352       12.626      862.145
10/08/2014  08:21:00        2.031       16.078       23.998       31.589       19.815       22.994      997.852      392.629      528.737        0.138        0.096       16.206       18.091        1.246      339.550       12.961      862.132
10/08/2014  08:22:00       -3.666      -21.654       15.854       23.149       32.979       22.041      535.857     1087.631      485.814        0.142        0.105       21.962       10.190        0.215      339.418       12.738      862.124
10/08/2014  08:23:00      -30.463       -4.984       22.169       31.358       35.065       17.481      983.310     1229.521      305.571        0.198        0.126       30.868       23.830        0.596      339.523       12.914      862.124
10/08/2014  08:24:00      -38.217      -46.435        4.209       25.416       27.395       21.624      645.979      750.461      467.605        0.275        0.093       60.139       20.103        0.112      339.333       12.594      862.128
10/08/2014  08:25:00      -44.134      -27.735       -4.899       22.937       25.354        9.526      526.103      642.822       90.743        0.200        0.063       52.125        9.083        0.030      339.349       12.622      862.140
10/08/2014  08:26:00      -16.497       -4.217       -2.787       25.587       29.759       23.590      654.701      885.613      556.484        0.120        0.105       17.028       21.033        1.526      339.575       13.003      862.141
10/08/2014  08:27:00      -57.517        2.492       -0.916       27.339       25.668       28.850      747.396      658.855      832.341        0.278        0.112       57.571       16.688        0.084      339.259       12.469      862.132
10/08/2014  08:28:00      -19.257       -2.745        8.940       46.647       25.674       29.102     2175.989      659.165      846.945        0.207        0.184       19.452       27.843        2.049      339.597       13.040      862.130
10/08/2014  08:29:00      -39.122      -11.329       -0.585       31.214       18.771       15.335      974.285      352.343      235.149        0.161        0.078       40.729       11.265        0.076      339.550       12.960      862.132
10/08/2014  08:30:00      -19.731       -5.699        0.118       18.370       14.834        8.793      337.461      220.033       77.323        0.053        0.032       20.537        9.649        0.221      339.622       13.081      862.140
10/08/2014  08:31:00       14.521        8.787       26.509       34.503       19.769       24.883     1190.489      390.804      619.168        0.160        0.110       16.972       18.548        1.194      339.945       13.626      862.152
10/08/2014  08:32:00       -5.117      -15.595       14.470       30.748       22.420       23.349      945.438      502.643      545.154        0.124        0.100       16.413       14.031        0.731      339.836       13.443      862.151
10/08/2014  08:33:00      -15.763      -18.523       12.676       23.531       40.744       20.052      553.690     1660.057      402.065        0.168        0.131       24.323       13.433        0.305      340.019       13.753      862.161
10/08/2014  08:34:00      -76.245      -31.939      -13.215       27.499       29.668       17.042      756.181      880.193      290.431        0.447        0.096       82.665       10.441        0.016      339.564       12.983      862.173
10/08/2014  08:35:00      -61.892      -51.467        4.057       37.482       19.138       22.464     1404.914      366.270      504.634        0.439        0.114       80.495        8.608        0.011      339.597       13.038      862.177
10/08/2014  08:36:00      -45.973      -18.871      -13.072       28.387       16.142       13.976      805.798      260.553      195.337        0.195        0.063       49.695        4.881        0.010      339.666       13.155      862.178
10/08/2014  08:37:00       -9.135      -34.396       -5.748       19.813       17.151       15.112      392.559      294.140      228.381        0.111        0.046       35.588       13.903        0.153      339.643       13.118      862.176
10/08/2014  08:38:00      -11.497       -6.809       14.717       10.938        8.101       10.098      119.647       65.625      101.974        0.034        0.014       13.362        8.561        0.411      340.270       14.176      862.172
10/08/2014  08:39:00        1.618       -5.670       16.939       13.452       13.803       11.102      180.961      190.537      123.264        0.041        0.025        5.897       11.059        3.518      340.289       14.207      862.164
10/08/2014  08:40:00       49.840       -9.720       15.741       20.676       19.221       19.062      427.491      369.444      363.376        0.199        0.058       50.779       14.507        0.082      339.653       13.135      862.150
10/08/2014  08:41:00       20.823       11.306        2.765       18.628       12.973       15.566      347.004      168.310      242.306        0.066        0.038       23.694        7.543        0.101      339.671       13.165      862.147
10/08/2014  08:42:00       33.203       10.381        0.755       16.430       14.914       20.765      269.948      222.417      431.168        0.107        0.046       34.788       10.922        0.099      339.711       13.231      862.142
10/08/2014  08:43:00       21.921        5.660        1.817       16.661       14.873       16.465      277.597      221.193      271.090        0.064        0.038       22.640        8.198        0.131      339.837       13.445      862.141
10/08/2014  08:44:00       16.274       -6.524       17.249       15.265       22.098       13.438      233.011      488.324      180.591        0.075        0.045       17.533        6.721        0.147      340.079       13.852      862.134
10/08/2014  08:45:00       23.097       10.709       -2.561       16.148       15.245       16.559      260.769      232.417      274.188        0.071        0.038       25.459        9.060        0.127      339.983       13.690      862.137
10/08/2014  08:46:00       18.405       14.590       -3.211       11.977       12.156        9.863      143.447      147.773       97.273        0.048        0.019       23.487        6.937        0.087      340.090       13.871      862.136
10/08/2014  08:47:00       42.740       16.934       -6.651       31.286       22.118       13.949      978.807      489.199      194.564        0.191        0.083       45.972       13.089        0.081      340.226       14.101      862.135
10/08/2014  08:48:00       68.762       44.753        2.969       38.203       27.089       20.735     1459.477      733.838      429.956        0.468        0.131       82.043       16.579        0.041      340.187       14.035      862.126
10/08/2014  08:49:00       63.223       47.693        5.863       28.571       27.607       25.028      816.328      762.137      626.395        0.426        0.110       79.195        8.436        0.011      340.136       13.948      862.125
10/08/2014  08:50:00       41.285       30.628        8.942       30.950       17.246       22.035      957.928      297.412      485.554        0.223        0.087       51.405       10.712        0.043      340.410       14.412      862.115
10/08/2014  08:51:00       35.016       26.003       28.418       34.676       27.883       21.747     1202.401      777.442      472.942        0.258        0.123       43.615       10.630        0.059      340.696       14.896      862.113
10/08/2014  08:52:00       24.738      -14.835       17.097       25.849       28.985       26.603      668.194      840.117      707.743        0.167        0.111       28.845       14.109        0.239      340.103       13.893      862.118
10/08/2014  08:53:00       39.788       48.277       20.904       23.167       18.542       22.230      536.724      343.788      494.168        0.286        0.069       62.560       15.917        0.065      340.125       13.931      862.114
10/08/2014  08:54:00       22.339       24.606        5.079       13.897       10.588       14.621      193.132      112.114      213.785        0.082        0.026       33.234        9.538        0.082      340.138       13.952      862.116
10/08/2014  08:55:00        7.563       19.986       14.486       13.858       17.063       17.150      192.051      291.162      294.127        0.072        0.039       21.369        9.283        0.189      340.291       14.210      862.116
10/08/2014  08:56:00       -4.699        3.131       27.274       10.224       14.750       11.838      104.534      217.571      140.149        0.062        0.023        5.647        9.858        3.048      340.951       15.326      862.124
10/08/2014  08:57:00       -0.570        0.627        4.560       19.232       11.455       15.774      369.862      131.213      248.810        0.039        0.037        0.847        7.380       75.837      340.490       14.546      862.125
10/08/2014  08:58:00       10.766       -4.106       16.957       17.248       13.090       13.485      297.504      171.337      181.838        0.054        0.033       11.522        8.397        0.531      340.628       14.781      862.123
10/08/2014  08:59:00       24.347       -3.302       -5.441       23.149       20.083       17.841      535.875      403.333      318.296        0.095        0.063       24.570       10.529        0.184      340.340       14.295      862.119
10/08/2014  09:00:00       -4.558        6.574       32.348       14.879       23.190       15.440      221.381      537.767      238.402        0.105        0.050        8.000        9.117        1.299      340.937       15.304      862.108
10/08/2014  09:01:00       29.728      -17.029        2.123       22.350       24.811       26.543      499.523      615.568      704.508        0.150        0.091       34.260       14.572        0.181      340.297       14.220      862.106
10/08/2014  09:02:00       28.432       -0.053       21.053       30.724       29.328       29.200      943.936      860.104      852.629        0.195        0.133       28.432       19.257        0.459      340.335       14.285      862.107
10/08/2014  09:03:00       51.818      -16.478       11.627       34.864       34.457       28.730     1215.496     1187.266      825.437        0.316        0.161       54.375       23.605        0.188      340.228       14.104      862.110
10/08/2014  09:04:00       47.207       24.751       15.125       27.086       17.785       25.852      733.663      316.316      668.331        0.239        0.086       53.302        7.222        0.018      340.540       14.631      862.115
10/08/2014  09:05:00       47.302       54.656       26.184       24.181       28.324       27.948      584.722      802.246      781.100        0.404        0.108       72.283        3.877        0.003      340.539       14.631      862.117
10/08/2014  09:06:00       25.670       42.910       39.286       25.228       24.607       22.548      636.468      605.506      508.435        0.290        0.088       50.002        9.479        0.036      340.700       14.901      862.112
10/08/2014  09:07:00       15.605       10.761       21.993       34.631       31.226       25.412     1199.289      975.077      645.750        0.183        0.141       18.956       20.285        1.145      340.995       15.402      862.121
10/08/2014  09:08:00       16.641       47.789       55.586       41.203       33.087       28.214     1697.656     1094.769      796.004        0.462        0.179       50.604       19.882        0.154      341.138       15.641      862.128
10/08/2014  09:09:00       45.503       95.753       85.840       79.036       42.465       49.631     6246.660     1803.306     2463.257        1.456        0.526      106.014       50.887        0.230      340.700       14.902      862.135
10/08/2014  09:10:00       51.186       50.595       46.307       52.162       31.017       33.886     2720.890      962.081     1148.289        0.608        0.242       71.971       30.439        0.179      340.740       14.971      862.142
10/08/2014  09:11:00       34.630       71.639       67.851       39.458       39.690       40.599     1556.937     1575.271     1648.282        0.786        0.239       79.570       23.415        0.087      340.611       14.751      862.152
10/08/2014  09:12:00       98.766       72.139       52.137       38.400       29.370       34.015     1474.573      862.608     1156.998        1.058        0.175      122.306       27.352        0.050      340.497       14.558      862.162
10/08/2014  09:13:00       85.363       46.719       27.927       39.963       51.119       34.944     1597.073     2613.190     1221.084        0.784        0.272       97.312       33.082        0.116      340.548       14.644      862.159
10/08/2014  09:14:00       47.528       49.170       42.050       45.369       37.881       42.038     2058.372     1435.006     1767.205        0.585        0.263       68.386       32.777        0.230      340.767       15.015      862.140
10/08/2014  09:15:00       96.262       64.858       14.402       40.638       41.267       29.885     1651.409     1702.926      893.122        0.896        0.212      116.073       18.179        0.025      340.705       14.910      862.122
10/08/2014  09:16:00       16.316       25.964       37.671       23.825       25.374       24.215      567.629      643.847      586.364        0.208        0.090       30.665       12.063        0.155      341.111       15.598      862.112
10/08/2014  09:17:00       44.539       34.763       56.797       36.057       36.176       26.031     1300.096     1308.697      677.636        0.485        0.164       56.500       22.418        0.157      340.877       15.200      862.109
10/08/2014  09:18:00       14.436       -5.219       40.280       35.152       33.549       27.269     1235.632     1125.527      743.610        0.248        0.155       15.350       16.835        1.203      340.919       15.273      862.101
10/08/2014  09:19:00       17.160       20.162       38.438       25.381       28.078       24.790      644.197      788.388      614.541        0.211        0.102       26.476       17.973        0.461      341.309       15.932      862.112
10/08/2014  09:20:00       45.547       -6.340       11.120       37.858       40.675       30.020     1433.236     1654.469      901.212        0.311        0.199       45.986       23.680        0.265      340.947       15.320      862.120
10/08/2014  09:21:00       10.671      -11.947       32.422       28.108       37.670       26.706      790.083     1419.011      713.228        0.211        0.146       16.019       19.134        1.427      341.438       16.152      862.119
10/08/2014  09:22:00       49.802      -10.405       16.187       46.464       34.936       30.388     2158.946     1220.529      923.441        0.358        0.215       50.877       26.027        0.262      340.914       15.265      862.125
10/08/2014  09:23:00       69.956      -30.306        1.887       41.282       44.132       31.712     1704.177     1947.656     1005.649        0.524        0.233       76.239       23.573        0.096      340.731       14.954      862.134
10/08/2014  09:24:00       42.938       21.554       19.233       34.825       30.582       29.255     1212.752      935.289      855.829        0.284        0.150       48.044       16.575        0.119      341.039       15.476      862.135
10/08/2014  09:25:00       35.242       19.844       19.487       33.796       41.144       39.129     1142.202     1692.839     1531.050        0.319        0.218       40.445       20.419        0.255      341.091       15.563      862.140
10/08/2014  09:26:00       14.446       17.307       46.538       28.453       52.993       31.156      809.566     2808.226      970.708        0.363        0.229       22.544       34.855        2.390      341.211       15.767      862.147
10/08/2014  09:27:00       45.336       -0.264       15.181       41.014       39.072       29.748     1682.154     1526.617      884.922        0.319        0.205       45.337       24.418        0.290      340.914       15.263      862.170
10/08/2014  09:28:00       56.916       40.905       11.154       43.698       25.381       22.318     1909.512      644.173      498.115        0.404        0.153       70.091       20.283        0.084      341.105       15.588      862.182
10/08/2014  09:29:00       82.001       60.840        2.155       33.574       25.385       26.892     1127.197      644.412      723.196        0.646        0.125      102.106       14.108        0.019      341.064       15.517      862.175
10/08/2014  09:30:00       84.259       67.247        2.864       44.433       30.191       25.510     1974.285      911.468      650.749        0.758        0.177      107.804       20.086        0.035      341.257       15.843      862.172
10/08/2014  09:31:00       99.914       80.809        9.789       47.907       36.036       33.310     2295.072     1298.620     1109.570        1.066        0.235      128.502       23.468        0.033      341.273       15.872      862.164
10/08/2014  09:32:00       70.103       78.110       22.838       34.333       29.589       35.674     1178.741      875.498     1272.643        0.743        0.166      104.955       16.932        0.026      341.465       16.196      862.160
10/08/2014  09:33:00       74.653       50.745       21.640       38.825       25.788       29.412     1507.387      665.035      865.059        0.583        0.152       90.267       19.443        0.046      341.260       15.850      862.152
10/08/2014  09:34:00       83.084       56.224       14.187       50.104       40.808       40.090     2510.373     1665.310     1607.230        0.802        0.289      100.320       33.957        0.115      341.328       15.965      862.159
10/08/2014  09:35:00      119.037       82.253       24.250       28.757       19.283       29.061      826.939      371.841      844.521        1.178        0.102      144.691       13.867        0.009      341.156       15.674      862.159
10/08/2014  09:36:00       35.331       60.266        1.290       30.972       36.246       32.348      959.244     1313.747     1046.380        0.410        0.166       69.859       27.424        0.154      341.523       16.295      862.163
10/08/2014  09:37:00       29.890       30.210        4.757       42.353       37.107       25.701     1793.770     1376.913      660.521        0.283        0.192       42.498       15.436        0.132      341.741       16.664      862.154
10/08/2014  09:38:00       15.871       16.261       31.540       43.820       35.762       24.852     1920.176     1278.897      617.604        0.266        0.191       22.723       22.235        0.957      341.994       17.094      862.163
10/08/2014  09:39:00       24.257      -51.617       29.875       25.952       27.515       19.236      673.512      757.064      370.017        0.297        0.090       57.032       11.861        0.043      341.381       16.054      862.181
10/08/2014  09:40:00       39.426       43.260        1.286       27.926       45.448       28.690      779.888     2065.482      823.127        0.355        0.183       58.531       19.460        0.111      341.675       16.552      862.174
10/08/2014  09:41:00       -3.492        0.809       -6.876       22.434       38.534       22.537      503.275     1484.903      507.905        0.128        0.125        3.584       12.709       12.572      341.825       16.808      862.180
10/08/2014  09:42:00       -1.031      -35.764       25.681       15.210       33.115       17.200      231.357     1096.578      295.827        0.178        0.081       35.778       16.549        0.214      341.775       16.724      862.176
10/08/2014  09:43:00       57.787       17.962       23.777       39.017       36.100       29.049     1522.345     1303.191      843.829        0.395        0.183       60.515       20.942        0.120      341.507       16.268      862.164
10/08/2014  09:44:00       39.929       44.612       30.041       36.410       25.106       21.666     1325.663      630.323      469.429        0.346        0.121       59.871       21.808        0.133      341.783       16.735      862.146
10/08/2014  09:45:00       -9.529       10.942       45.346       15.076       23.990       16.895      227.275      575.516      285.448        0.168        0.054       14.510       12.216        0.709      342.435       17.843      862.136
10/08/2014  09:46:00       33.845       45.266       26.938       25.587       15.107       30.804      654.702      228.220      948.908        0.288        0.092       56.520       14.211        0.063      341.660       16.526      862.123
10/08/2014  09:47:00       22.685        5.060       13.404       34.004       40.634       25.158     1156.269     1651.107      632.946        0.208        0.172       23.243       16.339        0.494      341.901       16.934      862.118
10/08/2014  09:48:00       32.715       16.665       41.174       23.056       22.090       28.035      531.588      487.950      785.935        0.242        0.090       36.715       14.122        0.148      342.078       17.235      862.116
10/08/2014  09:49:00        0.004      -17.773       -2.613       28.692       32.561       26.009      823.241     1060.192      676.456        0.144        0.128       17.773       23.985        1.821      341.692       16.581      862.115
10/08/2014  09:50:00       -6.609       33.889       44.501       14.185       32.936       35.022      201.202     1084.795     1226.524        0.284        0.126       34.528       24.113        0.488      342.190       17.426      862.110
10/08/2014  09:51:00       53.535       32.670       19.956       33.418       35.430       25.006     1116.772     1255.311      625.322        0.366        0.150       62.716        8.871        0.020      342.009       17.120      862.112
10/08/2014  09:52:00       46.208       48.431       14.485       19.626       20.738       27.355      385.172      430.066      748.283        0.313        0.078       66.938       15.576        0.054      341.934       16.991      862.112
10/08/2014  09:53:00       48.309       37.025       17.614       27.618       22.901       22.298      762.733      524.440      497.192        0.290        0.089       60.866       13.536        0.049      342.103       17.278      862.114
10/08/2014  09:54:00       35.596       29.127       18.775       17.608       21.255       22.165      310.033      451.779      491.304        0.186        0.063       45.994       10.463        0.052      342.162       17.378      862.123
10/08/2014  09:55:00       55.301       40.543       12.678       27.130       23.485       22.153      736.029      551.557      490.748        0.332        0.089       68.571       15.389        0.050      342.188       17.423      862.131
10/08/2014  09:56:00       72.122       17.282        2.680       31.053       29.266       26.000      964.293      856.478      675.975        0.400        0.125       74.164       17.607        0.056      341.987       17.082      862.146
10/08/2014  09:57:00       25.991       23.859       16.299       37.955       28.319       26.278     1440.593      801.956      690.559        0.222        0.147       35.282       24.589        0.486      342.229       17.492      862.139
10/08/2014  09:58:00       56.731       85.038        0.227       36.306       36.739       39.478     1318.120     1349.789     1558.534        0.734        0.211      102.225       29.539        0.083      342.091       17.259      862.141
10/08/2014  09:59:00       56.648       76.249        0.480       41.650       49.133       33.589     1734.754     2414.073     1128.230        0.715        0.264       94.989       32.048        0.114      342.186       17.420      862.135
10/08/2014  10:00:00       57.926       45.798       -6.897       22.867       18.558       25.380      522.905      344.398      644.128        0.351        0.076       73.844        9.704        0.017      342.166       17.387      862.137
10/08/2014  10:01:00       56.468       37.317       -0.582       29.735       38.199       31.808      884.153     1459.178     1011.724        0.397        0.168       67.685       18.700        0.076      342.323       17.652      862.143
10/08/2014  10:02:00       72.426      -43.969        4.421       34.789       32.428       28.675     1210.286     1051.597      822.233        0.514        0.154       84.727       23.554        0.077      341.656       16.519      862.152
10/08/2014  10:03:00       19.409        7.190       38.272       26.696       22.016       20.252      712.679      484.716      410.156        0.175        0.080       20.698       13.029        0.396      342.202       17.448      862.149
10/08/2014  10:04:00        3.538      -33.641       -9.569       24.416       26.196       30.977      596.121      686.212      959.578        0.174        0.112       33.826       12.297        0.132      342.203       17.448      862.146
10/08/2014  10:05:00      -40.360       -1.341       -6.265       14.619       12.226       16.714      213.713      149.482      279.344        0.116        0.032       40.382        9.257        0.053      342.162       17.377      862.152
10/08/2014  10:06:00        0.165        7.064       24.088       14.621       20.550       20.015      213.760      422.302      400.596        0.083        0.052        7.066       13.417        3.606      342.866       18.575      862.159
10/08/2014  10:07:00       31.793       14.107        9.699       22.340       20.536       18.445      499.072      421.724      340.233        0.128        0.063       34.782       12.350        0.126      342.246       17.522      862.166
10/08/2014  10:08:00       24.465       -4.314       28.053       23.521       15.414       21.171      553.249      237.604      448.221        0.132        0.062       24.843       12.797        0.265      342.369       17.731      862.185
10/08/2014  10:09:00        9.200        6.689       23.626       19.254       19.053       19.788      370.729      363.029      391.573        0.091        0.056       11.375       16.227        2.035      342.606       18.135      862.190
10/08/2014  10:10:00       39.239       20.034       13.123       13.300       11.673       18.637      176.882      136.267      347.330        0.139        0.033       44.057        8.094        0.034      342.209       17.459      862.204
10/08/2014  10:11:00       16.790       24.764       12.043       16.224       13.310       17.994      263.224      177.146      323.798        0.090        0.038       29.920        8.059        0.073      342.368       17.729      862.200
10/08/2014  10:12:00       16.890       23.793       14.191       13.096       12.839       18.790      171.503      164.830      353.080        0.087        0.034       29.179       12.518        0.184      342.516       17.979      862.202
10/08/2014  10:13:00       19.195       23.828       13.894       23.792       20.456       20.570      566.061      418.430      423.118        0.127        0.070       30.598       15.275        0.249      342.650       18.209      862.201
10/08/2014  10:14:00        1.076       -5.115       11.636       25.058       18.022       20.720      627.901      324.804      429.314        0.077        0.069        5.227       16.988       10.562      342.799       18.463      862.198
10/08/2014  10:15:00        8.345      -17.050        4.410       22.825       14.843       22.807      520.984      220.302      520.163        0.082        0.063       18.983       16.020        0.712      342.553       18.043      862.194
10/08/2014  10:16:00        8.041      -15.915        4.010       20.833       22.915       18.777      434.007      525.079      352.571        0.082        0.066       17.830       12.771        0.513      342.428       17.832      862.193
10/08/2014  10:17:00       30.235        1.565        0.921       35.399       32.283       23.361     1253.122     1042.209      545.751        0.188        0.142       30.276       15.908        0.276      342.619       18.155      862.191
10/08/2014  10:18:00       27.840       35.819       10.208       31.240       15.588       24.244      975.951      242.994      587.789        0.198        0.090       45.366       20.000        0.194      342.848       18.544      862.175
10/08/2014  10:19:00       15.771       27.192       26.356       30.762       24.742       19.654      946.306      612.182      386.284        0.181        0.097       31.435       17.930        0.325      343.058       18.901      862.171
10/08/2014  10:20:00       23.493       17.893       30.686       39.943       28.769       26.846     1595.405      827.676      720.702        0.248        0.157       29.531       22.160        0.563      343.027       18.849      862.168
10/08/2014  10:21:00      -15.535       14.360       38.069       33.237       29.161       28.059     1104.685      850.345      787.328        0.232        0.137       21.155       24.282        1.317      343.278       19.278      862.163
10/08/2014  10:22:00       19.474      -68.789       15.394       50.770       50.241       43.063     2577.556     2524.198     1854.458        0.615        0.348       71.493       35.209        0.243      343.210       19.160      862.168
10/08/2014  10:23:00       17.689      -40.875       26.461       48.842       40.360       31.728     2385.492     1628.919     1006.669        0.385        0.251       44.538       24.211        0.296      343.187       19.121      862.166
10/08/2014  10:24:00        1.913      -29.413       25.823       37.804       53.178       37.504     1429.174     2827.872     1406.586        0.360        0.283       29.475       21.769        0.545      343.286       19.291      862.158
10/08/2014  10:25:00       14.714       10.311       63.029       27.599       73.659       29.510      761.726     5425.711      870.829        0.568        0.353       17.968       35.667        3.940      343.184       19.117      862.157
10/08/2014  10:26:00       15.654       24.119       17.598       35.663       27.760       26.299     1271.853      770.632      691.642        0.193        0.137       28.754       18.852        0.430      342.704       18.301      862.153
10/08/2014  10:27:00       16.477       20.023       14.062       24.252       28.644       20.605      588.170      820.456      424.586        0.135        0.092       25.931        9.900        0.146      343.075       18.933      862.147
10/08/2014  10:28:00       67.731      -40.215       -4.103       36.917       41.952       29.833     1362.836     1759.954      890.016        0.512        0.201       78.770       24.251        0.095      342.316       17.641      862.155
10/08/2014  10:29:00       72.767      -35.939       -2.041       52.418       48.503       39.767     2747.690     2352.589     1581.438        0.664        0.334       81.158       26.163        0.104      342.635       18.184      862.146
10/08/2014  10:30:00       60.676       11.721       28.603       41.597       40.220       30.183     1730.274     1617.634      911.001        0.445        0.213       61.798       28.393        0.211      342.776       18.423      862.149
10/08/2014  10:31:00       46.677       12.581       19.353       33.920       30.610       29.746     1150.599      936.963      884.797        0.284        0.149       48.343       25.323        0.274      342.623       18.162      862.145
10/08/2014  10:32:00       44.148      -20.751       17.847       40.187       43.192       35.814     1614.965     1865.542     1282.610        0.373        0.238       48.782       27.824        0.325      343.240       19.212      862.135
10/08/2014  10:33:00       -3.387       12.819       33.278       29.448       23.170       23.244      867.158      536.827      540.268        0.161        0.097       13.259       20.947        2.496      343.508       19.669      862.128
10/08/2014  10:34:00       29.729      -32.547       25.658       52.502       57.009       35.131     2756.457     3250.007     1234.204        0.492        0.362       44.081       31.239        0.502      343.510       19.672      862.127
10/08/2014  10:35:00       40.683      -80.999        0.947       44.545       57.446       41.785     1984.271     3300.025     1746.001        0.762        0.352       90.642       30.959        0.117      343.287       19.292      862.125
10/08/2014  10:36:00       30.825      -94.448       -2.298       44.567       53.964       38.554     1986.255     2912.119     1486.406        0.813        0.319       99.351       31.418        0.100      343.460       19.588      862.110
10/08/2014  10:37:00       22.745      -34.276       -7.900       37.255       55.733       33.790     1387.950     3106.115     1141.749        0.369        0.282       41.136       34.227        0.692      343.419       19.517      862.115
10/08/2014  10:38:00       16.519        5.792       24.751       32.369       27.594       28.424     1047.746      761.406      807.945        0.177        0.131       17.505       13.612        0.605      343.737       20.061      862.111
10/08/2014  10:39:00        4.633      -33.684       20.071       22.460       63.537       43.357      504.433     4037.012     1879.823        0.399        0.321       34.001       46.203        1.846      342.984       18.778      862.111
10/08/2014  10:40:00        3.339      -94.602        2.669       37.782       49.442       35.607     1427.450     2444.506     1267.861        0.705        0.257       94.661       27.014        0.081      343.387       19.461      862.100
10/08/2014  10:41:00      -57.464      -49.513        6.031       28.478       33.030       21.315      810.983     1090.993      454.331        0.407        0.118       75.853       15.175        0.040      343.408       19.498      862.110
10/08/2014  10:42:00       -0.441      -16.532       -0.210       45.291       48.340       29.847     2051.310     2336.794      890.831        0.278        0.264       16.538       23.313        1.987      343.250       19.229      862.097
10/08/2014  10:43:00        8.774      -18.534        9.534       29.843       29.425       31.304      890.617      865.830      979.940        0.162        0.137       20.506       21.837        1.134      343.643       19.899      862.094
10/08/2014  10:44:00        8.769       -9.048       28.459       45.123       33.694       28.120     2036.098     1135.289      790.762        0.246        0.198       12.600       14.856        1.390      343.445       19.561      862.085
10/08/2014  10:45:00      -36.077      -44.641       -4.362       40.873       35.195       24.369     1670.630     1238.691      593.856        0.341        0.175       57.396       19.636        0.117      343.557       19.753      862.086
10/08/2014  10:46:00      -81.735     -102.571      -12.884       38.097       41.924       32.280     1451.353     1757.653     1042.004        1.081        0.213      131.154       26.413        0.041      343.359       19.415      862.067
10/08/2014  10:47:00      -39.912      -23.466        9.500       30.442       42.785       19.073      926.740     1830.593      363.772        0.268        0.156       46.299       19.316        0.174      343.519       19.687      862.066
10/08/2014  10:48:00      -10.855       -4.441       15.184       20.881       22.234       18.419      436.025      494.344      339.251        0.082        0.063       11.728       15.796        1.814      343.892       20.323      862.058
10/08/2014  10:49:00       -0.308      -35.071        9.011       31.677       43.725       20.861     1003.430     1911.875      435.185        0.233        0.168       35.072       19.578        0.312      343.893       20.326      862.057
10/08/2014  10:50:00       -3.897      -28.703       20.378       25.838       60.262       36.707      667.613     3631.550     1347.416        0.345        0.282       28.966       34.508        1.419      344.087       20.658      862.051
10/08/2014  10:51:00        4.848       14.044       32.084       24.712       30.959       31.879      610.702      958.429     1016.283        0.192        0.129       14.857       25.683        2.988      344.116       20.708      862.055
10/08/2014  10:52:00       24.941        1.504       11.499       41.459       36.157       37.290     1718.823     1307.325     1390.578        0.259        0.221       24.986       37.009        2.194      343.483       19.628      862.064
10/08/2014  10:53:00       56.988      -80.880        7.160       55.429       84.665       41.538     3072.428     7168.173     1725.391        1.090        0.598       98.940       51.437        0.270      343.793       20.154      862.067
10/08/2014  10:54:00       55.273      -31.477       11.733       41.364       54.382       29.597     1710.991     2957.389      875.980        0.486        0.277       63.607       34.404        0.293      343.766       20.109      862.087
10/08/2014  10:55:00       50.390        2.264       29.598       51.618       32.867       37.262     2664.393     1080.257     1388.429        0.428        0.257       50.441       19.844        0.155      343.493       19.643      862.081
10/08/2014  10:56:00       80.483       -3.590       30.382       47.984       51.834       35.777     2302.490     2686.799     1279.981        0.684        0.313       80.563       32.198        0.160      343.577       19.787      862.079
10/08/2014  10:57:00       26.500       -4.939       11.305       25.920       26.812       26.894      671.828      718.876      723.289        0.148        0.106       26.957       12.857        0.227      343.713       20.020      862.073
10/08/2014  10:58:00      -18.627      -58.093        3.497       66.092       62.554       28.616     4368.128     3912.960      818.861        0.642        0.455       61.006       14.371        0.055      343.756       20.091      862.056
10/08/2014  10:59:00      -29.895      -29.526       37.869       26.817       33.992       22.610      719.149     1155.437      511.210        0.279        0.119       42.018       12.199        0.084      344.470       21.311      862.046
10/08/2014  11:00:00       20.390       -9.634       29.119       34.890       39.758       27.139     1217.302     1580.715      736.546        0.244        0.177       22.551       28.476        1.594      344.398       21.189      862.038
10/08/2014  11:01:00       27.397       -7.467        9.145       30.845       38.524       32.498      951.431     1484.068     1056.108        0.219        0.175       28.396       32.115        1.279      343.903       20.344      862.026
10/08/2014  11:02:00       30.322       -5.205        7.805       37.592       39.907       32.519     1413.143     1592.534     1057.512        0.253        0.203       30.766       24.745        0.647      343.719       20.029      862.011
10/08/2014  11:03:00       -6.604       -2.928       27.409       13.908       16.870       16.255      193.437      284.602      264.218        0.077        0.037        7.224       13.376        3.429      344.539       21.429      862.007
10/08/2014  11:04:00      -24.709      -67.375       -5.932       32.108       44.594       25.870     1030.919     1988.667      669.269        0.444        0.184       71.763       27.284        0.145      344.055       20.603      861.981
10/08/2014  11:05:00       23.904      -18.643       30.685       45.333       69.921       45.996     2055.085     4888.929     2115.661        0.546        0.453       30.314       42.952        2.008      344.444       21.266      861.980
10/08/2014  11:06:00       29.595       29.965       35.267       36.848       27.744       30.063     1357.777      769.734      903.769        0.302        0.152       42.116       11.291        0.072      344.087       20.657      861.972
10/08/2014  11:07:00       19.430      -40.595       28.739       44.341       69.596       43.622     1966.081     4843.572     1902.904        0.578        0.436       45.006       41.601        0.854      344.360       21.123      861.960
10/08/2014  11:08:00      111.557     -138.308      -14.913       67.722      105.000       46.474     4586.312    11025.076     2159.879        2.478        0.889      177.691       45.130        0.065      344.167       20.790      861.946
10/08/2014  11:09:00       44.316      -78.857        3.104       48.477       62.059       53.663     2350.055     3851.349     2879.723        0.863        0.454       90.456       42.398        0.220      344.221       20.887      861.948
10/08/2014  11:10:00       70.267      -85.191        5.652       67.128       76.979       52.674     4506.177     5925.838     2774.552        1.271        0.660      110.431       47.068        0.182      344.142       20.751      861.950
10/08/2014  11:11:00       53.351      -28.887       36.007       50.217       74.647       48.813     2521.753     5572.204     2382.668        0.773        0.524       60.670       51.585        0.723      344.163       20.787      861.950
10/08/2014  11:12:00       70.726      -27.772       31.323       55.965       70.097       39.986     3132.134     4913.591     1598.855        0.820        0.482       75.983       47.905        0.397      344.300       21.020      861.953
10/08/2014  11:13:00       41.451       13.445       39.565       55.492       39.472       39.710     3079.416     1558.009     1576.847        0.484        0.311       43.577       35.676        0.670      344.249       20.934      861.941
10/08/2014  11:14:00       90.893      -14.157        7.059       49.105       31.074       29.058     2411.271      965.590      844.340        0.637        0.211       91.989       19.729        0.046      343.737       20.059      861.924
10/08/2014  11:15:00       26.735      -11.224       25.162       46.704       28.132       32.488     2181.260      791.386     1055.490        0.275        0.201       28.995       21.283        0.539      344.454       21.285      861.911
10/08/2014  11:16:00      -17.148      -61.823       15.831       31.918       44.083       27.871     1018.784     1943.313      776.817        0.405        0.187       64.158       26.124        0.166      344.365       21.133      861.898
10/08/2014  11:17:00      -22.584      -19.382       -9.644       28.066       30.686       13.586      787.673      941.618      184.583        0.145        0.096       29.760        9.472        0.101      344.347       21.101      861.907
10/08/2014  11:18:00       62.920      -63.168        7.043       40.940       65.444       33.441     1676.043     4282.975     1118.299        0.754        0.354       89.157       34.530        0.150      344.590       21.517      861.897
10/08/2014  11:19:00       40.331       -8.951       23.519       46.795       51.793       39.144     2189.752     2682.478     1532.264        0.433        0.320       41.312       36.857        0.796      344.575       21.492      861.883
10/08/2014  11:20:00       21.894      -80.405        8.353       48.443       53.688       38.999     2346.762     2882.412     1520.952        0.688        0.338       83.332       31.805        0.146      344.367       21.134      861.872
10/08/2014  11:21:00       11.266       21.368       47.340       54.577       56.920       46.837     2978.645     3239.883     2193.718        0.562        0.421       24.156       40.702        2.839      344.453       21.284      861.858
10/08/2014  11:22:00      113.730       68.471       18.881       40.567       39.694       34.057     1645.663     1575.582     1159.851        1.118        0.219      132.750       16.611        0.016      344.269       20.968      861.858
10/08/2014  11:23:00       34.681       26.008       19.596       32.415       20.952       33.067     1050.722      439.005     1093.447        0.242        0.129       43.349       16.194        0.140      344.769       21.822      861.851
10/08/2014  11:24:00       42.358       36.956       17.514       51.992       40.845       25.083     2703.197     1668.279      629.160        0.423        0.250       56.213       17.803        0.100      344.781       21.844      861.836
10/08/2014  11:25:00       15.568      -14.434       17.043       35.673       46.169       31.430     1272.580     2131.555      987.834        0.257        0.220       21.230       28.652        1.821      344.853       21.966      861.830
10/08/2014  11:26:00       47.979       13.927       27.934       39.597       30.626       37.523     1567.892      937.960     1407.962        0.359        0.196       49.959       22.814        0.209      344.342       21.093      861.822
10/08/2014  11:27:00       43.351        1.577       -1.105       25.229       21.703       25.546      636.499      471.025      652.583        0.182        0.088       43.380       14.370        0.110      343.922       20.375      861.806
10/08/2014  11:28:00       -0.109      -18.988       12.596       27.219       50.448       28.537      740.886     2544.991      814.379        0.231        0.205       18.989       15.868        0.698      344.270       20.971      861.795
10/08/2014  11:29:00       71.156      -79.726        0.902       35.812       41.625       22.253     1282.502     1732.666      495.184        0.746        0.176      106.862       18.798        0.031      344.446       21.270      861.784
10/08/2014  11:30:00        0.597      -28.940       37.234       31.642       45.127       28.701     1001.244     2036.453      823.727        0.304        0.193       28.946       12.994        0.202      345.001       22.221      861.775
10/08/2014  11:31:00       10.179      -39.758       18.637       45.603       50.918       33.630     2079.654     2592.644     1130.988        0.392        0.290       41.041       36.087        0.773      344.843       21.949      861.771
10/08/2014  11:32:00       15.641      -66.302        5.933       42.436       51.328       31.261     1800.848     2634.514      977.247        0.504        0.271       68.122       24.329        0.128      344.795       21.868      861.746
10/08/2014  11:33:00      -25.180       -3.651        1.098       29.088       28.030       27.203      846.134      785.688      739.985        0.151        0.119       25.443       14.034        0.304      344.964       22.157      861.723
10/08/2014  11:34:00      -16.050       10.952       -2.425       44.742       33.006       17.199     2001.807     1089.424      295.811        0.188        0.169       19.430       15.829        0.664      344.612       21.555      861.695
10/08/2014  11:35:00      -17.175       -2.246       11.351       27.295       19.412       14.598      745.044      376.832      213.097        0.088        0.067       17.321       11.916        0.473      345.096       22.382      861.687
10/08/2014  11:36:00      -17.685       21.296       23.394       27.893       51.934       30.927      778.013     2697.192      956.489        0.287        0.222       27.682       23.189        0.702      345.040       22.288      861.672
10/08/2014  11:37:00       39.546       16.457       52.212       34.781       36.193       28.675     1209.751     1309.942      822.230        0.395        0.167       42.833       24.946        0.339      344.769       21.823      861.673
10/08/2014  11:38:00       24.865       25.289       34.170       29.951       34.109       23.547      897.074     1163.440      554.473        0.252        0.131       35.466       21.799        0.378      344.598       21.532      861.665
10/08/2014  11:39:00       15.723       14.935       28.058       32.751       28.736       23.930     1072.655      825.743      572.637        0.186        0.124       21.686        8.911        0.169      344.833       21.934      861.654
10/08/2014  11:40:00       45.118      -43.502       15.242       47.642       64.304       32.907     2269.772     4135.017     1082.904        0.582        0.374       62.674       35.394        0.319      344.715       21.731      861.661
10/08/2014  11:41:00       54.245      -49.668       13.469       55.138       64.842       38.189     3040.196     4204.484     1458.378        0.715        0.435       73.549       37.008        0.253      344.683       21.677      861.649
10/08/2014  11:42:00       11.761      -12.541       38.592       33.397       52.953       42.887     1115.376     2804.060     1839.298        0.377        0.288       17.192       29.848        3.014      345.305       22.740      861.642
10/08/2014  11:43:00       13.334       60.075       96.228       32.838       73.077       35.535     1078.302     5340.176     1262.704        1.036        0.384       61.537       45.553        0.548      344.847       21.956      861.628
10/08/2014  11:44:00        8.185        2.867       42.661       28.032       35.011       29.023      785.777     1225.767      842.334        0.237        0.143        8.672       21.019        5.874      345.056       22.314      861.629
10/08/2014  11:45:00      116.592      112.353       11.666       57.981       38.150       45.436     3361.763     1455.387     2064.472        1.662        0.344      161.916       29.869        0.034      344.723       21.743      861.632
10/08/2014  11:46:00      105.369      114.722       13.067       50.896       34.267       42.935     2590.391     1174.223     1843.408        1.502        0.280      155.768       31.994        0.042      344.705       21.713      861.617
10/08/2014  11:47:00       22.436       49.464        7.234       50.178       78.718       39.052     2517.867     6196.491     1525.088        0.662        0.512       54.315       44.355        0.667      345.223       22.601      861.607
10/08/2014  11:48:00       40.195      -57.482      -13.737       44.516       46.783       30.889     1981.661     2188.611      954.113        0.512        0.256       70.141       26.035        0.138      344.287       20.999      861.587
10/08/2014  11:49:00       40.108      -24.670       23.811       34.184       43.845       28.057     1168.531     1922.345      787.173        0.333        0.194       47.088       27.463        0.340      344.584       21.508      861.577
10/08/2014  11:50:00       98.255       49.233       40.411       42.426       58.719       41.787     1799.927     3447.965     1746.182        1.035        0.350      109.899       38.649        0.124      344.614       21.558      861.564
10/08/2014  11:51:00       50.547       35.515       16.911       46.494       38.382       36.403     2161.698     1473.212     1325.169        0.453        0.248       61.776       18.433        0.089      345.200       22.559      861.559
10/08/2014  11:52:00       16.163       27.811       25.108       33.543       39.797       30.606     1125.125     1583.831      936.727        0.265        0.182       32.167       17.652        0.301      345.405       22.912      861.560
10/08/2014  11:53:00       -0.950       26.221       28.231       19.844       25.134       17.564      393.800      631.693      308.508        0.141        0.067       26.239       15.415        0.345      345.587       23.224      861.540
10/08/2014  11:54:00        4.114       37.862       20.102       33.131       32.378       31.547     1097.678     1048.335      995.212        0.250        0.157       38.085       27.141        0.508      345.358       22.832      861.544
10/08/2014  11:55:00       26.069        8.569       11.238       26.869       34.058       32.463      721.953     1159.960     1053.878        0.191        0.147       27.441       23.803        0.752      344.889       22.029      861.537
10/08/2014  11:56:00        8.857        6.053       38.573       29.658       54.209       45.800      879.571     2938.597     2097.612        0.376        0.296       10.728       44.055       16.865      345.316       22.759      861.531
10/08/2014  11:57:00       57.401       64.002       78.771       63.846       64.875       62.939     4076.328     4208.753     3961.349        1.292        0.612       85.971       53.739        0.391      345.047       22.298      861.524
10/08/2014  11:58:00       55.931       92.677       94.491       73.356       69.895       47.977     5381.098     4885.254     2301.784        1.660        0.628      108.246       44.389        0.168      344.717       21.734      861.513
10/08/2014  11:59:00       59.884      -13.005       30.965       56.086       61.682       46.621     3145.675     3804.698     2173.509        0.692        0.456       61.280       43.293        0.499      344.564       21.472      861.502
10/08/2014  12:00:00      117.524       17.265       -2.757       33.409       50.964       39.259     1116.191     2597.335     1541.302        0.969        0.263      118.785       22.505        0.036      344.548       21.445      861.488
10/08/2014  12:01:00       -8.754       62.655      -16.282       43.487       63.372       31.538     1891.143     4016.044      994.645        0.558        0.345       63.263       13.625        0.046      345.078       22.352      861.460
10/08/2014  12:02:00       26.497      -44.457        1.218       57.966       25.431       27.985     3360.093      646.739      783.186        0.373        0.240       51.755        9.435        0.033      345.051       22.305      861.438
10/08/2014  12:03:00       19.131      -21.443       27.373       48.035       33.521       31.118     2307.406     1123.676      968.342        0.299        0.220       28.737       27.227        0.898      345.206       22.572      861.415
10/08/2014  12:04:00       16.417      -56.261       26.534       44.032       50.611       38.623     1938.847     2561.481     1491.751        0.506        0.300       58.608       28.809        0.242      345.278       22.694      861.399
10/08/2014  12:05:00       34.956        2.937       34.810       41.904       31.564       25.262     1755.973      996.276      638.167        0.292        0.170       35.079       25.961        0.548      345.524       23.118      861.384
10/08/2014  12:06:00      -12.121      -71.090       18.261       58.892       82.643       59.054     3468.305     6829.837     3487.360        0.966        0.689       72.116       40.900        0.322      345.416       22.930      861.363
10/08/2014  12:07:00      149.428      136.838       33.338       80.959       56.552       67.667     6554.407     3198.075     4578.837        2.825        0.717      202.617       29.997        0.022      345.491       23.057      861.359
10/08/2014  12:08:00       65.894       82.016       67.061       50.973       76.263       57.127     2598.205     5816.117     3263.501        1.362        0.584      105.208       49.419        0.221      345.351       22.819      861.361
10/08/2014  12:09:00       43.997       -4.874       23.436       60.963       73.526       44.622     3716.476     5406.132     1991.105        0.681        0.556       44.266       35.965        0.660      345.160       22.492      861.344
10/08/2014  12:10:00       49.587       30.553        4.656       51.374       69.685       42.816     2639.272     4856.026     1833.191        0.637        0.466       58.244       21.677        0.139      345.313       22.755      861.330
10/08/2014  12:11:00      188.925      155.087        0.186       65.638       53.655       44.358     4308.380     2878.863     1967.607        3.445        0.458      244.427       30.702        0.016      345.125       22.429      861.346
10/08/2014  12:12:00        3.383       92.525      -27.014       41.980       60.184       24.851     1762.307     3622.158      617.595        0.765        0.300       92.587       18.620        0.040      345.167       22.504      861.342
10/08/2014  12:13:00      -26.245        2.335       -3.042       23.752       18.698       21.547      564.166      349.627      464.292        0.104        0.069       26.349       15.272        0.336      345.678       23.381      861.330
10/08/2014  12:14:00       24.472        2.530       16.318       44.785       29.225       26.404     2005.737      854.105      697.169        0.221        0.178       24.603       22.088        0.806      345.670       23.367      861.318
10/08/2014  12:15:00       30.430       34.295       62.774       35.332       42.662       29.637     1248.357     1820.030      878.350        0.499        0.197       45.849       24.355        0.282      345.312       22.752      861.293
10/08/2014  12:16:00       71.783       48.074       62.574       54.994       78.607       52.387     3024.381     6179.102     2744.374        1.166        0.597       86.394       54.072        0.392      344.979       22.181      861.283
10/08/2014  12:17:00       77.235       47.035        8.696       63.801       52.667       31.278     4070.578     2773.766      978.291        0.804        0.391       90.430       27.408        0.092      345.219       22.593      861.262
10/08/2014  12:18:00      -24.246      -25.549       11.198       38.966       44.143       36.170     1518.320     1948.561     1308.299        0.307        0.239       35.222       24.399        0.480      345.664       23.355      861.248
10/08/2014  12:19:00       73.174       25.682       41.074       71.775       67.393       52.905     5151.683     4541.760     2798.891        1.009        0.625       77.550       40.362        0.271      345.833       23.646      861.234
10/08/2014  12:20:00       97.980       63.443       41.863       55.853       38.813       51.155     3119.529     1506.411     2616.788        1.131        0.362      116.727       33.421        0.082      345.410       22.920      861.227
10/08/2014  12:21:00       56.170       23.793       43.124       48.103       67.403       45.273     2313.935     4543.150     2049.642        0.724        0.445       61.002       49.687        0.663      345.497       23.070      861.228
10/08/2014  12:22:00      -47.388      -78.038      -12.199       34.953       46.941       22.599     1221.698     2203.467      510.717        0.621        0.197       91.299       17.227        0.036      345.316       22.759      861.200
10/08/2014  12:23:00      -19.807      -18.435       10.681       37.914       27.444       27.463     1437.465      753.196      754.218        0.190        0.147       27.059       20.778        0.590      345.926       23.806      861.189
10/08/2014  12:24:00       30.902      -33.383        6.910       41.515       33.822       27.367     1723.480     1143.961      748.932        0.287        0.181       45.490       16.974        0.139      345.885       23.735      861.185
10/08/2014  12:25:00        4.959      -43.986       36.729       41.327       81.827       51.079     1707.888     6695.610     2609.044        0.716        0.551       44.265       47.534        1.153      346.034       23.992      861.172
10/08/2014  12:26:00       71.314        7.073       57.503       56.954       76.956       45.213     3243.704     5922.209     2044.235        0.982        0.561       71.664       53.054        0.548      345.858       23.689      861.164
10/08/2014  12:27:00        4.207       76.394      114.794       36.361       71.976       47.970     1322.110     5180.600     2301.131        1.392        0.440       76.510       48.992        0.410      346.270       24.395      861.147
10/08/2014  12:28:00       38.870       20.914       81.654       59.984      100.800       63.201     3598.059    10160.715     3994.416        1.318        0.888       44.139       67.585        2.345      345.986       23.909      861.132
10/08/2014  12:29:00       14.538       55.508       70.684       39.672       57.435       47.834     1573.868     3298.776     2288.134        0.772        0.358       57.381       34.589        0.363      345.911       23.780      861.128
10/08/2014  12:30:00      125.084       95.383       39.831       70.467       46.888       52.296     4965.606     2198.463     2734.836        1.811        0.495      157.302       49.653        0.100      345.612       23.265      861.100
10/08/2014  12:31:00       82.673       69.988       61.084       85.280       60.969       54.604     7272.719     3717.249     2981.594        1.472        0.699      108.320       50.882        0.221      345.975       23.890      861.074
10/08/2014  12:32:00       48.801       44.935       85.205       60.283       74.728       40.033     3634.031     5584.301     1602.641        1.124        0.541       66.338       44.518        0.450      346.215       24.302      861.061
10/08/2014  12:33:00      103.331      -85.595       16.711       77.117       76.809       49.979     5946.964     5899.625     2497.892        1.631        0.717      134.179       51.681        0.148      345.961       23.864      861.039
10/08/2014  12:34:00      157.025     -162.705      -39.640       49.172       75.776       48.328     2417.869     5742.013     2335.611        3.160        0.525      226.119       45.416        0.040      345.616       23.270      861.047
10/08/2014  12:35:00      109.164     -135.609      -31.139       47.156       59.824       31.315     2223.708     3578.937      980.655        1.903        0.339      174.088       31.140        0.032      345.568       23.190      861.031
10/08/2014  12:36:00       73.204     -118.033      -21.700       55.694       81.112       46.599     3101.825     6579.082     2171.490        1.580        0.593      138.891       45.130        0.106      345.831       23.641      861.006
10/08/2014  12:37:00       65.888     -102.752       -3.885       59.497       36.715       30.080     3539.844     1347.965      904.808        1.035        0.290      122.062       35.697        0.086      345.665       23.358      861.016
10/08/2014  12:38:00       22.400      -50.542       20.722       33.989       85.195       40.207     1155.277     7258.242     1616.601        0.676        0.502       55.283       54.713        0.979      345.978       23.895      861.001
10/08/2014  12:39:00        7.820        9.937       38.130       25.553       48.982       34.071      652.954     2399.275     1160.838        0.291        0.211       12.645       34.036        7.246      346.533       24.850      860.978
10/08/2014  12:40:00        9.882       39.725       55.503       34.290       30.031       29.287     1175.811      901.874      857.726        0.385        0.147       40.936       25.850        0.399      346.597       24.958      860.956
10/08/2014  12:41:00       -5.075       37.938       -3.353       35.641       32.925       21.251     1270.293     1084.054      451.622        0.214        0.140       38.276       19.672        0.264      346.133       24.162      860.942
10/08/2014  12:42:00      -73.974      -18.545      -15.377       21.211       32.439       28.672      449.920     1052.284      822.072        0.419        0.116       76.263       13.559        0.032      345.801       23.591      860.916
10/08/2014  12:43:00      -73.179      -24.478       -8.310       25.636       38.423       23.553      657.202     1476.299      554.744        0.436        0.134       77.165       18.728        0.059      345.889       23.741      860.894
10/08/2014  12:44:00      -58.838       13.630      -11.661       22.007       17.324       14.857      484.288      300.121      220.729        0.239        0.050       60.396        7.642        0.016      345.776       23.550      860.874
10/08/2014  12:45:00      -66.253      -13.055      -10.709       32.879       26.667       17.245     1081.014      711.126      297.400        0.338        0.104       67.527       12.796        0.036      345.892       23.746      860.844
10/08/2014  12:46:00      -72.623      -79.542        6.916       39.043       52.229       28.479     1524.323     2727.848      811.072        0.836        0.253      107.708       18.303        0.029      345.889       23.743      860.828
10/08/2014  12:47:00      -55.820      -54.201        7.399       64.978       44.899       36.755     4222.153     2015.932     1350.958        0.685        0.379       77.805       38.915        0.250      346.202       24.280      860.824
10/08/2014  12:48:00      -95.595      -24.575       -3.215       45.917       42.175       22.388     2108.375     1778.725      501.202        0.707        0.219       98.703       13.143        0.018      346.029       23.982      860.814
10/08/2014  12:49:00      -52.496     -127.958       -9.725       38.835       57.227       28.971     1508.138     3274.909      839.307        1.242        0.281      138.308       17.065        0.015      345.969       23.881      860.794
10/08/2014  12:50:00      -66.578      -88.029       -2.822       23.267       48.686       19.370      541.373     2370.336      375.201        0.774        0.164      110.371       20.965        0.036      345.796       23.582      860.785
10/08/2014  12:51:00       36.434      -85.887        3.049       51.286       63.283       36.702     2630.220     4004.768     1347.044        0.835        0.399       93.296       36.562        0.154      346.308       24.461      860.767
10/08/2014  12:52:00       -7.622       40.545       82.840       25.036       43.058       23.552      626.803     1854.024      554.679        0.580        0.152       41.255       23.973        0.338      346.826       25.352      860.730
10/08/2014  12:53:00       27.053       39.669       44.941       55.928       33.654       36.219     3127.961     1132.566     1311.846        0.495        0.279       48.015       37.675        0.616      346.697       25.130      860.730
10/08/2014  12:54:00       65.106       57.879       25.719       52.431       39.964       29.316     2749.049     1597.134      859.428        0.673        0.260       87.114       26.313        0.091      346.352       24.538      860.705
10/08/2014  12:55:00       54.564       48.363        3.978       51.472       43.476       28.945     2649.401     1890.163      837.789        0.535        0.269       72.912       29.702        0.166      346.657       25.062      860.698
10/08/2014  12:56:00       22.963       27.688        6.029       39.076       57.920       28.976     1526.957     3354.707      839.633        0.352        0.286       35.971       24.369        0.459      346.445       24.697      860.684
10/08/2014  12:57:00       -8.893      117.369      -28.036       31.031       42.787       17.875      962.907     1830.749      319.510        0.888        0.156      117.705       10.419        0.008      346.021       23.969      860.667
10/08/2014  12:58:00      -45.157       77.977       -9.923       28.252       36.544       25.351      798.156     1335.443      642.664        0.550        0.139       90.108       20.106        0.050      346.340       24.517      860.648
10/08/2014  12:59:00      -29.109       -7.128       -2.514       12.905       18.191       16.813      166.530      330.912      282.691        0.084        0.039       29.969       11.519        0.148      346.132       24.160      860.642
10/08/2014  13:00:00       -6.457      116.102      -18.823       37.900      106.273       32.739     1436.441    11293.886     1071.869        1.384        0.690      116.281       39.980        0.118      346.221       24.312      860.632
10/08/2014  13:01:00       13.426      153.884      -13.745       42.966       94.298       37.000     1846.115     8892.148     1369.017        1.808        0.605      154.468       45.357        0.086      346.306       24.456      860.624
10/08/2014  13:02:00       82.361       46.086       12.331       59.910       45.132       32.057     3589.193     2036.858     1027.679        0.786        0.333       94.378       22.431        0.056      346.449       24.704      860.611
10/08/2014  13:03:00       28.831       82.858       10.324       56.959       66.001       32.055     3244.299     4356.158     1027.536        0.821        0.431       87.730       25.971        0.088      346.691       25.121      860.592
10/08/2014  13:04:00       16.652       29.660        3.430       59.821       89.996       38.998     3578.524     8099.351     1520.869        0.718        0.660       34.015       26.338        0.600      346.153       24.195      860.598
10/08/2014  13:05:00       53.202       30.285       11.871       41.998       33.932       37.716     1763.872     1151.411     1422.524        0.411        0.217       61.217       20.355        0.111      346.127       24.150      860.546
10/08/2014  13:06:00      -25.197      106.730       -3.092       38.015       87.475       32.870     1445.131     7651.885     1080.419        1.110        0.509      109.663       33.952        0.096      346.468       24.737      860.565
10/08/2014  13:07:00      -78.419      237.357      -29.901       39.709       75.989       40.906     1576.839     5774.366     1673.280        3.620        0.451      249.976       38.764        0.024      346.124       24.143      860.568
10/08/2014  13:08:00      -43.084      228.291      -24.604       48.386       76.032       29.634     2341.176     5780.851      878.158        3.179        0.450      232.321       25.827        0.012      346.087       24.081      860.556
10/08/2014  13:09:00      -33.368      243.188      -19.335       38.141       64.982       39.556     1454.708     4222.619     1564.672        3.393        0.362      245.466       36.882        0.023      346.171       24.222      860.522
10/08/2014  13:10:00      -94.051      160.082      -25.217       76.643       81.222       48.743     5874.160     6597.009     2375.893        2.497        0.742      185.666       45.023        0.059      346.287       24.425      860.522
10/08/2014  13:11:00      -50.248       20.290       -8.569       57.813       38.568       25.985     3342.396     1487.503      675.213        0.426        0.275       54.190       37.668        0.483      346.156       24.202      860.505
10/08/2014  13:12:00      -31.390       58.343      -18.613       50.171       42.811       26.131     2517.122     1832.801      682.804        0.488        0.252       66.252       19.117        0.083      346.222       24.313      860.471
10/08/2014  13:13:00      -47.781       43.210      -13.826       30.252       36.040       23.027      915.213     1298.885      530.242        0.354        0.137       64.421       19.510        0.092      346.218       24.307      860.456
10/08/2014  13:14:00       35.964       93.623       10.087       42.891       41.239       39.387     1839.633     1700.618     1551.331        0.763        0.255      100.293       29.710        0.088      346.416       24.648      860.426
10/08/2014  13:15:00       50.641       73.581      -14.596       47.772       74.098       42.700     2282.145     5490.525     1823.255        0.889        0.480       89.323       32.380        0.131      346.263       24.384      860.414
10/08/2014  13:16:00      128.034      107.964       14.990       84.832       51.575       41.534     7196.418     2659.964     1725.047        1.993        0.579      167.478       29.931        0.032      346.192       24.261      860.379
10/08/2014  13:17:00       48.832       88.243       12.603       90.865       60.253       41.584     8256.482     3630.380     1729.203        1.197        0.681      100.853       37.241        0.136      346.493       24.780      860.358
10/08/2014  13:18:00       88.488       79.815       57.197       89.136       61.838       57.552     7945.286     3823.924     3312.208        1.627        0.754      119.166       49.894        0.175      346.486       24.768      860.319
10/08/2014  13:19:00       60.457       85.687       54.200       74.221       91.330       63.102     5508.759     8341.214     3981.857        1.588        0.892      104.868       42.562        0.165      346.659       25.064      860.291
10/08/2014  13:20:00      118.859      100.440       93.276      114.837       62.276       58.948    13187.432     3878.347     3474.824        2.672        1.027      155.614       62.756        0.163      346.652       25.052      860.278
10/08/2014  13:21:00      141.913       76.603       35.133       81.627       62.470       59.897     6662.957     3902.551     3587.692        2.070        0.708      161.268       46.186        0.082      346.445       24.696      860.255
10/08/2014  13:22:00      161.480      119.774       45.710      104.038       64.279       64.403    10823.832     4131.826     4147.756        3.080        0.955      201.052       32.598        0.026      346.506       24.800      860.260
10/08/2014  13:23:00       62.233       97.820       -2.107       76.398       87.111       52.233     5836.691     7588.311     2728.297        1.480        0.808      115.939       48.862        0.178      346.721       25.170      860.262
10/08/2014  13:24:00       44.751      241.639      -22.335       70.051      121.187       78.122     4907.183    14686.179     6103.105        4.329        1.285      245.748       79.191        0.104      346.423       24.657      860.257
10/08/2014  13:25:00       -5.615      291.054      -39.443       53.384       88.244       32.193     2849.849     7786.954     1036.383        4.898        0.584      291.108       28.032        0.009      346.276       24.404      860.231
10/08/2014  13:26:00        4.867      254.041      -29.523       55.471       78.120       31.560     3076.989     6102.732      996.003        3.780        0.509      254.088       24.124        0.009      346.442       24.689      860.209
10/08/2014  13:27:00       52.856      109.016       -8.588       56.731       66.240       38.828     3218.363     4387.711     1507.623        1.193        0.456      121.154       35.677        0.087      346.707       25.148      860.197
10/08/2014  13:28:00        2.933      139.428       -6.379       43.303      108.674       40.204     1875.130    11810.068     1616.330        1.739        0.765      139.459       47.224        0.115      346.578       24.926      860.178
10/08/2014  13:29:00       -6.343       35.585       13.494       21.693       50.881       24.173      470.592     2588.881      584.342        0.257        0.182       36.146       21.398        0.350      346.819       25.341      860.146
10/08/2014  13:30:00      -19.656       74.774        1.858       61.602       73.099       38.094     3794.754     5343.526     1451.129        0.828        0.529       77.314       26.915        0.121      346.815       25.335      860.123
10/08/2014  13:31:00       60.516       66.619       -5.173       66.016       86.012       46.162     4358.158     7398.053     2130.914        1.100        0.694       90.002       40.168        0.199      346.860       25.412      860.109
10/08/2014  13:32:00      -36.336      129.857      -12.195       33.451       61.758       29.221     1118.975     3814.008      853.846        1.206        0.289      134.845       34.642        0.066      346.688       25.115      860.097
10/08/2014  13:33:00       -6.908       34.091        5.786       21.421       49.040       24.159      458.850     2404.915      583.666        0.234        0.172       34.784       30.001        0.744      347.338       26.236      860.092
10/08/2014  13:34:00       42.355       41.855       -0.819       40.435       46.214       29.272     1635.024     2135.727      856.876        0.409        0.231       59.546       29.270        0.242      346.940       25.549      860.089
10/08/2014  13:35:00       -1.598       99.249      -19.924       40.773       74.413       34.586     1662.447     5537.342     1196.176        0.932        0.420       99.262       36.464        0.135      346.555       24.888      860.077
10/08/2014  13:36:00      -64.285       24.780       -7.626       51.231       33.215       31.122     2624.607     1103.217      968.606        0.475        0.235       68.896       27.378        0.158      346.480       24.758      860.058
10/08/2014  13:37:00      -26.355       88.048        7.222       40.191       85.305       41.291     1615.339     7276.900     1704.928        0.955        0.530       91.908       51.705        0.316      346.957       25.576      860.044
10/08/2014  13:38:00      -83.990       85.782      -19.892       50.039       55.703       31.509     2503.867     3102.807      992.808        1.070        0.330      120.053       32.158        0.072      346.712       25.158      860.029
10/08/2014  13:39:00      -88.480       44.011      -18.650       47.492       44.486       23.559     2255.526     1979.029      555.018        0.745        0.239       98.822       16.991        0.030      346.826       25.353      859.997
10/08/2014  13:40:00        7.106      116.401      -13.026       31.261       55.483       32.260      977.222     3078.358     1040.689        0.943        0.255      116.618       29.667        0.065      346.726       25.182      859.973
10/08/2014  13:41:00       64.060       61.790       10.313       89.334       52.805       36.960     7980.491     2788.406     1366.067        1.008        0.607       89.004       24.398        0.075      346.967       25.594      859.963
10/08/2014  13:42:00       95.287       97.375       -4.703       71.834       55.456       39.835     5160.193     3075.357     1586.816        1.420        0.491      136.240       34.928        0.066      346.993       25.639      859.938
10/08/2014  13:43:00      -34.918      242.675      -32.012       45.983       94.759       40.923     2114.402     8979.267     1674.723        3.695        0.638      245.174       46.407        0.036      346.577       24.923      859.935
10/08/2014  13:44:00      -66.791      200.782      -21.362       43.072       71.816       36.073     1855.191     5157.472     1301.273        2.677        0.416      211.600       35.682        0.028      346.537       24.853      859.931
10/08/2014  13:45:00     -135.973       -1.086      -29.040       33.700       48.667       30.142     1135.717     2368.452      908.520        1.187        0.221      135.977       24.009        0.031      346.405       24.629      859.918
10/08/2014  13:46:00      -69.583       -4.428       -0.973       33.040       27.573       21.930     1091.618      760.287      480.940        0.360        0.117       69.724       20.048        0.083      346.538       24.857      859.878
10/08/2014  13:47:00       10.269       25.755       12.218       23.880       52.298       25.566      570.262     2735.074      653.601        0.244        0.198       27.727       13.063        0.222      346.974       25.607      859.859
10/08/2014  13:48:00       10.824      -10.207      -23.904       31.831       68.159       26.623     1013.232     4645.631      708.806        0.358        0.318       14.878       20.202        1.844      346.598       24.961      859.849
10/08/2014  13:49:00       18.401       46.519       -4.823       27.802       63.799       20.104      772.928     4070.312      404.191        0.389        0.262       50.026       28.435        0.323      346.731       25.190      859.810
10/08/2014  13:50:00       45.122       94.615      -14.881       30.882       43.333       24.897      953.676     1877.767      619.884        0.733        0.173      104.824       21.956        0.044      346.672       25.087      859.802
10/08/2014  13:51:00       -0.422      129.822      -11.437       37.753       41.197       31.760     1425.276     1697.152     1008.703        1.056        0.207      129.823       27.258        0.044      346.833       25.364      859.778
10/08/2014  13:52:00       -4.073      292.734      -36.982       50.203      107.155       41.942     2520.299    11482.246     1759.098        5.142        0.788      292.762       51.203        0.031      346.806       25.315      859.769
10/08/2014  13:53:00      -45.113      178.073      -33.236       61.892      119.345       42.993     3830.581    14243.170     1848.393        2.738        0.996      183.699       52.829        0.083      346.571       24.912      859.767
10/08/2014  13:54:00      -92.707      153.588      -16.339       67.689      131.267       55.052     4581.770    17231.133     3030.746        2.864        1.242      179.399       70.446        0.154      346.810       25.324      859.767
10/08/2014  13:55:00       -3.457      218.749      -14.412      156.999      117.389       90.459    24648.719    13780.285     8182.876        4.733        2.331      218.777       75.619        0.119      346.820       25.337      859.743
10/08/2014  13:56:00       36.859      276.179      -37.746       60.845      106.417       43.838     3702.062    11324.660     1921.803        4.800        0.847      278.628       50.568        0.033      346.649       25.044      859.729
10/08/2014  13:57:00      -36.218      297.924      -31.930       85.471      101.272       54.747     7305.340    10256.041     2997.191        5.582        1.028      300.117       54.635        0.033      346.615       24.986      859.725
10/08/2014  13:58:00     -140.929      336.049      -40.785       66.194       99.645       51.540     4381.656     9929.176     2656.344        7.571        0.848      364.404       48.290        0.018      346.468       24.734      859.742
10/08/2014  13:59:00      -96.139      231.579      -21.486       55.646       72.209       43.283     3096.430     5214.200     1873.461        3.676        0.509      250.742       37.748        0.023      346.491       24.774      859.732
10/08/2014  14:00:00     -124.547      193.060      -37.430       59.425       61.834       45.054     3531.295     3823.403     2029.831        3.178        0.469      229.748       43.984        0.037      346.587       24.939      859.718
10/08/2014  14:01:00      -51.876      110.074      -10.367       56.626       56.956       35.088     3206.534     3243.981     1231.193        1.130        0.384      121.686       41.432        0.116      346.772       25.260      859.695
10/08/2014  14:02:00        1.971       86.501        5.112       63.000       35.135       39.061     3969.046     1234.496     1525.778        0.712        0.336       86.523       41.837        0.234      346.750       25.222      859.666
10/08/2014  14:03:00        7.315       27.781        2.961       45.257       34.945       33.244     2048.189     1221.159     1105.132        0.260        0.219       28.728       26.107        0.826      346.900       25.480      859.641
10/08/2014  14:04:00       -2.573       50.978       -1.221       46.624       24.938       24.070     2173.791      621.897      579.383        0.299        0.169       51.043       17.545        0.118      346.815       25.335      859.623
10/08/2014  14:05:00       38.363      131.207        8.601       64.291       90.397       57.580     4133.319     8171.701     3315.474        1.719        0.781      136.700       60.916        0.199      346.943       25.553      859.605
10/08/2014  14:06:00      -30.057      187.228      -14.720       43.334       71.470       40.203     1877.824     5107.999     1616.316        2.239        0.430      189.625       37.895        0.040      346.734       25.192      859.600
10/08/2014  14:07:00        4.785      208.220      -31.567       67.255      127.128       48.100     4523.245    16161.534     2313.642        3.368        1.150      208.275       66.613        0.102      346.636       25.025      859.578
10/08/2014  14:08:00      -21.850      237.524      -29.853       48.642       88.188       37.717     2366.043     7777.183     1422.546        3.467        0.578      238.527       42.517        0.032      346.583       24.932      859.554
10/08/2014  14:09:00       87.816      225.563        6.240      124.229      107.554       71.755    15432.799    11567.772     5148.811        4.538        1.607      242.055       72.533        0.090      346.811       25.326      859.529
10/08/2014  14:10:00       53.020      185.154      -12.540       63.519       91.800       61.314     4034.635     8427.271     3759.415        2.673        0.811      192.596       56.455        0.086      346.704       25.140      859.533
10/08/2014  14:11:00      112.779       86.936       11.875       96.750       57.817       43.908     9360.508     3342.843     1927.929        1.752        0.732      142.397       24.529        0.030      346.705       25.144      859.514
10/08/2014  14:12:00      153.725      125.757       21.862       74.547       51.671       34.428     5557.257     2669.849     1185.262        2.467        0.471      198.611       29.764        0.022      346.623       25.001      859.497
10/08/2014  14:13:00      263.608      137.244       26.817       89.231       74.819       74.230     7962.083     5597.899     5510.024        5.405        0.954      297.195       38.624        0.017      346.732       25.187      859.478
10/08/2014  14:14:00      202.377      157.381       20.888      128.963      108.119       79.237    16631.482    11689.682     6278.487        5.037        1.730      256.370       62.832        0.060      346.814       25.329      859.451
10/08/2014  14:15:00        2.714      220.245      -13.950      103.413       94.996       55.096    10694.300     9024.300     3035.579        3.573        1.138      220.262       62.551        0.081      346.705       25.143      859.485
10/08/2014  14:16:00       11.049      109.121        0.007       80.865       62.967       39.937     6539.185     3964.834     1595.000        1.206        0.605      109.679       41.294        0.142      346.985       25.625      859.473
10/08/2014  14:17:00      133.535      117.568       -1.366      107.944       86.787       48.815    11651.903     7531.998     2382.895        2.661        1.078      177.915       51.978        0.085      346.868       25.421      859.464
10/08/2014  14:18:00      -23.044      177.815      -18.300       63.528       64.488       39.835     4035.789     4158.670     1586.853        2.113        0.489      179.302       31.202        0.030      347.081       25.790      859.474
10/08/2014  14:19:00      -23.816      167.066       -7.421       58.391       74.993       55.771     3409.539     5623.933     3110.354        2.034        0.607      168.755       24.356        0.021      346.804       25.313      859.484
10/08/2014  14:20:00     -144.094      153.193      -36.312       72.756       89.473       47.552     5293.407     8005.410     2261.180        3.055        0.778      210.313       42.786        0.041      346.794       25.296      859.482
10/08/2014  14:21:00     -257.407      238.956      -69.753       63.120       94.395       43.532     3984.075     8910.373     1895.029        7.150        0.739      351.225       42.341        0.015      346.726       25.176      859.457
10/08/2014  14:22:00      -34.630      131.496        3.146      118.547       63.871       61.667    14053.355     4079.469     3802.845        2.021        1.097      135.979       62.731        0.213      346.908       25.493      859.454
10/08/2014  14:23:00       56.361      101.502       -8.750       47.729       78.327       47.494     2278.026     6135.157     2255.673        1.211        0.533      116.100       45.999        0.157      346.827       25.353      859.456
10/08/2014  14:24:00       63.189       71.110        2.128       43.185       45.810       24.307     1864.965     2098.597      590.818        0.680        0.228       95.129       18.990        0.040      346.850       25.394      859.431
10/08/2014  14:25:00       39.591       34.314       20.483       42.942       23.915       22.430     1844.010      571.932      503.094        0.304        0.146       52.392       14.028        0.072      346.998       25.650      859.398
10/08/2014  14:26:00      -36.321      105.656      -11.892       65.548       70.546       32.212     4296.505     4976.779     1037.602        1.147        0.516      111.724       36.487        0.107      346.997       25.647      859.411
10/08/2014  14:27:00       23.474      139.543        0.758       78.768       82.672       57.405     6204.469     6834.577     3295.290        1.818        0.817      141.503       50.792        0.129      347.022       25.688      859.411
10/08/2014  14:28:00       90.191      125.876       12.245      109.556       79.121       57.525    12002.531     6260.139     3309.118        2.285        1.079      154.852       49.229        0.101      347.044       25.727      859.390
10/08/2014  14:29:00      113.874       80.216       17.674       86.565       66.466       49.115     7493.528     4417.785     2412.235        1.702        0.716      139.291       31.846        0.052      347.008       25.665      859.381
10/08/2014  14:30:00      143.912      131.593        5.477      105.844       67.533       56.111    11202.918     4560.770     3148.429        2.848        0.946      195.007       33.694        0.030      346.815       25.330      859.372
10/08/2014  14:31:00      132.191       52.452        3.481       78.995       51.237       42.314     6240.260     2625.198     1790.448        1.544        0.533      142.217       24.200        0.029      346.616       24.990      859.362
10/08/2014  14:32:00       50.069       45.237       11.129       52.929       32.464       31.084     2801.507     1053.921      966.198        0.475        0.241       67.478       17.267        0.065      346.974       25.607      859.364
10/08/2014  14:33:00       47.387      130.645       -0.485       66.076       65.370       42.108     4366.087     4273.245     1773.064        1.486        0.521      138.974       48.430        0.121      346.925       25.524      859.370
10/08/2014  14:34:00       40.924      129.446      -11.240       43.100       83.320       33.383     1857.608     6942.242     1114.438        1.423        0.496      135.761       37.824        0.078      346.845       25.385      859.375
10/08/2014  14:35:00       24.331       43.906       13.191       45.337       54.292       29.878     2055.466     2947.640      892.672        0.429        0.295       50.197       27.657        0.304      347.106       25.835      859.358
10/08/2014  14:36:00       18.340       89.062       -0.626       44.663       75.546       36.664     1994.802     5707.128     1344.274        0.866        0.452       90.931       44.322        0.238      346.997       25.645      859.343
10/08/2014  14:37:00      -55.036      146.794      -19.550       33.976       96.042       31.561     1154.397     9223.992      996.105        1.817        0.569      156.772       35.037        0.050      346.840       25.375      859.341
10/08/2014  14:38:00      -28.684       32.793        6.891       72.261       46.447       35.644     5221.644     2157.358     1270.521        0.530        0.432       43.568       39.919        0.840      347.111       25.843      859.333
10/08/2014  14:39:00       31.591      106.142        0.274      107.113      108.409       52.135    11473.200    11752.597     2718.068        1.910        1.297      110.744       51.884        0.219      346.951       25.565      859.349
10/08/2014  14:40:00        0.603      216.127      -35.246       41.680      105.146       41.527     1737.263    11055.769     1724.513        3.123        0.726      216.128       49.174        0.052      346.949       25.561      859.336
10/08/2014  14:41:00       31.638      159.364       -8.376       56.303       85.312       51.696     3169.981     7278.214     2672.504        1.979        0.656      162.474       50.272        0.096      347.136       25.884      859.328
10/08/2014  14:42:00      -33.707      194.294       -7.404       72.193      123.030       59.376     5211.878    15136.394     3525.466        3.140        1.194      197.197       66.959        0.115      347.084       25.794      859.348
10/08/2014  14:43:00      -23.583      370.814      -48.626       38.308       66.624       30.200     1467.507     4438.711      912.034        7.362        0.341      371.564       27.902        0.006      346.653       25.052      859.348
10/08/2014  14:44:00      -59.028      216.899      -19.991       67.624      100.766       45.367     4572.946    10153.738     2058.196        3.385        0.839      224.788       48.663        0.047      346.760       25.235      859.339
10/08/2014  14:45:00      -74.219      150.988      -28.050       69.803       72.116       42.403     4872.441     5200.752     1797.982        2.048        0.594      168.243       32.097        0.036      346.969       25.597      859.322
10/08/2014  14:46:00       36.844      135.327      -13.242       60.552       98.448       58.252     3666.591     9691.992     3393.315        1.830        0.838      140.253       57.734        0.169      346.946       25.557      859.312
10/08/2014  14:47:00      -46.812       61.778      -12.663       52.024       53.655       34.377     2706.519     2878.818     1181.792        0.647        0.338       77.511       38.630        0.248      346.969       25.600      859.300
10/08/2014  14:48:00       11.905       45.238        6.779       21.904       37.496       14.981      479.806     1405.946      224.432        0.217        0.106       46.779       14.349        0.094      347.038       25.718      859.277
10/08/2014  14:49:00       97.341       48.613       17.808       54.964       36.325       34.735     3021.039     1319.473     1206.501        0.885        0.277      108.805        6.943        0.004      347.071       25.775      859.265
10/08/2014  14:50:00       39.699       52.797       38.904       57.132       78.419       40.466     3264.088     6149.554     1637.497        0.846        0.553       66.057       28.006        0.180      347.268       26.113      859.201
10/08/2014  14:51:00       33.450       65.710       29.225       50.840       46.210       54.648     2584.665     2135.378     2986.428        0.700        0.385       73.734       38.069        0.267      347.190       25.980      859.169
10/08/2014  14:52:00       24.168      206.180      -21.578       59.009       84.574       56.529     3482.072     7152.737     3195.491        2.869        0.692      207.592       49.822        0.058      347.177       25.955      859.169
10/08/2014  14:53:00        4.623      277.649      -33.598       59.055       83.246       47.094     3487.537     6929.839     2217.870        4.543        0.632      277.687       47.153        0.029      347.123       25.860      859.173
10/08/2014  14:54:00     -101.912      278.158      -40.269      102.049       90.744       46.160    10413.964     8234.418     2130.754        5.508        1.039      296.240       43.971        0.022      347.041       25.721      859.186
10/08/2014  14:55:00      -96.574      215.662      -27.814       75.119       85.250       47.820     5642.819     7267.481     2286.785        3.590        0.760      236.297       50.180        0.045      346.996       25.643      859.182
10/08/2014  14:56:00      -45.308      269.120      -29.364       33.818       46.205       25.935     1143.656     2134.885      672.614        3.965        0.198      272.907       15.848        0.003      346.818       25.332      859.166
10/08/2014  14:57:00        0.595       73.237        2.268       29.974       65.769       35.974      898.465     4325.618     1294.149        0.594        0.326       73.239       39.126        0.285      347.193       25.984      859.156
10/08/2014  14:58:00      -43.024      125.670       -7.382       31.225       87.249       35.908      975.017     7612.430     1289.362        1.379        0.494      132.831       47.302        0.127      347.285       26.143      859.143
10/08/2014  14:59:00      -34.627      246.770      -31.353       59.814       56.580       36.729     3577.756     3201.320     1348.985        3.560        0.406      249.187       30.181        0.015      347.082       25.789      859.140
10/08/2014  15:00:00      -42.956      361.878      -48.728       58.493      135.777       37.728     3421.431    18435.354     1423.370        7.922        1.164      364.418       56.287        0.024      346.957       25.575      859.152
10/08/2014  15:01:00      -72.272      376.107      -52.235       57.926       62.956       31.078     3355.385     3963.449      965.822        7.884        0.414      382.988       21.664        0.003      346.738       25.196      859.173
10/08/2014  15:02:00      -18.025      242.869      -36.509       69.288      128.819       46.097     4800.804    16594.405     2124.922        4.208        1.176      243.537       63.538        0.068      346.810       25.323      859.163
10/08/2014  15:03:00       -9.556       86.038      -10.747       58.498       40.382       24.404     3422.061     1630.736      595.542        0.663        0.282       86.567       24.364        0.079      346.949       25.565      859.131
10/08/2014  15:04:00     -115.063       74.735      -21.117      105.837      110.698       60.341    11201.461    12253.974     3641.028        2.318        1.355      137.204       39.795        0.084      347.158       25.923      859.137
10/08/2014  15:05:00     -128.714      306.298      -47.352       89.831      132.940       44.406     8069.597    17672.937     1971.875        7.017        1.386      332.243       33.003        0.010      346.925       25.518      859.162
10/08/2014  15:06:00      -35.307      304.069      -41.043       65.837      104.634       39.251     4334.462    10948.179     1540.627        5.610        0.841      306.112       42.446        0.019      346.743       25.206      859.161
10/08/2014  15:07:00       -5.660      192.270      -18.534       49.964       94.056       39.278     2496.372     8846.484     1542.729        2.511        0.644      192.353       39.377        0.042      346.888       25.458      859.161
10/08/2014  15:08:00      -58.715       23.565       -0.029      138.768       66.191       53.575    19256.531     4381.286     2870.234        1.525        1.325       63.267       59.319        0.879      347.090       25.806      859.142
10/08/2014  15:09:00      -82.334       31.376      -10.438      102.635       47.179       45.045    10534.026     2225.896     2029.027        1.133        0.739       88.110       48.964        0.309      347.235       26.056      859.127
10/08/2014  15:10:00      -90.809      176.725      -21.159       67.496      124.422       56.380     4555.690    15480.934     3178.713        3.157        1.161      198.691       72.444        0.133      347.243       26.068      859.131
10/08/2014  15:11:00      -66.380      258.043      -37.497       88.928      170.007       44.716     7908.273    28902.255     1999.499        5.560        1.941      266.444       60.482        0.052      347.223       26.033      859.129
10/08/2014  15:12:00      -47.317      220.822      -24.383       61.186      111.697       44.319     3743.768    12476.162     1964.188        3.489        0.909      225.834       41.380        0.034      347.267       26.109      859.140
10/08/2014  15:13:00     -197.908      175.284      -43.707      116.281      130.292       54.910    13521.271    16975.984     3015.098        5.265        1.676      264.371       48.519        0.034      347.038       25.714      859.142
10/08/2014  15:14:00     -149.944       10.538      -12.781       68.554       78.859       45.830     4699.624     6218.678     2100.347        1.789        0.651      150.313       42.786        0.081      347.064       25.760      859.125
10/08/2014  15:15:00        2.444      179.738      -18.783       45.440      115.912       38.146     2064.765    13435.630     1455.144        2.481        0.848      179.754       56.754        0.100      347.071       25.771      859.123
10/08/2014  15:16:00      -52.995      207.461      -19.377       50.276       72.173       43.510     2527.717     5208.962     1893.142        2.793        0.481      214.123       41.011        0.037      347.074       25.778      859.130
10/08/2014  15:17:00      -99.574      265.174      -30.537       59.447       76.763       41.330     3533.984     5892.519     1708.209        4.615        0.557      283.253       32.970        0.014      347.046       25.727      859.139
10/08/2014  15:18:00      -27.380      315.896      -39.196       57.938       72.603       33.567     3356.846     5271.250     1126.712        5.591        0.488      317.081       27.630        0.008      346.935       25.535      859.122
10/08/2014  15:19:00      -38.501      268.978      -43.644       50.259       53.546       23.112     2525.935     2867.220      534.181        4.083        0.296      271.719       15.937        0.003      346.827       25.348      859.107
10/08/2014  15:20:00      -10.534      192.637      -27.607       22.696       48.778       16.318      515.103     2379.299      266.282        2.057        0.158      192.925       19.938        0.011      346.866       25.420      859.088
10/08/2014  15:21:00      -38.226      210.898      -17.616       46.551       78.377       39.193     2166.949     6142.988     1536.076        2.805        0.492      214.334       37.812        0.031      347.042       25.724      859.089
10/08/2014  15:22:00       -3.619      166.855      -27.891       62.359       88.845       42.244     3888.650     7893.351     1784.534        2.110        0.678      166.894       44.779        0.072      347.164       25.933      859.104
10/08/2014  15:23:00      -66.719      111.313       -8.028       80.203       74.671       47.442     6432.601     5575.713     2250.790        1.558        0.713      129.777       43.443        0.112      347.292       26.154      859.078
10/08/2014  15:24:00      -39.741      154.680      -19.430       81.409      106.180       37.893     6627.461    11274.246     1435.861        2.261        0.967      159.703       45.973        0.083      347.310       26.186      859.085
10/08/2014  15:25:00      -79.449      400.895      -53.215       76.345      123.356       39.686     5828.630    15216.681     1574.988        9.624        1.131      408.692       42.615        0.011      346.913       25.499      859.088
10/08/2014  15:26:00      -40.858      289.242      -46.153       75.343      134.980       40.473     5676.590    18219.605     1638.047        5.649        1.277      292.113       46.947        0.026      346.972       25.601      859.087
10/08/2014  15:27:00      -20.169       88.527       -4.899       97.638       67.189       44.353     9533.170     4514.427     1967.220        1.214        0.801       90.796       47.894        0.278      347.131       25.877      859.044
10/08/2014  15:28:00       17.948       80.455       15.597       65.252       70.958       38.496     4257.778     5035.088     1481.906        0.890        0.539       82.433       41.981        0.259      347.323       26.209      859.041
10/08/2014  15:29:00       52.261      275.035      -19.215      103.783      163.587       83.149    10770.918    26760.820     6913.682        6.159        2.222      279.956       93.542        0.112      347.183       25.963      859.020
10/08/2014  15:30:00       37.010      371.162      -64.472       66.225      117.729       47.677     4385.695    13860.171     2273.089        8.190        1.026      373.003       51.516        0.019      347.124       25.863      859.008
10/08/2014  15:31:00      -28.563      206.560      -16.732       60.603       70.626       57.021     3672.771     4987.997     3251.375        2.784        0.596      208.525       52.320        0.063      347.310       26.183      859.013
10/08/2014  15:32:00      138.954      155.960        1.956      160.557       99.345       76.675    25778.463     9869.480     5879.113        4.257        2.076      208.882       55.946        0.072      347.271       26.117      859.004
10/08/2014  15:33:00       56.438      276.171      -12.559      114.053      178.550       88.431    13008.171    31879.949     7820.033        6.615        2.635      281.879       95.159        0.114      347.144       25.896      858.996
10/08/2014  15:34:00      -59.946      377.097      -49.315      100.614      173.075       64.799    10123.217    29954.898     4198.959        9.624        2.214      381.832       78.187        0.042      347.216       26.020      859.005
10/08/2014  15:35:00     -181.384      382.185      -53.859      107.894      132.013       60.033    11641.183    17427.465     3603.948       10.726        1.634      423.044       59.554        0.020      347.111       25.840      859.016
10/08/2014  15:36:00     -157.279      333.825      -47.491      117.090      147.324       72.585    13710.103    21704.410     5268.581        8.955        2.034      369.020       79.257        0.046      347.073       25.775      859.004
10/08/2014  15:37:00      -50.324      483.942      -57.647      113.540      147.632       54.512    12891.333    21795.089     2971.546       13.885        1.883      486.552       64.800        0.018      347.081       25.789      859.007
10/08/2014  15:38:00      -49.266      359.372      -50.842      106.266      106.929       66.859    11292.473    11433.795     4470.062        8.067        1.360      362.733       58.868        0.026      347.123       25.860      859.011
10/08/2014  15:39:00      -72.450      325.196      -43.922      103.945      119.938       55.336    10804.562    14385.033     3062.035        7.059        1.413      333.169       53.348        0.026      347.014       25.674      859.015
10/08/2014  15:40:00       18.990      316.874      -35.229      125.964      156.919       69.008    15866.936    24623.577     4762.136        7.362        2.263      317.442       74.655        0.055      347.160       25.923      859.009
10/08/2014  15:41:00      192.866      211.428        8.084      148.428      110.671       83.971    22030.876    12248.066     7051.057        6.164        2.066      286.181       58.608        0.042      347.144       25.898      858.967
10/08/2014  15:42:00       36.912      363.521      -57.411       87.405      152.275       63.087     7639.646    23187.578     3980.012        8.580        1.740      365.391       57.566        0.025      347.281       26.133      858.974
10/08/2014  15:43:00      -17.025      271.781      -36.624       85.174      104.291       54.054     7254.529    10876.531     2921.840        4.827        1.053      272.313       52.497        0.037      347.335       26.225      858.999
10/08/2014  15:44:00      -58.280      379.176      -48.274       82.530      111.131       53.084     6811.152    12350.020     2817.893        8.574        1.099      383.629       56.233        0.021      347.183       25.963      859.001
10/08/2014  15:45:00      -89.005      246.145      -34.458       98.744      113.890       54.209     9750.359    12970.973     2938.571        4.767        1.283      261.743       49.903        0.036      347.190       25.976      859.000
10/08/2014  15:46:00     -196.293      277.502      -56.149      103.900      110.251       62.436    10795.123    12155.365     3898.279        7.277        1.342      339.909       73.497        0.047      347.165       25.933      859.004
10/08/2014  15:47:00     -186.844      225.224      -44.091      100.325      127.489       56.697    10065.050    16253.320     3214.592        5.855        1.477      292.638       52.202        0.032      347.144       25.897      859.001
10/08/2014  15:48:00     -144.628      208.224      -29.467      111.293      130.940       66.405    12386.139    17145.260     4409.622        4.954        1.697      253.524       53.146        0.044      347.214       26.018      858.970
10/08/2014  15:49:00     -172.929      315.165      -49.436      117.537      123.244       61.341    13815.046    15189.163     3762.775        8.222        1.638      359.490       64.240        0.032      347.267       26.109      858.962
10/08/2014  15:50:00      -80.498      325.606      -35.529      101.090      216.968       69.588    10219.207    47075.169     4842.455        8.794        3.107      335.409      103.081        0.094      347.280       26.134      858.948
10/08/2014  15:51:00     -123.228      402.466      -61.951      114.083      152.179       59.251    13014.915    23158.497     3510.626       11.034        1.984      420.909       50.884        0.015      347.174       25.947      858.950
10/08/2014  15:52:00     -130.012      284.069      -58.989      102.446      110.421       53.122    10495.163    12192.723     2821.994        6.329        1.275      312.407       57.256        0.034      347.189       25.974      858.925
10/08/2014  15:53:00     -117.894      382.701      -20.589      129.350      205.272       89.846    16731.401    42136.438     8072.378       11.385        3.347      400.448      104.739        0.068      347.138       25.887      858.921
10/08/2014  15:54:00      -84.901      318.765      -40.549      104.258      209.013       62.774    10869.734    43686.497     3940.547        8.447        2.925      329.878       84.112        0.065      347.147       25.902      858.925
10/08/2014  15:55:00      -25.177      503.819      -62.617      114.815      138.037       68.686    13182.459    19054.202     4717.706       14.767        1.848      504.447       59.534        0.014      346.906       25.487      858.900
10/08/2014  15:56:00     -183.259      287.725      -51.683      126.445      150.798       57.648    15988.276    22740.176     3323.237        8.054        2.103      341.129       52.692        0.024      347.088       25.801      858.898
10/08/2014  15:57:00     -159.031      208.743      -37.018      113.284      110.156       70.715    12833.177    12134.247     5000.642        5.010        1.498      262.421       69.044        0.069      347.184       25.967      858.887
10/08/2014  15:58:00     -118.914      391.706      -43.009      121.229      203.137       63.901    14696.471    41264.456     4083.314       11.472        3.002      409.358       69.418        0.029      347.115       25.847      858.880
10/08/2014  15:59:00      -57.142      409.531      -47.523      106.632      169.157       66.681    11370.324    28613.971     4446.420       10.883        2.222      413.498       75.116        0.033      347.080       25.786      858.892
10/08/2014  16:00:00      -39.817      455.526      -44.474      113.398      186.186       68.398    12859.152    34665.300     4678.254       13.163        2.610      457.263       90.544        0.039      346.957       25.576      858.894
10/08/2014  16:01:00      -86.134      287.056      -17.466      127.558      151.852       86.332    16270.919    23058.979     7453.247        6.845        2.339      299.701       99.655        0.111      347.253       26.084      858.840
10/08/2014  16:02:00      -55.498      435.545      -52.766       84.090      247.561       66.708     7071.193    61286.490     4449.907       13.417        3.640      439.067       98.865        0.051      347.206       26.003      858.862
10/08/2014  16:03:00      -87.522      335.275      -41.005      120.987      144.840       69.195    14637.743    20978.683     4787.909        8.107        2.020      346.510       62.281        0.032      347.157       25.920      858.867
10/08/2014  16:04:00     -151.672      318.476      -44.436      132.161      155.028       62.503    17466.430    24033.828     3906.616        8.590        2.270      352.748       64.483        0.033      347.147       25.903      858.880
10/08/2014  16:05:00     -180.371      414.348      -65.812      105.465      128.666       71.266    11122.845    16554.978     5078.885       12.065        1.638      451.904       73.873        0.027      346.975       25.604      858.920
10/08/2014  16:06:00     -185.915      358.578      -56.539       92.764      116.643       61.185     8605.224    13605.531     3743.660        9.614        1.298      403.910       61.149        0.023      346.979       25.612      858.918
10/08/2014  16:07:00      -62.709      314.404      -41.544       71.019      131.687       43.204     5043.733    17341.359     1866.597        6.438        1.213      320.597       47.883        0.022      346.975       25.606      858.913
10/08/2014  16:08:00        9.298      389.820      -42.477      105.982      168.751       63.050    11232.285    28476.854     3975.351        9.876        2.184      389.931       77.516        0.040      346.948       25.559      858.904
10/08/2014  16:09:00      132.398      245.189      -21.352      127.891      195.240       85.148    16356.144    38118.693     7250.216        6.990        3.086      278.652      101.525        0.133      346.990       25.632      858.840
10/08/2014  16:10:00       37.156      274.090      -25.105      125.188      162.574       82.490    15672.001    26430.238     6804.554        6.301        2.445      276.597       92.122        0.111      347.107       25.833      858.816
10/08/2014  16:11:00      -48.293      230.853      -32.960       82.317       94.468       42.776     6776.020     8924.181     1829.750        3.712        0.876      235.851       46.251        0.038      347.097       25.816      858.801
10/08/2014  16:12:00      -35.832      183.859       -8.609       64.094       91.055       50.723     4108.088     8291.026     2572.817        2.506        0.749      187.318       43.935        0.055      347.255       26.088      858.807
10/08/2014  16:13:00      -88.360      347.705      -53.751      102.615       91.981       49.401    10529.868     8460.482     2440.440        7.651        1.072      358.757       42.504        0.014      347.160       25.924      858.795
10/08/2014  16:14:00      -49.488      412.760      -52.806       87.444       88.720       53.775     7646.371     7871.195     2891.778        9.701        0.920      415.716       41.684        0.010      347.088       25.800      858.777
10/08/2014  16:15:00      -81.446      271.095      -21.639      116.995      186.706       82.298    13687.833    34859.262     6772.953        6.795        2.766      283.065      101.288        0.128      347.196       25.987      858.781
10/08/2014  16:16:00     -118.624      309.719      -25.489       84.108      112.169       66.918     7074.075    12581.904     4478.011        6.739        1.207      331.659       55.081        0.028      347.064       25.758      858.792
10/08/2014  16:17:00     -155.940      216.493      -45.227       91.055      113.372       64.024     8291.066    12853.254     4099.017        4.923        1.262      266.809       70.273        0.069      347.220       26.027      858.779
10/08/2014  16:18:00      -86.851      252.047      -24.817      108.810      149.611       66.265    11839.715    22383.522     4391.031        5.514        1.931      266.591       76.480        0.082      347.061       25.756      858.791
10/08/2014  16:19:00      -81.614      198.696       -5.804       97.937      120.232       64.574     9591.663    14455.761     4169.824        3.719        1.411      214.804       74.154        0.119      347.102       25.826      858.784
10/08/2014  16:20:00      -32.505      306.352      -45.274       81.977      104.645       39.092     6720.207    10950.501     1528.223        5.808        0.960      308.072       27.597        0.008      347.104       25.827      858.766
10/08/2014  16:21:00      -88.058      206.466      -25.505       66.294       86.512       44.692     4394.853     7484.389     1997.348        3.245        0.694      224.460       36.916        0.027      347.163       25.930      858.781
10/08/2014  16:22:00     -138.905      163.744      -20.493       81.064       99.912       58.611     6571.377     9982.401     3435.237        3.325        0.999      214.725       61.531        0.082      347.316       26.194      858.783
10/08/2014  16:23:00      -41.950      181.492      -10.267       61.148       97.831       49.987     3739.020     9570.913     2498.673        2.530        0.790      186.278       40.355        0.047      347.230       26.047      858.804
10/08/2014  16:24:00      -60.421       75.887       -2.582       68.986      108.040       47.333     4759.086    11672.636     2240.447        1.404        0.934       97.003       36.577        0.142      347.252       26.085      858.774
10/08/2014  16:25:00     -211.300      196.804      -31.311      223.059      180.477       86.612    49755.184    32571.883     7501.584        8.708        4.491      288.755       78.178        0.073      347.100       25.822      858.774
10/08/2014  16:26:00     -205.706      346.225      -47.831      111.225      152.197       71.134    12370.933    23163.942     5060.024       10.253        2.030      402.724       65.601        0.027      346.971       25.599      858.779
10/08/2014  16:27:00     -191.790      280.267      -56.132      153.220      131.010       70.662    23476.306    17163.557     4993.113        8.205        2.282      339.607       88.916        0.069      346.973       25.603      858.784
10/08/2014  16:28:00      -60.685      396.410      -50.642      115.778      138.015       67.750    13404.499    19048.256     4590.040       10.021        1.852      401.028       68.978        0.030      346.901       25.478      858.769
10/08/2014  16:29:00      -14.026      340.682      -27.312      119.278      163.799       84.593    14227.312    26830.185     7156.014        8.260        2.411      340.970       92.537        0.074      346.876       25.435      858.683
10/08/2014  16:30:00      -53.808      219.591      -42.236       90.489      112.041       51.258     8188.263    12553.134     2627.358        3.813        1.168      226.087       60.858        0.072      347.053       25.742      858.673
10/08/2014  16:31:00     -229.531      164.938      -42.220      122.978      134.445       83.090    15123.701    18075.404     6903.905        6.088        2.005      282.647       73.741        0.068      347.260       26.097      858.682
10/08/2014  16:32:00     -353.653       52.890      -62.377      254.783      136.983       89.323    64914.275    18764.243     7978.557       11.169        4.583      357.586       98.697        0.076      347.229       26.042      858.713
10/08/2014  16:33:00     -317.709      324.173      -60.521      134.900      166.130       91.176    18198.109    27599.203     8313.078       13.189        2.706      453.902       88.328        0.038      347.083       25.791      858.780
10/08/2014  16:34:00     -258.390      242.692      -35.704      173.144      108.034       89.459    29978.944    11671.303     8002.833        8.829        2.483      354.492       84.733        0.057      346.910       25.494      858.812
10/08/2014  16:35:00     -127.351      334.185      -39.897      155.057      168.473       86.454    24042.558    28383.174     7474.316        9.468        2.995      357.628       86.693        0.059      346.937       25.539      858.751
10/08/2014  16:36:00      -76.840      413.112      -53.877      146.260      143.071       79.022    21391.941    20469.208     6244.406       11.378        2.405      420.197       69.990        0.028      346.911       25.494      858.757
10/08/2014  16:37:00     -101.549      432.343      -51.386      109.197      151.947       78.678    11924.041    23087.748     6190.207       12.053        2.060      444.109       83.835        0.036      346.929       25.526      858.715
10/08/2014  16:38:00     -120.557      413.377      -54.232      120.183      162.208       58.150    14443.909    26311.438     3381.434       11.624        2.207      430.598       59.930        0.019      347.032       25.704      858.701
10/08/2014  16:39:00     -154.631      389.239      -45.414      111.869      127.506       64.263    12514.578    16257.826     4129.672       10.519        1.645      418.829       64.369        0.024      346.986       25.623      858.714
10/08/2014  16:40:00     -147.864      190.591      -20.644       88.087      108.717       53.472     7759.325    11819.387     2859.224        4.052        1.122      241.224       43.034        0.032      347.173       25.946      858.721
10/08/2014  16:41:00     -131.937      129.478      -22.543      103.784       96.882       57.677    10771.017     9386.175     3326.637        2.908        1.174      184.856       58.198        0.099      347.219       26.027      858.730
10/08/2014  16:42:00      -71.131      223.388      -13.086       83.955      110.333       63.112     7048.388    12173.327     3983.088        3.917        1.160      234.439       65.359        0.078      347.108       25.836      858.702
10/08/2014  16:43:00     -149.282      140.169      -23.128       78.713       98.403       44.388     6195.697     9683.154     1970.282        3.016        0.892      204.774       31.856        0.024      347.288       26.146      858.708
10/08/2014  16:44:00     -220.069      286.606      -42.300       85.483      168.181       65.889     7307.270    28284.964     4341.311        8.614        1.997      361.349       62.537        0.030      347.247       26.073      858.716
10/08/2014  16:45:00     -183.396      242.835      -30.288       91.163      104.955       67.566     8310.607    11015.635     4565.157        5.870        1.195      304.307       52.958        0.030      347.265       26.104      858.706
10/08/2014  16:46:00     -178.324       97.491      -27.808       62.428      132.681       44.773     3897.193    17604.136     2004.588        3.279        1.175      203.234       37.794        0.035      347.405       26.347      858.683
10/08/2014  16:47:00     -347.766      -37.419      -35.841      141.629      121.683       76.114    20058.786    14806.750     5793.275        8.214        2.033      349.773       75.242        0.046      347.482       26.480      858.659
10/08/2014  16:48:00     -283.278     -146.960       -8.889      146.503      117.050       68.786    21463.171    13700.622     4731.475        7.090        1.995      319.129       74.598        0.055      347.326       26.212      858.697
10/08/2014  16:49:00     -372.474     -110.009      -21.937      153.179      127.976       60.197    23463.716    16377.977     3623.640        9.739        2.173      388.379       53.068        0.019      347.252       26.083      858.698
10/08/2014  16:50:00     -347.841      -51.045      -23.970      162.264      106.379       69.246    26329.536    11316.475     4795.002        8.330        2.122      351.566       69.682        0.039      347.235       26.054      858.694
10/08/2014  16:51:00     -223.629      -46.095       -5.866      128.994       78.228       58.772    16639.432     6119.619     3454.123        3.919        1.311      228.330       71.281        0.097      347.400       26.338      858.689
10/08/2014  16:52:00     -211.503      -35.060       -4.260       90.082       76.484       44.354     8114.713     5849.831     1967.257        3.095        0.797      214.390       33.006        0.024      347.381       26.306      858.695
10/08/2014  16:53:00     -163.098      -90.768       11.255      120.100       83.991       68.080    14424.059     7054.542     4634.860        3.054        1.306      186.654       77.120        0.171      347.301       26.168      858.675
10/08/2014  16:54:00      -36.102       52.012       12.260       71.024       55.297       40.492     5044.393     3057.755     1639.588        0.695        0.487       63.313       42.080        0.442      347.331       26.223      858.678
10/08/2014  16:55:00     -313.885      -22.781      -37.151       97.405       87.291       53.033     9487.804     7619.636     2812.509        6.017        0.996      314.711       52.156        0.027      347.316       26.194      858.672
10/08/2014  16:56:00     -316.983      -13.012      -19.656      147.794      183.533       77.653    21843.199    33684.198     6029.967        8.129        3.078      317.250       70.686        0.050      347.297       26.160      858.656
10/08/2014  16:57:00     -429.523       28.595      -33.043      181.998      167.837       65.345    33123.365    28169.256     4269.938       12.597        3.278      430.474       66.037        0.024      347.244       26.067      858.642
10/08/2014  16:58:00     -253.984     -129.057        1.798      270.144      118.326       68.094    72977.897    14001.049     4636.763        8.638        4.581      284.892       99.089        0.121      347.281       26.135      858.650
10/08/2014  16:59:00     -377.140     -103.091       -2.891      140.827      102.522       69.755    19832.174    10510.709     4865.725        9.403        1.760      390.976       65.181        0.028      347.209       26.010      858.673
10/08/2014  17:00:00     -221.546     -136.212       -2.204      143.148      111.391       69.155    20491.251    12407.868     4782.470        5.266        1.884      260.070       66.224        0.065      347.272       26.117      858.673
10/08/2014  17:01:00     -215.505      -95.181      -22.429      114.987       90.731       60.260    13221.955     8232.140     3631.228        4.054        1.254      235.588       51.780        0.048      347.362       26.273      858.666
10/08/2014  17:02:00     -191.305      -18.747       18.975      167.165      127.188       79.649    27944.258    16176.823     6344.038        4.388        2.523      192.221       92.743        0.233      347.312       26.188      858.667
10/08/2014  17:03:00     -310.089     -150.150      -11.016      135.162      107.569       68.374    18268.691    11571.182     4674.965        7.666        1.726      344.529       61.213        0.032      347.222       26.031      858.689
10/08/2014  17:04:00     -216.226      -32.885      -10.438      131.453      120.447       63.758    17279.953    14507.443     4065.044        4.189        1.793      218.712       66.144        0.091      347.330       26.219      858.694
10/08/2014  17:05:00     -290.267       16.837      -11.086      184.385      116.209       73.398    33997.717    13504.546     5387.197        6.877        2.644      290.755       92.614        0.101      347.169       25.941      858.703
10/08/2014  17:06:00     -376.229      -42.513      -14.582      163.503      156.488       79.214    26733.235    24488.497     6274.831       10.052        2.875      378.624       71.682        0.036      347.199       25.993      858.696
10/08/2014  17:07:00     -484.102     -100.326      -17.406      149.835      121.929       76.988    22450.518    14866.659     5927.144       14.398        2.162      494.388       82.244        0.028      347.131       25.874      858.674
10/08/2014  17:08:00     -408.580     -142.844       -1.281      138.969       95.362       66.075    19312.460     9093.880     4365.937       11.005        1.639      432.830       64.058        0.022      347.115       25.846      858.675
10/08/2014  17:09:00     -438.308     -106.461      -16.018      110.562       85.661       57.138    12223.905     7337.882     3264.708       11.326        1.141      451.052       59.659        0.017      347.085       25.795      858.685
10/08/2014  17:10:00     -266.580      -65.237       -2.788      159.595      116.446       64.800    25470.410    13559.639     4199.026        5.927        2.161      274.446       75.918        0.077      347.150       25.908      858.686
10/08/2014  17:11:00     -275.061      -90.274       -8.625      139.765      131.506       67.365    19534.316    17293.774     4538.011        6.262        2.068      289.496       67.464        0.054      347.171       25.943      858.693
10/08/2014  17:12:00     -327.025      -66.363      -12.626      136.550       97.679       60.493    18645.897     9541.229     3659.456        7.167        1.592      333.690       68.741        0.042      347.110       25.838      858.693
10/08/2014  17:13:00     -320.115      -77.288      -11.229      120.219       79.986       51.022    14452.687     6397.725     2603.223        6.601        1.173      329.313       47.662        0.021      347.155       25.915      858.690
10/08/2014  17:14:00     -314.032      -70.513      -15.235      158.089      108.317       53.659    24992.242    11732.646     2879.270        7.171        1.980      321.851       51.358        0.025      347.190       25.976      858.690
10/08/2014  17:15:00     -327.737     -137.237       -3.976      165.456       99.296       65.106    27375.523     9859.780     4238.753        8.386        2.074      355.311       72.492        0.042      347.080       25.788      858.706
10/08/2014  17:16:00     -373.340     -118.816      -26.494      147.880      110.923       76.751    21868.452    12303.978     5890.732        9.713        2.003      391.791       82.335        0.044      347.091       25.805      858.726
10/08/2014  17:17:00     -359.974     -150.572        1.507      209.998      169.965       88.417    44098.951    28888.257     7817.635       11.652        4.040      390.196      100.786        0.067      347.018       25.679      858.711
10/08/2014  17:18:00     -304.554      -82.933        1.175      197.416      117.980       87.256    38972.945    13919.309     7613.537        8.006        3.025      315.644      102.205        0.105      347.040       25.718      858.715
10/08/2014  17:19:00     -404.907     -112.217       -6.521      161.220      117.488       69.994    25991.915    13803.314     4899.097       11.063        2.235      420.169       73.011        0.030      347.063       25.757      858.720
10/08/2014  17:20:00     -289.894      -49.753        2.728      199.331       96.855       79.484    39732.961     9380.831     6317.733        7.097        2.772      294.132      108.756        0.137      347.021       25.685      858.717
10/08/2014  17:21:00     -337.595      -19.226      -13.266      128.335      107.062       56.948    16469.875    11462.365     3243.043        7.284        1.559      338.142       64.515        0.036      347.016       25.677      858.719
10/08/2014  17:22:00     -330.212       15.495      -27.776      134.560      118.434       55.373    18106.312    14026.520     3066.193        7.262        1.760      330.575       58.856        0.032      347.014       25.672      858.712
10/08/2014  17:23:00     -297.381      -28.290      -30.412      175.147       94.593       56.479    30676.583     8947.811     3189.925        6.648        2.141      298.724       68.961        0.053      347.024       25.690      858.719
10/08/2014  17:24:00     -318.727       -5.193      -18.680      109.536       78.594       53.806    11998.055     6177.056     2895.048        6.151        1.054      318.769       55.808        0.031      347.041       25.721      858.724
10/08/2014  17:25:00     -347.017      -74.904      -11.252      159.099      144.367       68.779    25312.609    20841.868     4730.488        8.851        2.544      355.009       72.868        0.042      346.982       25.617      858.710
10/08/2014  17:26:00     -353.814      -79.595       -7.016      152.590       93.626       56.389    23283.689     8765.833     3179.693        8.339        1.761      362.657       56.220        0.024      346.965       25.589      858.725
10/08/2014  17:27:00     -298.138      -31.053       -6.501      144.425       80.111       62.211    20858.587     6417.823     3870.257        6.051        1.557      299.751       73.421        0.060      346.989       25.630      858.727
10/08/2014  17:28:00     -306.366     -123.958       -3.531      165.437      172.795       77.722    27369.305    29858.098     6040.770        8.624        3.163      330.493       89.248        0.073      346.943       25.550      858.723
10/08/2014  17:29:00     -289.901      -68.025       -0.129      148.096      110.122       67.038    21932.383    12126.862     4494.119        6.361        1.928      297.775       77.423        0.068      346.989       25.630      858.727
10/08/2014  17:30:00     -265.457      -40.523      -16.938       98.378       98.605       53.389     9678.144     9722.933     2850.362        4.732        1.113      268.532       50.712        0.036      346.983       25.620      858.747
10/08/2014  17:31:00     -276.979      -13.601      -17.965      164.120      137.754       59.104    26935.315    18976.115     3493.267        6.331        2.470      277.313       67.994        0.060      346.987       25.626      858.734
10/08/2014  17:32:00     -271.946      -89.074      -18.863      181.276      110.475       64.917    32860.863    12204.786     4214.250        6.575        2.464      286.162       80.660        0.079      346.945       25.555      858.739
10/08/2014  17:33:00     -169.044      -26.876       11.188      157.623       90.666       58.633    24845.073     8220.339     3437.837        3.296        1.825      171.168       76.840        0.202      346.967       25.593      858.751
10/08/2014  17:34:00     -216.792      -52.027       -8.801       79.047       84.256       47.412     6248.461     7099.019     2247.893        3.269        0.780      222.947       38.876        0.030      346.950       25.562      858.763
10/08/2014  17:35:00     -157.265      -32.972       -9.494      104.371       79.542       43.412    10893.313     6326.999     1884.635        2.250        0.955      160.684       45.009        0.078      347.048       25.733      858.770
10/08/2014  17:36:00     -323.971     -118.559      -23.079      108.466      100.621       53.508    11764.886    10124.599     2863.062        7.215        1.238      344.983       30.298        0.008      346.911       25.495      858.760
10/08/2014  17:37:00     -215.711     -138.819       -9.691      156.545      109.912       59.579    24506.478    12080.714     3549.651        5.301        2.007      256.519       70.635        0.076      346.893       25.465      858.757
10/08/2014  17:38:00     -225.778     -168.420        7.715      146.845      118.006       69.193    21563.323    13925.471     4787.709        5.983        2.014      281.675       81.545        0.084      346.858       25.404      858.763
10/08/2014  17:39:00     -428.300      -51.559       -7.438      169.487      140.904       74.403    28725.966    19853.824     5535.799       12.013        2.706      431.393       78.796        0.033      346.844       25.379      858.769
10/08/2014  17:40:00     -407.167     -111.562       -5.082      187.634      115.693       76.002    35206.659    13384.910     5776.357       11.630        2.718      422.174       88.302        0.044      346.785       25.279      858.783
10/08/2014  17:41:00     -305.537     -117.084       -3.368      123.591      120.311       57.698    15274.666    14474.692     3329.098        7.007        1.654      327.203       56.466        0.030      346.814       25.328      858.778
10/08/2014  17:42:00     -440.290     -131.947      -19.811      139.664      116.248       81.414    19505.913    13513.528     6628.286       12.565        1.982      459.637       78.358        0.029      346.783       25.273      858.781
10/08/2014  17:43:00     -133.043      -63.913       39.567      143.811      125.789       68.805    20681.692    15822.995     4734.122        3.229        2.062      147.598       82.126        0.310      346.760       25.237      858.787
10/08/2014  17:44:00     -322.914      -53.584      -11.588      155.567       91.281       61.286    24201.039     8332.173     3755.960        7.178        1.814      327.329       63.874        0.038      346.777       25.265      858.799
10/08/2014  17:45:00     -235.232      -77.560       -9.763       94.312       90.572       48.487     8894.757     8203.314     2351.008        4.044        0.972      247.689       49.727        0.040      346.769       25.248      858.820
10/08/2014  17:46:00     -246.504      -24.109       -5.145      114.704      114.462       46.477    13157.042    13101.556     2160.133        4.489        1.421      247.681       43.718        0.031      346.728       25.181      858.820
10/08/2014  17:47:00     -311.048     -104.203      -13.388      126.313      118.572       73.392    15955.081    14059.436     5386.429        7.159        1.770      328.039       70.677        0.046      346.722       25.170      858.810
10/08/2014  17:48:00     -418.111     -139.953      -11.992      181.264      117.922       69.843    32856.567    13905.670     4878.025       12.309        2.582      440.913       84.704        0.037      346.651       25.048      858.811
10/08/2014  17:49:00     -357.864      -50.714      -24.146      142.449      117.650       66.867    20291.645    13841.563     4471.253        8.491        1.930      361.440       66.064        0.033      346.669       25.078      858.830
10/08/2014  17:50:00     -193.151      -18.001       -7.220      106.379       79.709       53.187    11316.451     6353.573     2828.895        2.909        1.025      193.988       52.606        0.074      346.655       25.056      858.849
10/08/2014  17:51:00     -358.167      -81.486      -12.988      117.140       93.518       53.789    13721.769     8745.671     2893.300        8.022        1.268      367.319       47.785        0.017      346.616       24.988      858.847
10/08/2014  17:52:00     -335.089      -39.735      -27.482      128.245       75.387       54.838    16446.681     5683.157     3007.214        6.987        1.257      337.436       57.137        0.029      346.636       25.022      858.842
10/08/2014  17:53:00     -273.838      -45.685      -26.497      104.026       76.372       48.221    10821.327     5832.618     2325.262        4.837        0.949      277.622       40.480        0.021      346.607       24.972      858.845
10/08/2014  17:54:00     -189.501      -56.586        2.762      117.304       76.456       58.118    13760.153     5845.457     3377.720        3.105        1.149      197.768       54.499        0.076      346.600       24.962      858.838
10/08/2014  17:55:00     -346.121     -100.473       -9.562      172.198       95.870       71.427    29652.243     9191.051     5101.772        8.696        2.197      360.409       75.993        0.044      346.550       24.875      858.843
10/08/2014  17:56:00     -314.105     -132.380      -13.302      164.095      135.807       82.670    26927.260    18443.542     6834.272        8.428        2.610      340.861       89.188        0.068      346.551       24.877      858.857
10/08/2014  17:57:00     -299.041      -73.780      -14.729      104.952       90.703       52.355    11014.936     8226.957     2741.054        5.853        1.099      308.008       53.630        0.030      346.503       24.794      858.869
10/08/2014  17:58:00     -347.634      -97.732      -23.877      149.486      115.450       62.419    22346.129    13328.687     3896.128        8.526        1.979      361.110       47.330        0.017      346.525       24.833      858.860
10/08/2014  17:59:00     -278.724      -52.922       -8.110      137.230      119.395       63.428    18832.080    14255.088     4023.140        5.883        1.856      283.704       64.283        0.051      346.547       24.870      858.877
10/08/2014  18:00:00     -267.732      -36.558      -14.484      111.695      120.878       55.635    12475.780    14611.428     3095.209        5.170        1.509      270.216       54.329        0.040      346.433       24.673      858.895
10/08/2014  18:01:00     -261.022      -21.430      -25.220      115.995      105.031       47.105    13454.730    11031.414     2218.902        4.796        1.335      261.900       37.107        0.020      346.423       24.657      858.903
10/08/2014  18:02:00     -245.687     -100.220       -3.530      115.855       83.148       53.774    13422.292     6913.629     2891.620        4.682        1.161      265.341       54.310        0.042      346.363       24.554      858.911
10/08/2014  18:03:00     -190.706      -43.009      -17.355       87.200       80.413       43.552     7603.788     6466.189     1896.755        2.724        0.798      195.496       29.363        0.023      346.308       24.459      858.918
10/08/2014  18:04:00     -322.148       -6.198      -24.437       79.463       68.840       44.145     6314.328     4738.888     1948.774        5.871        0.650      322.208       43.784        0.018      346.239       24.337      858.922
10/08/2014  18:05:00     -196.059      -54.121       -3.039       97.525       88.352       45.476     9511.183     7806.048     2068.059        3.038        0.969      203.392       44.887        0.049      346.284       24.417      858.934
10/08/2014  18:06:00     -339.368     -114.479      -20.611      117.516       73.342       47.381    13810.095     5378.994     2244.940        7.506        1.072      358.156       47.549        0.018      346.233       24.330      858.944
10/08/2014  18:07:00     -225.350      -56.734      -14.033       86.993       91.500       46.396     7567.741     8372.296     2152.563        3.614        0.905      232.382       36.598        0.025      346.211       24.293      858.942
10/08/2014  18:08:00     -260.003      -87.346      -15.131       68.289       74.740       39.505     4663.422     5586.052     1560.664        4.363        0.591      274.283       32.781        0.014      346.183       24.243      858.945
10/08/2014  18:09:00     -290.912      -56.544      -18.203      110.585       70.921       51.889    12229.117     5029.823     2692.487        5.405        0.998      296.356       58.038        0.038      346.119       24.134      858.945
10/08/2014  18:10:00     -300.106      -24.716      -15.988      131.424       98.021       62.465    17272.346     9608.082     3901.889        6.085        1.539      301.122       60.933        0.041      346.127       24.147      858.948
10/08/2014  18:11:00     -303.392        7.815      -30.629       91.112       70.315       48.751     8301.380     4944.262     2376.707        5.433        0.781      303.492       39.966        0.017      346.041       23.999      858.971
10/08/2014  18:12:00     -243.966     -113.118      -17.125      100.372       91.434       51.295    10074.575     8360.177     2631.192        4.683        1.053      268.914       51.808        0.037      345.960       23.860      858.967
10/08/2014  18:13:00     -256.986      -74.514      -13.744      105.632       90.510       52.552    11158.199     8192.020     2761.729        4.694        1.106      267.571       48.872        0.033      345.899       23.756      858.968
10/08/2014  18:14:00     -198.867      -59.632      -21.517       81.417       97.292       43.713     6628.698     9465.770     1910.839        3.078        0.900      207.616       33.753        0.026      345.875       23.716      858.978
10/08/2014  18:15:00     -348.718       -6.272      -27.010      106.883       98.492       67.275    11424.019     9700.721     4525.991        7.401        1.283      348.774       60.156        0.030      345.880       23.723      858.987
10/08/2014  18:16:00     -203.637      -58.364       -8.104      105.727       92.815       47.461    11178.281     8614.559     2252.540        3.349        1.102      211.836       52.695        0.062      345.849       23.671      859.005
10/08/2014  18:17:00     -297.425      -66.650       -9.192       88.633      126.336       53.084     7855.823    15960.802     2817.859        5.981        1.332      304.801       39.310        0.017      345.829       23.634      859.025
10/08/2014  18:18:00     -222.784      -76.476      -21.074      125.406       61.711       53.570    15726.674     3808.195     2869.748        3.916        1.120      235.545       46.638        0.039      345.838       23.653      859.032
10/08/2014  18:19:00     -201.287      -71.368      -13.529       91.444       68.051       42.727     8362.071     4630.879     1825.573        3.030        0.741      213.565       41.348        0.037      345.819       23.620      859.033
10/08/2014  18:20:00     -207.430      -73.440       -7.873       79.893       84.036       43.160     6382.871     7062.009     1862.789        3.189        0.765      220.047       28.404        0.017      345.756       23.511      859.046
10/08/2014  18:21:00     -219.660      -41.977      -10.097      109.952       66.260       41.729    12089.526     4390.417     1741.281        3.416        0.911      223.635       41.118        0.034      345.720       23.453      859.067
10/08/2014  18:22:00     -258.973      -44.231      -13.016       91.710       75.547       38.514     8410.778     5707.309     1483.339        4.239        0.780      262.723       33.782        0.017      345.692       23.400      859.068
10/08/2014  18:23:00     -261.081      -40.094      -13.144      119.786       66.538       45.156    14348.778     4427.341     2039.096        4.538        1.041      264.142       55.415        0.044      345.689       23.397      859.073
10/08/2014  18:24:00     -182.120      -34.026      -14.847       66.029       84.315       39.166     4359.849     7109.061     1533.993        2.377        0.650      185.272       28.154        0.023      345.637       23.308      859.088
10/08/2014  18:25:00     -199.991      -26.477      -20.193       80.738       76.424       41.026     6518.649     5840.614     1683.122        2.757        0.702      201.736       40.069        0.039      345.641       23.313      859.100
10/08/2014  18:26:00     -185.998      -62.209      -22.309      105.346       83.672       53.662    11097.699     7001.076     2879.624        2.997        1.049      196.125       53.768        0.075      345.614       23.268      859.098
10/08/2014  18:27:00     -233.153      -30.725      -25.684       75.546      113.979       46.229     5707.234    12991.300     2137.079        3.840        1.042      235.169       32.102        0.019      345.625       23.285      859.122
10/08/2014  18:28:00     -214.512      -30.921       -8.994      109.175       71.310       51.375    11919.162     5085.100     2639.379        3.334        0.982      216.729       50.570        0.054      345.604       23.251      859.140
10/08/2014  18:29:00     -260.357       -9.209      -13.905      126.898      103.488       56.326    16103.121    10709.818     3172.617        4.902        1.499      260.520       58.928        0.051      345.684       23.388      859.145
10/08/2014  18:30:00     -238.940      -72.979      -27.069      100.200      106.217       60.890    10040.017    11282.155     3707.574        4.409        1.251      249.836       41.498        0.028      345.649       23.325      859.163
10/08/2014  18:31:00     -305.566      -32.609      -25.605      141.624       79.636       58.086    20057.236     6341.926     3373.978        6.243        1.489      307.301       72.016        0.055      345.644       23.317      859.184
10/08/2014  18:32:00     -274.342      -60.440      -13.964      105.995      103.168       61.823    11234.941    10643.648     3822.028        5.240        1.285      280.921       60.117        0.046      345.672       23.366      859.199
10/08/2014  18:33:00     -197.158      -27.080       14.824      135.698       89.735       63.903    18413.860     8052.340     4083.589        3.518        1.527      199.009       75.436        0.144      345.607       23.254      859.208
10/08/2014  18:34:00     -255.307      -24.686      -12.806       93.809       74.436       42.263     8800.147     5540.746     1786.178        4.104        0.806      256.498       40.711        0.025      345.632       23.298      859.216
10/08/2014  18:35:00     -179.345      -38.331      -10.638       67.524       77.158       39.658     4559.453     5953.321     1572.757        2.291        0.604      183.395       30.428        0.028      345.615       23.271      859.240
10/08/2014  18:36:00     -270.908      -38.729      -18.611       91.018      101.693       51.528     8284.223    10341.402     2655.169        4.826        1.064      273.663       49.044        0.032      345.582       23.211      859.245
10/08/2014  18:37:00     -216.352      -26.092      -14.422      100.722       70.961       45.540    10144.862     5035.498     2073.918        3.247        0.863      217.919       46.779        0.046      345.516       23.099      859.258
10/08/2014  18:38:00     -219.283      -30.402      -10.830       72.980      101.071       41.182     5326.099    10215.373     1695.957        3.318        0.862      221.381       33.543        0.023      345.534       23.129      859.256
10/08/2014  18:39:00     -229.142      -23.600      -18.689       91.907       62.999       46.725     8446.978     3968.879     2183.204        3.400        0.730      230.355       49.468        0.046      345.499       23.069      859.263
10/08/2014  18:40:00     -200.902      -27.241       -9.498       89.324       72.324       47.291     7978.720     5230.789     2236.420        2.832        0.772      202.741       48.286        0.057      345.480       23.037      859.278
10/08/2014  18:41:00     -218.882      -27.493      -22.320       90.428       57.426       39.486     8177.213     3297.782     1559.178        3.110        0.652      220.602       41.797        0.036      345.488       23.050      859.295
10/08/2014  18:42:00     -181.247      -38.476      -11.046       69.209       83.632       36.204     4789.921     6994.363     1310.694        2.377        0.655      185.286       42.270        0.052      345.413       22.921      859.308
10/08/2014  18:43:00     -212.963      -53.560       -9.240       82.952       71.528       41.181     6881.115     5116.251     1695.903        3.100        0.685      219.595       32.910        0.022      345.395       22.890      859.336
10/08/2014  18:44:00     -110.635      -32.897        7.466       94.602       87.335       44.623     8949.502     7627.391     1991.204        1.597        0.928      115.422       40.737        0.125      345.309       22.746      859.347
10/08/2014  18:45:00     -264.968      -60.582      -13.081      101.022       73.319       40.779    10205.539     5375.627     1662.894        4.564        0.862      271.806       41.238        0.023      345.394       22.889      859.370
10/08/2014  18:46:00     -198.868      -43.354      -13.877       70.938       81.699       42.202     5032.242     6674.718     1781.028        2.755        0.674      203.539       38.768        0.036      345.348       22.811      859.378
10/08/2014  18:47:00     -192.521      -34.541      -18.771       70.241       47.499       31.087     4933.837     2256.136      966.403        2.338        0.408      195.595       25.849        0.017      345.311       22.748      859.401
10/08/2014  18:48:00     -242.120      -37.682      -11.709       84.763       86.707       43.475     7184.819     7518.073     1890.097        3.838        0.830      245.034       49.866        0.041      345.315       22.754      859.413
10/08/2014  18:49:00     -276.152      -47.300      -11.365      101.220       71.828       44.563    10245.440     5159.222     1985.876        4.801        0.870      280.174       41.169        0.022      345.342       22.800      859.422
10/08/2014  18:50:00     -221.749      -36.772       -4.883      109.605       85.821       42.693    12013.327     7365.253     1822.713        3.587        1.060      224.777       47.629        0.045      345.331       22.783      859.436
10/08/2014  18:51:00     -203.937      -66.236      -15.761      106.099       60.825       44.873    11257.097     3699.637     2013.553        3.160        0.849      214.424       51.119        0.057      345.300       22.728      859.444
10/08/2014  18:52:00     -201.423      -52.937       -5.290       93.951       70.035       39.580     8826.748     4904.944     1566.575        2.935        0.765      208.263       35.294        0.029      345.254       22.650      859.462
10/08/2014  18:53:00     -239.129      -52.933      -27.021      107.896       65.406       46.459    11641.486     4277.911     2158.438        3.939        0.904      244.917       49.354        0.041      345.258       22.656      859.471
10/08/2014  18:54:00     -226.287      -49.181       -7.550      102.231       60.527       41.181    10451.182     3663.505     1695.846        3.474        0.791      231.570       46.704        0.041      345.242       22.630      859.488
10/08/2014  18:55:00     -199.697       -3.404       -1.780       55.069       64.081       41.898     3032.624     4106.343     1755.457        2.439        0.445      199.726       34.038        0.029      345.222       22.596      859.509
10/08/2014  18:56:00     -210.295      -78.018       -3.902       80.863       64.468       43.210     6538.879     4156.164     1867.079        3.144        0.628      224.301       42.859        0.037      345.195       22.547      859.521
10/08/2014  18:57:00     -180.299      -45.802      -17.619       52.534       56.019       37.040     2759.867     3138.149     1371.930        2.109        0.363      186.026       24.254        0.017      345.167       22.503      859.549
10/08/2014  18:58:00     -171.494      -20.659       -3.894       76.584       78.144       45.816     5865.153     6106.512     2099.142        2.196        0.704      172.733       35.387        0.042      345.144       22.462      859.570
10/08/2014  18:59:00     -138.859      -22.864       -4.774       76.037       68.203       35.794     5781.643     4651.610     1281.232        1.577        0.586      140.729       31.216        0.049      345.067       22.332      859.602
10/08/2014  19:00:00     -180.393      -75.174       -1.968      103.305       89.397       37.409    10671.924     7991.872     1399.407        2.913        1.003      195.429       46.856        0.057      345.047       22.297      859.620
10/08/2014  19:01:00     -207.714      -31.212      -18.371       56.307       96.425       35.797     3170.425     9297.801     1281.428        2.910        0.687      210.046       23.202        0.012      345.021       22.251      859.644
10/08/2014  19:02:00     -221.304      -47.091       -7.786      108.523       83.830       43.206    11777.152     7027.445     1866.766        3.596        1.034      226.259       38.641        0.029      345.078       22.350      859.653
10/08/2014  19:03:00     -224.678      -86.100      -11.253       96.313       52.210       42.074     9276.215     2725.833     1770.234        3.589        0.689      240.611       48.717        0.041      345.097       22.381      859.671
10/08/2014  19:04:00     -171.790      -14.919      -19.123       72.395       71.229       36.674     5241.016     5073.605     1345.018        2.088        0.583      172.436       32.762        0.036      345.072       22.340      859.669
10/08/2014  19:05:00     -243.417      -66.245      -16.384       88.596       62.094       32.489     7849.168     3855.668     1055.511        3.833        0.638      252.270       22.669        0.008      345.022       22.252      859.680
10/08/2014  19:06:00     -206.424      -65.415      -23.058       80.406       50.793       34.063     6465.082     2579.911     1160.266        2.881        0.510      216.541       27.204        0.016      345.021       22.250      859.694
10/08/2014  19:07:00     -196.189      -38.781      -22.882       75.968       58.532       40.977     5771.125     3426.014     1679.094        2.570        0.544      199.985       35.774        0.032      344.956       22.140      859.704
10/08/2014  19:08:00     -168.417      -31.599       -6.796       98.172       71.262       51.045     9637.671     5078.250     2605.609        2.336        0.866      171.355       43.219        0.064      344.929       22.097      859.731
10/08/2014  19:09:00     -208.822      -70.616       -3.119      100.495       72.973       45.891    10099.183     5325.115     2105.953        3.306        0.877      220.439       51.112        0.054      344.897       22.037      859.749
10/08/2014  19:10:00     -232.288      -52.319      -14.701       77.115       76.686       47.278     5946.666     5880.690     2235.238        3.548        0.703      238.107       39.815        0.028      344.905       22.052      859.768
10/08/2014  19:11:00     -198.180      -72.183        1.233       80.636       64.875       39.994     6502.095     4208.754     1599.511        2.840        0.616      210.917       42.737        0.041      344.904       22.050      859.781
10/08/2014  19:12:00     -213.033      -45.024        3.005      104.967       66.905       42.889    11018.112     4476.256     1839.494        3.237        0.867      217.739       49.380        0.051      344.868       21.990      859.807
10/08/2014  19:13:00     -205.672      -44.151      -16.741       96.462       73.553       40.080     9304.913     5410.016     1606.383        3.042        0.816      210.358       39.841        0.036      344.869       21.990      859.826
10/08/2014  19:14:00     -216.995      -63.762       -7.044      105.124       70.927       47.322    11050.975     5030.699     2239.344        3.476        0.916      226.169       52.568        0.054      344.858       21.972      859.841
10/08/2014  19:15:00     -265.557      -70.148       -9.472       80.131       81.402       45.048     6421.002     6626.232     2029.329        4.530        0.754      274.666       42.765        0.024      344.847       21.952      859.857
10/08/2014  19:16:00     -226.463      -61.895       -9.019       99.542       75.915       48.083     9908.587     5763.059     2312.004        3.659        0.899      234.769       46.008        0.038      344.800       21.874      859.867
10/08/2014  19:17:00     -278.879      -59.684      -18.319       88.415       80.458       51.877     7817.240     6473.526     2691.271        4.932        0.849      285.194       48.374        0.029      344.833       21.929      859.883
10/08/2014  19:18:00     -239.244      -49.918       -3.276      104.477       84.989       51.782    10915.406     7223.081     2681.334        4.028        1.041      244.396       53.492        0.048      344.793       21.860      859.892
10/08/2014  19:19:00     -336.235      -42.649      -16.741      129.452       91.881       67.962    16757.891     8442.124     4618.894        7.248        1.491      338.929       74.556        0.048      344.828       21.921      859.902
10/08/2014  19:20:00     -269.668      -46.969      -18.069      117.626       84.735       49.144    13835.830     7180.068     2415.149        4.934        1.172      273.727       56.230        0.042      344.807       21.885      859.908
10/08/2014  19:21:00     -331.295      -82.110      -17.390       82.878       69.733       52.238     6868.736     4862.689     2728.832        6.563        0.723      341.319       43.202        0.016      344.863       21.980      859.917
10/08/2014  19:22:00     -288.922      -74.831      -12.626      115.348       67.924       43.980    13305.218     4613.703     1934.240        5.454        0.993      298.455       50.971        0.029      344.815       21.898      859.920
10/08/2014  19:23:00     -245.160      -77.788       -4.383      105.140       79.159       52.690    11054.506     6266.080     2776.198        4.313        1.005      257.205       55.133        0.046      344.766       21.814      859.926
10/08/2014  19:24:00     -259.376      -52.367       -4.827      105.736       83.657       52.248    11180.130     6998.486     2729.858        4.547        1.045      264.609       57.164        0.047      344.755       21.797      859.927
10/08/2014  19:25:00     -259.400      -67.777      -18.599      102.161       93.690       48.061    10436.801     8777.850     2309.824        4.687        1.076      268.108       55.430        0.043      344.736       21.764      859.933
10/08/2014  19:26:00     -337.279      -65.845       -9.007      124.941       85.570       55.740    15610.299     7322.308     3106.957        7.210        1.302      343.646       59.482        0.030      344.767       21.815      859.925
10/08/2014  19:27:00     -296.068      -80.633       -4.475      134.279       95.231       61.075    18030.821     9068.990     3730.148        6.250        1.541      306.852       61.353        0.040      344.749       21.786      859.937
10/08/2014  19:28:00     -274.811      -57.398      -12.237      111.709       89.900       56.004    12478.915     8081.987     3136.394        5.133        1.185      280.741       48.724        0.030      344.718       21.732      859.933
10/08/2014  19:29:00     -331.952      -70.150       -8.898      101.227       72.703       52.201    10246.808     5285.686     2724.900        6.672        0.913      339.283       50.428        0.022      344.730       21.753      859.938
10/08/2014  19:30:00     -298.914      -71.949      -12.671      161.382       80.644       63.197    26044.081     6503.496     3993.894        6.561        1.827      307.451       75.668        0.061      344.739       21.769      859.944
10/08/2014  19:31:00     -348.865      -94.365      -10.218       98.561       80.578       49.673     9714.178     6492.881     2467.403        7.469        0.934      361.402       47.674        0.017      344.735       21.760      859.954
10/08/2014  19:32:00     -283.837      -44.208      -14.947       85.690       87.629       51.470     7342.820     7678.911     2649.209        5.020        0.884      287.259       44.322        0.024      344.698       21.696      859.968
10/08/2014  19:33:00     -197.518      -68.046        9.466      124.934       88.025       56.102    15608.429     7748.320     3147.443        3.511        1.325      208.911       52.418        0.063      344.658       21.630      859.984
10/08/2014  19:34:00     -243.660      -74.531      -15.724      108.160       88.749       48.112    11698.670     7876.308     2314.805        4.353        1.094      254.804       37.463        0.022      344.629       21.580      859.998
10/08/2014  19:35:00     -246.690      -81.654      -16.086       93.650       86.286       52.051     8770.303     7445.313     2709.339        4.335        0.946      259.852       53.335        0.042      344.593       21.518      860.013
10/08/2014  19:36:00     -203.799      -63.441        0.071       94.791      106.244       57.046     8985.241    11287.862     3254.248        3.454        1.176      213.445       46.109        0.047      344.586       21.508      860.018
10/08/2014  19:37:00     -212.374      -46.863       -7.355      121.028       80.662       54.306    14647.753     6506.366     2949.110        3.572        1.205      217.483       59.634        0.075      344.563       21.468      860.032
10/08/2014  19:38:00     -285.575      -65.241      -13.818      127.009       88.111       53.348    16131.192     7763.488     2845.979        5.637        1.337      292.932       64.401        0.048      344.560       21.462      860.048
10/08/2014  19:39:00     -233.198      -21.474       -2.037       96.550       79.386       55.330     9321.958     6302.113     3061.363        3.676        0.934      234.184       58.807        0.063      344.507       21.371      860.049
10/08/2014  19:40:00     -179.494      -24.244        6.090       75.174       84.864       41.478     5651.070     7201.916     1720.427        2.371        0.729      181.124       37.877        0.044      344.472       21.314      860.060
10/08/2014  19:41:00     -216.310      -43.632       -1.249      110.250       72.566       47.252    12155.092     5265.891     2232.755        3.417        0.983      220.667       56.115        0.065      344.481       21.326      860.074
10/08/2014  19:42:00     -244.682      -47.145        0.455      113.602       76.555       46.391    12905.479     5860.640     2152.147        4.150        1.046      249.183       52.050        0.044      344.487       21.338      860.082
10/08/2014  19:43:00     -285.282      -63.605      -11.763       99.115       95.794       50.346     9823.750     9176.418     2534.706        5.355        1.077      292.287       47.064        0.026      344.504       21.366      860.096
10/08/2014  19:44:00     -275.210      -28.548       -7.957      128.168       78.891       52.079    16427.134     6223.767     2712.200        5.099        1.268      276.686       60.387        0.048      344.482       21.329      860.107
10/08/2014  19:45:00     -279.722      -36.861        4.504      129.876       78.678       59.266    16867.877     6190.173     3512.495        5.309        1.329      282.140       64.434        0.052      344.490       21.343      860.133
10/08/2014  19:46:00     -275.785      -36.246       -8.752      103.215       73.099       50.831    10653.259     5343.448     2583.812        4.801        0.929      278.156       52.098        0.035      344.419       21.220      860.145
10/08/2014  19:47:00     -275.550      -33.428       -0.455      132.907       76.581       62.083    17664.398     5864.662     3854.284        5.221        1.369      277.570       69.895        0.063      344.420       21.223      860.162
10/08/2014  19:48:00     -290.230      -32.987       -7.518      100.768       67.669       51.955    10154.233     4579.043     2699.319        5.140        0.872      292.099       54.068        0.034      344.406       21.199      860.158
10/08/2014  19:49:00     -270.872      -15.907       -6.244      111.874       74.753       61.086    12515.823     5587.954     3731.463        4.775        1.092      271.339       70.682        0.068      344.367       21.132      860.167
10/08/2014  19:50:00     -227.905      -22.134      -17.994       75.156       81.586       38.824     5648.454     6656.213     1507.315        3.328        0.691      228.977       27.911        0.015      344.335       21.079      860.166
10/08/2014  19:51:00     -244.218      -41.369      -15.285       88.437       71.496       47.854     7821.051     5111.638     2290.034        3.840        0.761      247.697       44.963        0.033      344.302       21.020      860.182
10/08/2014  19:52:00     -211.172      -45.429       -1.121       89.691       72.769       43.976     8044.541     5295.269     1933.866        3.096        0.764      216.004       46.924        0.047      344.221       20.883      860.180
10/08/2014  19:53:00     -212.961      -55.964        1.743      108.445       77.219       45.517    11760.379     5962.713     2071.795        3.414        0.990      220.192       52.665        0.057      344.202       20.853      860.185
10/08/2014  19:54:00     -259.572      -58.823        0.275      116.864       88.346       54.363    13657.178     7805.064     2955.373        4.762        1.221      266.154       53.616        0.041      344.198       20.843      860.191
10/08/2014  19:55:00     -212.543      -17.371        3.417      115.168       76.252       53.335    13263.703     5814.345     2844.578        3.370        1.096      213.252       56.510        0.070      344.150       20.763      860.201
10/08/2014  19:56:00     -284.891      -33.619       -2.924      146.188       91.504       53.008    21370.942     8373.055     2809.873        5.742        1.628      286.867       64.503        0.051      344.163       20.784      860.214
10/08/2014  19:57:00     -215.935      -35.007       -7.308      117.668       81.224       57.319    13845.850     6597.418     3285.508        3.581        1.186      218.754       58.084        0.071      344.067       20.620      860.210
10/08/2014  19:58:00     -252.112      -54.904       -2.274      120.963       88.613       59.074    14632.133     7852.254     3489.739        4.627        1.299      258.021       68.913        0.071      344.066       20.619      860.224
10/08/2014  19:59:00     -256.448      -90.005       -2.494      131.148       98.947       60.025    17199.797     9790.417     3602.941        5.223        1.530      271.784       61.018        0.050      344.068       20.624      860.239
10/08/2014  20:00:00     -267.631      -60.341       -5.621      100.319      108.304       64.161    10063.975    11729.842     4116.661        5.060        1.296      274.349       59.273        0.047      344.115       20.700      860.239
10/08/2014  20:01:00     -311.904      -86.939       -6.089      137.080       87.953       52.810    18790.826     7735.817     2788.868        6.709        1.466      323.794       62.410        0.037      344.128       20.723      860.247
10/08/2014  20:02:00     -297.018      -39.448       -2.102      136.552       96.661       60.990    18646.375     9343.345     3719.747        6.074        1.585      299.626       70.814        0.056      344.127       20.722      860.254
10/08/2014  20:03:00     -182.955      -50.996        0.008      100.665       77.429       48.958    10133.366     5995.292     2396.918        2.730        0.926      189.929       49.368        0.068      343.992       20.491      860.262
10/08/2014  20:04:00     -300.009      -39.508       -7.018      127.199       84.050       58.463    16179.556     7064.419     3417.885        5.913        1.333      302.599       66.536        0.048      344.009       20.521      860.252
10/08/2014  20:05:00     -301.380      -30.371      -14.991      143.031       92.529       61.649    20457.770     8561.603     3800.571        6.239        1.641      302.907       73.256        0.058      343.958       20.432      860.248
10/08/2014  20:06:00     -315.265      -61.495        0.496      137.216       98.284       56.650    18828.169     9659.775     3209.236        6.743        1.585      321.206       57.748        0.032      343.940       20.403      860.247
10/08/2014  20:07:00     -314.327      -67.931      -21.802      125.075       83.348       51.429    15643.817     6946.868     2644.961        6.456        1.262      321.584       50.540        0.025      343.957       20.432      860.242
10/08/2014  20:08:00     -344.989      -37.397      -15.315      128.090       90.637       67.981    16407.010     8215.154     4621.428        7.494        1.462      347.010       74.501        0.046      343.916       20.362      860.242
10/08/2014  20:09:00     -371.891      -32.780      -17.011      109.211       86.857       56.144    11927.012     7544.121     3152.146        8.114        1.131      373.333       53.761        0.021      343.936       20.395      860.246
10/08/2014  20:10:00     -320.338      -66.839       -9.106      141.484      111.880       67.159    20017.593    12517.206     4510.371        7.210        1.852      327.237       75.982        0.054      343.829       20.214      860.245
10/08/2014  20:11:00     -296.482      -94.577      -16.655      124.655      129.553       59.294    15538.883    16783.877     3515.776        6.648        1.792      311.201       54.952        0.031      343.822       20.202      860.232
10/08/2014  20:12:00     -333.920      -77.539      -15.945      105.133       96.008       59.827    11052.915     9217.456     3579.212        7.081        1.192      342.805       60.659        0.031      343.822       20.202      860.236
10/08/2014  20:13:00     -388.709     -103.822      -24.400      109.390      103.996       59.836    11966.152    10815.087     3580.316        9.441        1.318      402.335       54.906        0.019      343.856       20.258      860.232
10/08/2014  20:14:00     -314.646      -71.922      -14.355      119.591      103.118       62.559    14301.999    10633.240     3913.585        6.661        1.442      322.761       58.813        0.033      343.827       20.209      860.255
10/08/2014  20:15:00     -378.490      -38.786      -19.839      149.717      103.668       63.871    22415.278    10747.026     4079.560        9.119        1.862      380.472       72.822        0.037      343.824       20.206      860.260
10/08/2014  20:16:00     -347.835     -100.911       -7.581      138.761      112.069       64.281    19254.557    12559.557     4132.088        8.358        1.797      362.177       64.464        0.032      343.833       20.222      860.252
10/08/2014  20:17:00     -375.163      -77.788      -11.491      120.914      140.766       73.355    14620.181    19815.123     5380.908        9.337        1.991      383.143       63.370        0.027      343.896       20.328      860.252
10/08/2014  20:18:00     -293.634      -15.263       -4.451      166.042      115.431       77.639    27569.783    13324.338     6027.852        6.669        2.346      294.031       86.196        0.086      343.874       20.290      860.262
10/08/2014  20:19:00     -320.061      -19.881       -8.169      150.281      131.585       66.830    22584.507    17314.594     4466.203        7.363        2.218      320.678       74.588        0.054      343.915       20.359      860.275
10/08/2014  20:20:00     -306.491      -19.955       -2.053      167.900      118.067       71.116    28190.421    13939.905     5057.548        7.076        2.359      307.140       84.098        0.075      343.925       20.377      860.288
10/08/2014  20:21:00     -406.038      -89.115      -39.378      168.537      122.019       74.894    28404.738    14888.705     5609.185       11.162        2.445      415.702       88.662        0.045      343.996       20.498      860.303
10/08/2014  20:22:00     -374.818      -75.021      -32.369      180.886      138.823       65.698    32719.826    19271.901     4316.232       10.173        2.815      382.253       68.709        0.032      344.043       20.578      860.302
10/08/2014  20:23:00     -342.596      -99.461      -14.015      157.245       76.971       52.127    24726.146     5924.505     2717.263        8.041        1.668      356.742       60.251        0.029      344.052       20.596      860.333
10/08/2014  20:24:00     -355.121      -83.866      -11.833      117.004      117.076       61.847    13689.940    13706.858     3825.003        8.225        1.561      364.890       63.989        0.031      344.009       20.522      860.349
10/08/2014  20:25:00     -312.211      -54.789       -1.507      122.937      149.803       56.732    15113.494    22440.820     3218.529        7.062        2.039      316.982       57.019        0.032      344.042       20.576      860.369
10/08/2014  20:26:00     -263.835      -72.355      -15.134      154.081      111.577       53.522    23740.891    12449.423     2864.629        5.706        1.953      273.577       71.710        0.069      343.990       20.488      860.375
10/08/2014  20:27:00     -251.461       -4.622      -10.746      175.059      108.008       65.316    30645.667    11665.649     4266.126        5.497        2.329      251.504       82.562        0.108      344.004       20.514      860.383
10/08/2014  20:28:00     -262.946      -62.731      -12.056      146.299       78.780       49.705    21403.253     6206.229     2470.575        5.165        1.504      270.326       55.175        0.042      344.029       20.557      860.371
10/08/2014  20:29:00     -288.517      -61.156       -3.264      168.509      127.210       78.623    28395.410    16182.465     6181.590        6.887        2.538      294.927       86.729        0.086      344.043       20.579      860.391
10/08/2014  20:30:00     -315.353      -50.701       -3.135      147.245       96.006       65.736    21681.089     9217.203     4321.192        6.862        1.761      319.403       63.807        0.040      344.075       20.633      860.372
10/08/2014  20:31:00     -326.015      -80.920      -13.094      149.689      135.887       67.774    22406.829    18465.178     4593.366        7.923        2.273      335.908       62.972        0.035      344.037       20.568      860.399
10/08/2014  20:32:00     -230.815      -33.142        4.608      132.472      106.917       70.451    17548.944    11431.262     4963.346        4.416        1.697      233.182       61.266        0.069      343.969       20.452      860.403
10/08/2014  20:33:00     -293.424      -77.646      -14.770      124.593      100.530       62.194    15523.321    10106.199     3868.053        6.092        1.475      303.523       69.054        0.052      343.958       20.432      860.419
10/08/2014  20:34:00     -171.635      -26.450       -4.534       81.200       90.290       52.539     6593.458     8152.219     2760.345        2.384        0.875      173.661       45.614        0.069      343.960       20.438      860.408
10/08/2014  20:35:00     -219.494      -79.861      -16.311       67.442       89.208       40.290     4548.370     7958.043     1623.296        3.447        0.706      233.571       37.310        0.026      343.920       20.368      860.424
10/08/2014  20:36:00     -211.912      -72.454      -11.322       85.722       58.723       36.825     7348.230     3448.378     1356.067        3.122        0.608      223.956       43.142        0.037      343.881       20.301      860.460
10/08/2014  20:37:00     -264.150      -23.610      -17.086      123.806       98.765       55.044    15328.004     9754.599     3029.877        4.936        1.406      265.203       65.595        0.061      343.892       20.322      860.458
10/08/2014  20:38:00     -238.380      -76.883      -10.583      123.867       97.632       56.918    15343.106     9531.996     3239.705        4.548        1.406      250.472       62.832        0.063      343.922       20.372      860.455
10/08/2014  20:39:00     -353.042      -51.782      -31.296      117.743       92.607       56.922    13863.381     8576.129     3240.080        7.699        1.284      356.820       28.575        0.006      343.945       20.411      860.453
10/08/2014  20:40:00     -231.474      -87.850       -7.544      135.525      114.055       53.668    18367.089    13008.592     2880.203        4.780        1.713      247.584       58.549        0.056      344.053       20.597      860.447
10/08/2014  20:41:00     -220.636       -0.058       -6.245      108.550       95.341       55.977    11783.054     9089.920     3133.384        3.636        1.200      220.636       48.332        0.048      344.015       20.532      860.457
10/08/2014  20:42:00     -195.703      -41.116      -17.366       52.209       55.001       32.751     2725.765     3025.136     1072.602        2.356        0.341      199.975       26.000        0.017      343.986       20.483      860.474
10/08/2014  20:43:00     -183.544      -36.127        0.207       87.822       84.449       46.383     7712.617     7131.587     2151.350        2.599        0.850      187.066       51.929        0.077      343.977       20.468      860.466
10/08/2014  20:44:00     -158.801        0.890       -8.329       83.557       49.061       30.636     6981.798     2406.973      938.551        1.781        0.516      158.803       36.113        0.052      343.920       20.369      860.502
10/08/2014  20:45:00     -239.961       -4.999      -22.662      102.853       64.104       49.268    10578.756     4109.310     2427.292        3.761        0.856      240.013       53.736        0.050      343.986       20.480      860.516
10/08/2014  20:46:00     -244.971      -50.382      -25.440       98.152       74.799       45.519     9633.791     5594.909     2071.955        4.025        0.865      250.098       34.329        0.019      343.999       20.503      860.520
10/08/2014  20:47:00     -180.817      -11.979        8.187      105.228      110.200       54.703    11072.832    12144.138     2992.471        2.955        1.310      181.214       49.148        0.074      343.976       20.463      860.532
10/08/2014  20:48:00     -291.654       -7.724      -10.681      158.160       90.397       57.849    25014.627     8171.558     3346.478        6.088        1.827      291.756       68.507        0.055      344.010       20.523      860.523
10/08/2014  20:49:00     -248.575      -57.851       -6.808      107.674       61.978       51.422    11593.605     3841.326     2644.252        4.163        0.904      255.219       58.532        0.053      343.960       20.436      860.517
10/08/2014  20:50:00     -272.022      -54.071      -29.245       88.143       96.387       49.044     7769.212     9290.452     2405.297        4.862        0.973      277.344       41.298        0.022      343.963       20.442      860.536
10/08/2014  20:51:00     -282.409      -85.806       -8.145      108.958       82.993       50.807    11871.779     6887.901     2581.376        5.426        1.067      295.156       54.680        0.034      344.027       20.552      860.544
10/08/2014  20:52:00     -175.171      -70.139        2.767      113.444       84.065       41.860    12869.635     7066.936     1752.229        2.865        1.084      188.691       43.521        0.053      343.974       20.463      860.555
10/08/2014  20:53:00     -190.999      -59.310      -11.039      120.192       73.108       39.616    14446.216     5344.751     1569.445        3.074        1.068      199.996       41.446        0.043      343.898       20.332      860.572
10/08/2014  20:54:00     -266.764      -71.221      -15.547      122.720      125.713       61.062    15060.167    15803.811     3728.605        5.553        1.730      276.107       62.319        0.051      344.087       20.654      860.583
10/08/2014  20:55:00     -225.132      -70.510      -12.359      125.970       86.955       42.389    15868.325     7561.181     1796.868        4.051        1.261      235.915       54.910        0.054      343.984       20.478      860.580
10/08/2014  20:56:00      -88.653      -37.621        3.636       74.631       79.854       49.590     5569.742     6376.599     2459.157        1.184        0.720       96.305       34.276        0.127      343.856       20.262      860.599
10/08/2014  20:57:00     -150.507      -43.583      -10.331      117.900       53.786       40.023    13900.344     2892.924     1601.823        2.152        0.920      156.690       40.897        0.068      343.902       20.340      860.622
10/08/2014  20:58:00     -134.380      -32.736       -2.606       85.720       68.908       48.654     7347.944     4748.327     2367.240        1.680        0.723      138.310       28.383        0.042      343.898       20.333      860.630
10/08/2014  20:59:00     -177.603      -54.204        0.288      121.075       71.512       45.983    14659.261     5113.971     2114.449        2.818        1.094      185.690       54.305        0.086      343.861       20.268      860.637
10/08/2014  21:00:00     -167.826      -68.784       -8.559       78.881       80.871       34.187     6222.238     6540.123     1168.736        2.345        0.697      181.375       28.838        0.025      343.923       20.375      860.646
10/08/2014  21:01:00     -294.274        3.981      -14.527       90.768       83.411       46.100     8238.857     6957.338     2125.199        5.207        0.866      294.301       47.258        0.026      343.961       20.439      860.635
10/08/2014  21:02:00     -244.281      -44.261      -18.682       70.480       71.564       46.953     4967.499     5121.391     2204.548        3.714        0.615      248.258       35.615        0.021      343.951       20.419      860.628
10/08/2014  21:03:00     -275.669      -94.209       -2.534      115.313       95.895       53.823    13297.169     9195.879     2896.902        5.513        1.269      291.322       49.449        0.029      343.869       20.281      860.619
10/08/2014  21:04:00     -336.426      -91.945       -4.703      114.110      100.140       54.712    13020.992    10028.008     2993.439        7.385        1.302      348.764       57.994        0.028      343.895       20.326      860.604
10/08/2014  21:05:00     -264.512      -49.991       -1.483       87.903      102.013       52.866     7726.971    10406.555     2794.841        4.669        1.046      269.195       44.444        0.027      343.838       20.227      860.623
10/08/2014  21:06:00     -159.713      -30.514       -7.062       77.279       72.126       38.845     5972.019     5202.137     1508.963        1.958        0.634      162.602       40.188        0.061      343.747       20.073      860.653
10/08/2014  21:07:00     -187.047      -73.271       -3.928      110.007       53.803       39.760    12101.643     2894.734     1580.873        2.847        0.829      200.886       46.432        0.053      343.748       20.076      860.658
10/08/2014  21:08:00     -308.582      -55.229      -16.434       87.972       68.713       42.812     7739.040     4721.464     1832.848        5.642        0.715      313.485       39.569        0.016      343.767       20.107      860.658
10/08/2014  21:09:00     -229.688      -47.348       -9.828       89.067       84.655       36.239     7933.002     7166.545     1313.265        3.575        0.821      234.518       38.925        0.028      343.709       20.007      860.670
10/08/2014  21:10:00     -217.090      -61.311      -13.313       78.598       82.634       46.867     6177.719     6828.386     2196.509        3.313        0.760      225.581       43.073        0.036      343.688       19.973      860.686
10/08/2014  21:11:00     -239.852      -86.280      -12.075       95.008       92.445       46.995     9026.582     8546.018     2208.547        4.245        0.989      254.899       48.122        0.036      343.695       19.984      860.699
10/08/2014  21:12:00     -169.433      -55.910       10.545      118.711      120.606       66.523    14092.246    14545.910     4425.287        3.250        1.653      178.419       74.043        0.172      343.722       20.031      860.695
10/08/2014  21:13:00     -131.926      -21.304        5.131      120.083       76.060       42.417    14419.863     5785.132     1799.223        1.994        1.100      133.635       35.328        0.070      343.712       20.015      860.701
10/08/2014  21:14:00     -239.745      -49.039      -18.058      105.347       68.780       38.513    11097.986     4730.738     1483.275        3.876        0.866      244.709       35.641        0.021      343.682       19.960      860.726
10/08/2014  21:15:00     -290.954      -67.600      -16.903      133.367       93.583       52.525    17786.798     8757.739     2758.915        5.940        1.465      298.704       62.814        0.044      343.728       20.041      860.738
10/08/2014  21:16:00     -275.389      -49.891      -16.964       82.258       74.711       48.268     6766.409     5581.681     2329.782        4.664        0.734      279.872       38.041        0.018      343.712       20.011      860.735
10/08/2014  21:17:00     -306.112      -51.592      -30.977       80.175      104.555       49.926     6427.952    10931.731     2492.642        5.859        0.993      310.429       34.342        0.012      343.739       20.058      860.745
10/08/2014  21:18:00     -218.804      -49.810       -3.165      114.335       62.235       47.478    13072.422     3873.225     2254.120        3.478        0.960      224.402       58.300        0.067      343.632       19.877      860.762
10/08/2014  21:19:00     -174.290      -85.822       -9.078       63.499       53.945       35.765     4032.102     2910.083     1279.146        2.302        0.411      194.274       34.436        0.031      343.593       19.810      860.762
10/08/2014  21:20:00     -184.117      -54.144       -4.633       83.382       62.784       45.583     6952.634     3941.825     2077.775        2.491        0.649      191.913       45.598        0.056      343.576       19.783      860.761
10/08/2014  21:21:00     -172.444      -66.311       -3.509       74.654       61.338       39.616     5573.154     3762.354     1569.446        2.252        0.545      184.754       39.095        0.045      343.568       19.769      860.758
10/08/2014  21:22:00     -215.404      -49.519       -1.146      105.941      100.708       54.630    11223.397    10142.150     2984.426        3.660        1.217      221.022       57.241        0.067      343.575       19.780      860.765
10/08/2014  21:23:00     -272.790      -20.005      -16.964      108.435       77.311       54.159    11758.219     5976.933     2933.195        4.788        1.033      273.522       57.258        0.044      343.623       19.861      860.762
10/08/2014  21:24:00     -206.100      -37.992      -12.397       93.493       60.066       41.880     8740.939     3607.964     1753.918        2.909        0.705      209.573       33.664        0.026      343.600       19.823      860.768
10/08/2014  21:25:00     -264.825      -76.458      -14.592       72.701       88.026       47.735     5285.415     7748.662     2278.594        4.575        0.766      275.642       37.772        0.019      343.580       19.788      860.781
10/08/2014  21:26:00     -229.155      -42.093       -7.931      106.273       81.952       52.864    11293.985     6716.061     2794.590        3.757        1.040      232.989       55.669        0.057      343.514       19.677      860.775
10/08/2014  21:27:00     -278.490       -6.441      -21.727       89.844       85.473       42.092     8071.880     7305.645     1771.711        4.761        0.857      278.564       46.876        0.028      343.574       19.778      860.778
10/08/2014  21:28:00     -359.493      -61.799       -5.575      138.820       72.066       61.685    19270.892     5193.484     3805.058        8.067        1.413      364.766       74.197        0.041      343.660       19.924      860.783
10/08/2014  21:29:00     -243.312      -79.489       -5.045      119.953       87.096       44.527    14388.825     7585.781     1982.643        4.475        1.198      255.967       39.127        0.023      343.600       19.823      860.792
10/08/2014  21:30:00     -280.649      -84.988       -4.194      133.838      126.559       65.744    17912.592    16017.054     4322.322        6.212        1.913      293.235       69.098        0.056      343.669       19.939      860.803
10/08/2014  21:31:00     -258.167      -63.496       -0.406      112.890      102.717       62.615    12744.074    10550.726     3920.676        4.894        1.361      265.861       59.050        0.049      343.625       19.865      860.814
10/08/2014  21:32:00     -167.146      -22.487        5.038       99.272       82.906       47.763     9854.922     6873.475     2281.306        2.374        0.950      168.652       45.080        0.071      343.536       19.715      860.827
10/08/2014  21:33:00     -293.473      -35.948      -21.313      109.000       60.916       52.643    11880.936     3710.804     2771.266        5.311        0.918      295.666       58.000        0.038      343.583       19.794      860.839
10/08/2014  21:34:00     -143.627      -88.538      -13.518       67.633       64.512       39.446     4574.216     4161.813     1555.985        1.947        0.515      168.723       26.371        0.024      343.526       19.698      860.846
10/08/2014  21:35:00      -69.376      -60.849       17.254       83.196       68.361       55.210     6921.656     4673.168     3048.169        1.173        0.732       92.280       48.555        0.277      343.446       19.561      860.860
10/08/2014  21:36:00     -239.112      -47.300      -15.251      110.064       87.123       43.518    12113.986     7590.472     1893.795        4.062        1.080      243.745       50.250        0.043      343.530       19.702      860.874
10/08/2014  21:37:00     -259.630     -114.137        0.107      125.394       69.396       53.358    15723.685     4815.792     2847.050        5.191        1.169      283.610       56.308        0.039      343.537       19.715      860.870
10/08/2014  21:38:00     -171.225      -84.503        2.016      130.222       90.506       65.268    16957.737     8191.315     4259.950        3.293        1.470      190.942       59.197        0.096      343.494       19.643      860.876
10/08/2014  21:39:00     -161.733      -62.968      -11.374      107.087       93.996       45.251    11467.563     8835.326     2047.639        2.630        1.118      173.559       43.709        0.063      343.499       19.651      860.895
10/08/2014  21:40:00     -169.136      -39.878       -9.085       77.565       66.927       35.729     6016.299     4479.243     1276.563        2.102        0.589      173.773       31.928        0.034      343.470       19.601      860.889
10/08/2014  21:41:00     -166.130      -95.739       -2.576      122.079       85.457       54.082    14903.231     7302.882     2924.823        3.095        1.257      191.743       61.834        0.104      343.485       19.626      860.887
10/08/2014  21:42:00     -202.985      -66.663       -9.699      119.813       88.069       50.946    14355.111     7756.070     2595.480        3.522        1.235      213.651       56.297        0.069      343.514       19.677      860.891
10/08/2014  21:43:00     -178.544      -45.449       16.532      108.664       85.848       53.171    11807.829     7369.863     2827.206        2.811        1.100      184.238       43.530        0.056      343.477       19.614      860.895
10/08/2014  21:44:00     -170.098     -110.936      -12.936      143.661      122.165       59.789    20638.380    14924.318     3574.777        4.027        1.957      203.077       66.711        0.108      343.481       19.622      860.892
10/08/2014  21:45:00     -293.298      -49.005       -5.582      141.992       92.475       57.128    20161.796     8551.646     3263.557        6.021        1.599      297.363       67.261        0.051      343.535       19.712      860.903
10/08/2014  21:46:00     -214.894      -86.363       -2.795      108.444       75.586       40.833    11760.059     5713.261     1667.309        3.639        0.957      231.599       46.963        0.041      343.472       19.605      860.923
10/08/2014  21:47:00     -228.382      -68.124       -9.923      128.321      101.779       54.237    16466.251    10358.875     2941.696        4.333        1.488      238.326       52.305        0.048      343.477       19.613      860.923
10/08/2014  21:48:00     -209.098     -124.676       -4.334      105.689      119.025       52.596    11170.138    14166.961     2766.346        4.369        1.405      243.447       58.669        0.058      343.461       19.585      860.916
10/08/2014  21:49:00     -134.291     -104.977        7.743      103.673      104.400       61.209    10748.101    10899.330     3746.577        2.725        1.270      170.453       57.040        0.112      343.444       19.558      860.908
10/08/2014  21:50:00     -321.632     -169.784      -14.227      121.087      105.285       58.318    14662.169    11084.937     3400.998        8.081        1.457      363.694       58.318        0.026      343.508       19.666      860.911
10/08/2014  21:51:00     -257.100     -127.146      -15.962       96.895       82.508       48.167     9388.676     6807.631     2320.040        5.052        0.926      286.822       47.979        0.028      343.444       19.558      860.923
10/08/2014  21:52:00     -166.858      -41.228        5.378      111.914       98.803       46.873    12524.820     9761.970     2197.090        2.702        1.224      171.876       44.750        0.068      343.420       19.516      860.906
10/08/2014  21:53:00     -207.202      -45.651       -7.387      114.204       93.231       55.663    13042.651     8691.943     3098.401        3.495        1.242      212.171       56.959        0.072      343.441       19.552      860.902
10/08/2014  21:54:00     -222.635      -26.972       -3.379      114.521       79.772       56.706    13115.006     6363.513     3215.551        3.650        1.135      224.263       63.046        0.079      343.421       19.520      860.915
10/08/2014  21:55:00     -172.686      -27.616      -17.434       94.681       45.031       46.862     8964.463     2027.831     2196.043        2.204        0.659      174.880       51.725        0.087      343.440       19.550      860.910
10/08/2014  21:56:00     -177.142      -58.443       -8.394       85.098       50.502       44.536     7241.734     2550.466     1983.414        2.332        0.589      186.534       47.770        0.066      343.457       19.579      860.914
10/08/2014  21:57:00     -166.374      -95.501      -11.686      127.619       89.886       63.139    16286.730     8079.466     3986.499        3.264        1.418      191.835       70.143        0.134      343.481       19.622      860.913
10/08/2014  21:58:00     -149.538      -69.881       12.418      119.804      101.711       51.701    14352.981    10345.224     2673.012        2.738        1.369      165.060       55.048        0.111      343.399       19.481      860.945
10/08/2014  21:59:00     -167.175      -65.861      -10.143      115.372       76.707       49.148    13310.677     5883.913     2415.539        2.700        1.081      179.680       51.623        0.083      343.395       19.474      860.963
10/08/2014  22:00:00      -93.659       -2.097       15.748       93.041       59.895       41.823     8656.571     3587.414     1749.167        1.151        0.700       93.683       42.775        0.208      343.312       19.334      860.977
10/08/2014  22:01:00     -128.197      -19.054       11.552       79.777       49.593       40.811     6364.362     2459.468     1665.514        1.371        0.524      129.605       45.780        0.125      343.265       19.255      860.981
10/08/2014  22:02:00     -127.354      -25.969       11.723       98.498       70.121       57.909     9701.763     4916.991     3353.505        1.750        0.899      129.975       63.011        0.235      343.302       19.315      860.978
10/08/2014  22:03:00     -148.221      -57.696       10.576      112.147       93.001       51.375    12576.927     8649.225     2639.423        2.463        1.193      159.054       60.262        0.144      343.277       19.274      860.978
10/08/2014  22:04:00     -144.375      -81.264       -4.069       89.914       74.440       44.810     8084.523     5541.277     2007.911        2.155        0.782      165.674       48.268        0.085      343.247       19.223      860.983
10/08/2014  22:05:00     -206.265      -91.824       -0.613      147.037       89.701       52.247    21619.777     8046.338     2729.770        4.168        1.620      225.780       67.802        0.090      343.267       19.256      860.979
10/08/2014  22:06:00     -252.711      -58.747       -3.494      125.980       96.429       52.751    15871.018     9298.633     2782.674        4.763        1.398      259.449       65.806        0.064      343.336       19.372      860.978
10/08/2014  22:07:00     -237.401      -29.560      -15.424      116.457       90.331       39.699    13562.149     8159.670     1576.048        4.038        1.165      239.234       45.286        0.036      343.277       19.272      860.992
10/08/2014  22:08:00     -298.279      -75.459      -15.534       97.384       75.103       43.811     9483.704     5640.471     1919.382        5.597        0.852      307.675       51.493        0.028      343.288       19.291      860.987
10/08/2014  22:09:00     -235.513     -105.035      -13.930      102.381       83.546       45.874    10481.956     6979.861     2104.448        4.313        0.978      257.874       46.741        0.033      343.252       19.228      860.980
10/08/2014  22:10:00     -185.754     -110.699       -5.193      107.320       99.617       56.746    11517.678     9923.573     3220.053        3.572        1.233      216.237       67.925        0.099      343.219       19.173      860.978
10/08/2014  22:11:00     -147.499      -85.071       -0.244       90.948       59.554       37.553     8271.461     3546.722     1410.217        2.111        0.661      170.274       39.811        0.055      343.210       19.161      860.984
10/08/2014  22:12:00     -166.384      -43.036       -2.069       84.389       67.915       40.479     7121.468     4612.402     1638.581        2.145        0.669      171.860       38.831        0.051      343.220       19.176      860.999
10/08/2014  22:13:00     -180.337      -78.092       -6.471       97.180       70.881       43.901     9443.948     5024.177     1927.291        2.753        0.820      196.519       48.943        0.062      343.187       19.122      861.001
10/08/2014  22:14:00     -139.853      -87.383       -1.420      102.766       56.380       40.796    10560.882     3178.653     1664.302        2.130        0.770      164.908       42.854        0.068      343.169       19.091      860.997
10/08/2014  22:15:00     -220.024      -86.571      -10.857       79.643       81.602       41.195     6343.023     6658.878     1696.993        3.536        0.735      236.443       34.126        0.021      343.217       19.170      860.997
10/08/2014  22:16:00     -308.620      -87.674      -26.004      116.152      104.291       48.658    13491.180    10876.716     2367.607        6.517        1.337      320.832       53.891        0.028      343.253       19.231      860.994
10/08/2014  22:17:00     -285.767      -61.660      -17.903       81.816       96.834       44.669     6693.830     9376.817     1995.308        5.192        0.903      292.343       42.204        0.021      343.248       19.222      861.007
10/08/2014  22:18:00     -148.641      -24.602        2.228       74.930       62.962       41.551     5614.556     3964.194     1726.488        1.700        0.565      150.663       38.954        0.067      343.177       19.104      861.010
10/08/2014  22:19:00     -218.625      -54.822       -2.597      114.960       68.315       51.605    13215.693     4666.930     2663.058        3.567        1.027      225.394       50.106        0.049      343.181       19.108      861.018
10/08/2014  22:20:00     -221.672      -59.046      -11.867       97.374       82.449       40.755     9481.613     6797.757     1660.933        3.535        0.897      229.401       41.978        0.033      343.186       19.116      861.019
10/08/2014  22:21:00     -257.450      -48.770      -17.462      106.746       70.006       44.332    11394.731     4900.861     1965.293        4.361        0.913      262.029       46.867        0.032      343.202       19.144      861.023
10/08/2014  22:22:00     -139.069      -41.117       -5.547       67.908       58.330       38.213     4611.520     3402.343     1460.209        1.527        0.474      145.020       26.492        0.033      343.139       19.038      861.025
10/08/2014  22:23:00     -196.299      -41.932       -5.597      129.567       99.168       47.479    16787.505     9834.316     2254.263        3.459        1.444      200.727       51.715        0.066      343.152       19.058      861.025
10/08/2014  22:24:00     -171.856      -79.682       -4.168      103.279       90.016       55.125    10666.655     8102.902     3038.782        2.885        1.090      189.429       46.237        0.060      343.177       19.103      861.022
10/08/2014  22:25:00     -201.293      -25.131       -7.352       96.525       68.035       42.725     9317.005     4628.721     1825.427        2.849        0.789      202.856       39.403        0.038      343.163       19.079      861.042
10/08/2014  22:26:00     -167.721     -118.825        2.256       87.537       73.018       48.651     7662.754     5331.669     2366.935        2.881        0.768      205.547       47.341        0.053      343.184       19.115      861.048
10/08/2014  22:27:00     -185.917      -89.706       -5.767       98.737       79.463       43.142     9748.917     6314.312     1861.252        3.028        0.896      206.427       35.531        0.030      343.164       19.080      861.046
10/08/2014  22:28:00     -161.672      -35.176        1.355      109.967       66.579       44.321    12092.820     4432.727     1964.323        2.293        0.924      165.454       44.120        0.071      343.192       19.128      861.043
10/08/2014  22:29:00     -161.869      -84.279        2.732       91.277       57.085       39.709     8331.537     3258.741     1576.819        2.324        0.658      182.496       43.032        0.056      343.069       18.920      861.060
10/08/2014  22:30:00     -205.101      -75.208       -9.375      107.853       69.994       47.458    11632.206     4899.122     2252.215        3.329        0.939      218.456       49.164        0.051      343.119       19.004      861.067
10/08/2014  22:31:00     -192.914      -76.728       -7.722       98.327       80.102       60.300     9668.133     6416.353     3636.041        3.144        0.986      207.613       59.080        0.081      343.148       19.054      861.071
10/08/2014  22:32:00     -130.343      -48.358       11.810      105.002       71.783       55.546    11025.445     5152.782     3085.303        1.936        0.963      139.024       60.742        0.191      343.171       19.092      861.055
10/08/2014  22:33:00     -233.103      -62.922      -20.915       98.668      100.657       52.844     9735.298    10131.930     2792.472        4.069        1.133      241.446       49.883        0.043      343.168       19.085      861.056
10/08/2014  22:34:00     -286.617     -125.067       -3.815      115.065       89.468       53.708    13239.892     8004.602     2884.601        6.096        1.206      312.716       52.574        0.028      343.180       19.106      861.054
10/08/2014  22:35:00     -217.975      -96.568      -14.849      109.244       81.164       52.907    11934.282     6587.652     2799.189        3.919        1.066      238.408       55.515        0.054      343.229       19.190      861.058
10/08/2014  22:36:00     -303.624        0.482       -8.908      113.576       81.174       46.665    12899.518     6589.142     2177.577        5.696        1.083      303.624       41.819        0.019      343.230       19.192      861.055
10/08/2014  22:37:00     -226.831        6.643        0.421      103.387      100.588       54.356    10688.860    10117.881     2954.540        3.762        1.188      226.928       59.371        0.068      343.221       19.176      861.037
10/08/2014  22:38:00     -275.753      -24.048      -21.556      120.147       81.206       57.625    14435.194     6594.432     3320.637        5.071        1.218      276.799       65.070        0.055      343.299       19.308      861.040
10/08/2014  22:39:00     -242.235      -72.799      -19.522       87.062       60.116       40.862     7579.845     3613.938     1669.677        3.861        0.643      252.938       40.893        0.026      343.212       19.161      861.051
10/08/2014  22:40:00     -224.341      -37.314       -6.846      129.826       84.211       55.670    16854.727     7091.482     3099.196        3.940        1.352      227.423       62.818        0.076      343.174       19.096      861.054
10/08/2014  22:41:00     -247.206      -53.455        4.409      140.784       77.123       46.641    19820.180     5948.017     2175.355        4.596        1.397      252.919       48.525        0.037      343.243       19.216      861.052
10/08/2014  22:42:00     -195.493        4.282       -8.260      115.314       61.263       44.332    13297.395     3753.160     1965.362        2.866        0.951      195.540       58.497        0.089      343.140       19.039      861.058
10/08/2014  22:43:00     -173.340      -17.528       15.733       76.587       56.336       42.586     5865.582     3173.729     1813.583        2.073        0.543      174.224       39.475        0.051      343.079       18.937      861.062
10/08/2014  22:44:00     -257.667      -58.500       -7.996      102.344       77.908       51.079    10474.227     6069.582     2609.080        4.451        0.958      264.225       58.244        0.049      343.176       19.099      861.078
10/08/2014  22:45:00     -195.732      -60.022       -4.031       90.519       89.284       54.782     8193.670     7971.587     3001.062        3.054        0.958      204.729       47.945        0.055      343.161       19.075      861.073
10/08/2014  22:46:00     -172.469      -40.555       -5.573       62.562       69.655       38.982     3914.041     4851.752     1519.627        2.085        0.514      177.173       36.181        0.042      343.074       18.926      861.078
10/08/2014  22:47:00     -151.182      -78.952       -4.066       89.276       78.338       43.441     7970.188     6136.886     1887.143        2.255        0.800      170.556       47.726        0.078      343.097       18.967      861.074
10/08/2014  22:48:00     -184.026      -80.378       -2.014       96.983       60.067       50.387     9405.775     3608.104     2538.838        2.794        0.778      200.814       53.404        0.071      343.116       18.998      861.066
10/08/2014  22:49:00     -157.343      -62.825        1.809      109.781       88.384       55.062    12051.837     7811.667     3031.856        2.580        1.145      169.422       53.457        0.100      343.068       18.917      861.080
10/08/2014  22:50:00     -205.599      -56.205       -7.912       88.983       53.697       46.376     7917.996     2883.344     2150.726        2.922        0.648      213.143       47.371        0.049      343.036       18.861      861.076
10/08/2014  22:51:00     -209.122     -114.676      -13.731       68.804       47.846       33.598     4734.002     2289.215     1128.825        3.261        0.408      238.501       29.161        0.015      343.013       18.823      861.072
10/08/2014  22:52:00     -211.835     -121.370      -12.622       87.558       73.092       41.720     7666.454     5342.407     1740.520        3.725        0.737      244.141       39.140        0.026      343.007       18.813      861.072
10/08/2014  22:53:00     -179.035     -102.752        2.772       79.734       75.382       39.282     6357.472     5682.380     1543.066        2.810        0.679      206.425       42.075        0.042      342.967       18.744      861.070
10/08/2014  22:54:00     -123.199      -89.761        5.077       76.207       70.664       39.651     5807.481     4993.464     1572.170        1.781        0.619      152.431       41.599        0.074      342.895       18.623      861.072
10/08/2014  22:55:00     -213.702      -27.342       -8.730       79.596       84.704       42.140     6335.581     7174.718     1775.751        3.089        0.764      215.444       37.010        0.030      342.927       18.676      861.082
10/08/2014  22:56:00     -156.893      -33.589        2.999       72.674       52.656       42.119     5281.521     2772.676     1773.997        1.779        0.491      160.448       39.447        0.060      342.903       18.638      861.082
10/08/2014  22:57:00     -168.556      -39.697       -8.733       65.610       50.195       36.746     4304.629     2519.493     1350.255        1.912        0.409      173.168       39.173        0.051      342.883       18.603      861.084
10/08/2014  22:58:00     -160.166      -76.400       -4.804       93.444       59.445       40.803     8731.765     3533.727     1664.874        2.272        0.697      177.455       41.495        0.055      342.958       18.730      861.080
10/08/2014  22:59:00     -234.044     -107.252       -3.102      134.654       70.370       52.607    18131.679     4952.007     2767.543        4.607        1.293      257.448       52.661        0.042      342.983       18.772      861.083
10/08/2014  23:00:00     -150.238      -81.374       -2.052       86.812       70.207       44.391     7536.397     4928.965     1970.527        2.181        0.722      170.860       42.758        0.063      342.945       18.708      861.089
10/08/2014  23:01:00     -192.015      -78.159       -2.963       72.977       77.504       43.274     5325.687     6006.875     1872.601        2.809        0.660      207.313       44.533        0.046      342.980       18.767      861.091
10/08/2014  23:02:00     -209.224     -119.230      -10.690       69.842       71.646       41.463     4877.860     5133.182     1719.188        3.492        0.587      240.812       36.678        0.023      342.981       18.766      861.084
10/08/2014  23:03:00     -247.880     -100.312       -8.769       76.973       65.821       40.045     5924.768     4332.469     1603.608        4.172        0.593      267.408       37.449        0.020      343.033       18.857      861.078
10/08/2014  23:04:00     -167.104      -91.387        0.636       68.627       62.635       41.847     4709.658     3923.183     1751.149        2.333        0.519      190.460       35.549        0.035      342.911       18.650      861.085
10/08/2014  23:05:00     -256.295     -109.826      -12.671       89.661       95.385       52.376     8039.046     9098.349     2743.226        4.889        0.994      278.835       44.965        0.026      343.029       18.849      861.091
10/08/2014  23:06:00     -208.562     -100.252       -3.226      113.879       70.247       44.917    12968.397     4934.605     2017.580        3.674        0.996      231.405       47.647        0.042      343.004       18.808      861.079
10/08/2014  23:07:00     -159.974      -95.202       -4.392       79.751       77.374       43.659     6360.290     5986.746     1906.106        2.446        0.713      186.159       50.003        0.072      342.975       18.759      861.077
10/08/2014  23:08:00     -212.668     -104.973       -7.172      108.705       69.980       44.391    11816.772     4897.235     1970.590        3.749        0.934      237.164       48.498        0.042      342.975       18.757      861.061
10/08/2014  23:09:00     -177.313     -131.063       -9.983       84.055       71.489       44.613     7065.186     5110.744     1990.287        3.144        0.708      220.493       38.777        0.031      342.947       18.710      861.055
10/08/2014  23:10:00     -177.493     -115.177       -6.479       99.162       81.132       47.042     9833.029     6582.397     2212.977        3.172        0.931      211.589       44.462        0.044      343.005       18.808      861.055
10/08/2014  23:11:00     -190.130     -137.752       -5.207       83.529       58.215       40.397     6977.152     3389.002     1631.948        3.357        0.600      234.787       38.590        0.027      342.956       18.723      861.055
10/08/2014  23:12:00     -153.183      -71.999        6.472       75.390       71.301       45.629     5683.684     5083.784     2081.979        2.077        0.642      169.259       37.459        0.049      342.920       18.667      861.046
10/08/2014  23:13:00     -256.547     -101.420       -5.264      104.323       95.091       51.063    10883.217     9042.255     2607.454        4.933        1.127      275.867       56.494        0.042      342.953       18.719      861.050
10/08/2014  23:14:00     -168.659      -78.417      -11.057       72.026       62.645       35.650     5187.790     3924.402     1270.893        2.255        0.519      185.998       33.976        0.033      342.907       18.644      861.058
10/08/2014  23:15:00     -197.550      -66.842      -15.289      118.774       63.217       41.959    14107.337     3996.344     1760.587        3.179        0.993      208.552       42.427        0.041      342.931       18.683      861.061
10/08/2014  23:16:00     -160.701      -36.467        8.702       66.505       54.786       38.089     4422.971     3001.525     1450.775        1.805        0.444      164.787       36.899        0.050      342.822       18.500      861.059
10/08/2014  23:17:00     -145.249      -75.124        1.606       88.108       56.427       42.547     7763.050     3184.032     1810.246        1.975        0.638      163.527       44.660        0.075      342.856       18.556      861.054
10/08/2014  23:18:00     -123.798      -85.275       -5.062       57.325       50.969       33.025     3286.162     2597.884     1090.666        1.480        0.349      150.325       28.959        0.037      342.793       18.450      861.050
10/08/2014  23:19:00     -155.248      -74.203       -5.742       71.695       73.429       38.417     5140.242     5391.759     1475.838        2.082        0.600      172.069       31.108        0.033      342.816       18.487      861.045
10/08/2014  23:20:00     -119.296      -79.255        5.576       95.849       80.550       56.926     9187.109     6488.264     3240.598        1.973        0.946      143.223       63.290        0.195      342.749       18.375      861.047
10/08/2014  23:21:00     -213.426     -119.255      -14.684       66.429       51.856       32.959     4412.859     2689.037     1086.285        3.409        0.409      244.484       35.345        0.021      342.740       18.357      861.052
10/08/2014  23:22:00     -249.008     -105.284      -16.389       79.273       51.463       33.055     6284.163     2648.428     1092.643        4.169        0.501      270.351       30.535        0.013      342.758       18.388      861.036
10/08/2014  23:23:00     -135.983      -50.118        9.198       78.339       56.993       34.837     6136.960     3248.227     1213.649        1.584        0.530      144.925       34.859        0.058      342.705       18.300      861.038
10/08/2014  23:24:00     -178.558      -60.629       -2.435       76.908       56.607       39.973     5914.893     3204.315     1597.849        2.314        0.536      188.571       44.069        0.055      342.711       18.309      861.036
10/08/2014  23:25:00     -280.147      -86.251      -21.235       62.619       68.027       50.697     3921.162     4627.709     2570.154        4.874        0.556      293.124       40.735        0.019      342.748       18.369      861.036
10/08/2014  23:26:00     -200.392      -98.067        0.237       91.370       75.717       42.633     8348.499     5733.072     1817.547        3.283        0.795      223.101       44.324        0.039      342.656       18.213      861.041
10/08/2014  23:27:00     -147.649      -65.153       -3.908      109.642       55.664       46.519    12021.375     3098.525     2163.991        2.167        0.864      161.385       50.260        0.097      342.603       18.126      861.044
10/08/2014  23:28:00     -236.630      -97.285      -15.009       89.834       59.263       35.500     8070.166     3512.156     1260.268        3.926        0.642      255.848       41.136        0.026      342.718       18.320      861.042
10/08/2014  23:29:00     -176.566      -81.589       -8.227       89.732       70.479       34.195     8051.840     4967.329     1169.292        2.604        0.709      194.505       40.263        0.043      342.702       18.293      861.033
10/08/2014  23:30:00     -174.459      -47.690       -2.203       75.112       37.867       32.451     5641.776     1433.935     1053.092        2.042        0.406      180.860       40.968        0.051      342.572       18.073      861.042
10/08/2014  23:31:00     -209.200      -35.604       -4.728       70.257       58.244       46.437     4936.049     3392.394     2156.398        2.777        0.524      212.208       41.392        0.038      342.681       18.257      861.053
10/08/2014  23:32:00     -189.402      -41.258       -3.393       82.594       59.147       32.810     6821.831     3498.385     1076.479        2.449        0.570      193.844       40.105        0.043      342.650       18.206      861.054
10/08/2014  23:33:00     -190.144      -64.325       -5.689       64.443       55.029       39.160     4152.920     3028.213     1533.488        2.452        0.436      200.729       31.631        0.025      342.678       18.253      861.055
10/08/2014  23:34:00     -229.281      -43.381      -10.874       80.414       53.194       42.935     6466.400     2829.591     1843.438        3.285        0.557      233.349       42.030        0.032      342.711       18.307      861.068
10/08/2014  23:35:00     -190.387      -81.543       -4.045       80.637       65.334       36.078     6502.263     4268.541     1301.609        2.749        0.604      207.114       37.432        0.033      342.650       18.204      861.076
10/08/2014  23:36:00     -164.935      -66.313       -3.272       67.805       70.310       33.135     4597.479     4943.463     1097.957        2.112        0.532      177.767       27.924        0.025      342.655       18.215      861.094
10/08/2014  23:37:00     -206.196      -97.148       -1.565       62.710       57.131       39.650     3932.514     3263.908     1572.136        3.036        0.438      227.936       29.522        0.017      342.630       18.170      861.097
10/08/2014  23:38:00     -175.708      -75.307        0.569       93.883       63.926       44.529     8814.067     4086.506     1982.853        2.571        0.744      191.166       49.380        0.067      342.638       18.184      861.093
10/08/2014  23:39:00     -221.809     -100.265       -7.768       82.416       60.048       41.128     6792.428     3605.803     1691.488        3.570        0.604      243.417       39.850        0.027      342.662       18.225      861.088
10/08/2014  23:40:00     -158.589      -55.215       -6.976       45.926       51.091       36.554     2109.170     2610.311     1336.195        1.715        0.303      167.926       17.229        0.011      342.608       18.137      861.077
10/08/2014  23:41:00     -175.854      -62.800       -3.510      102.417       58.321       50.757    10489.170     3401.335     2576.237        2.567        0.823      186.731       54.600        0.085      342.593       18.109      861.085
10/08/2014  23:42:00     -191.467      -67.026       -2.435       75.928       65.394       38.529     5765.111     4276.426     1484.464        2.634        0.576      202.860       37.807        0.035      342.652       18.209      861.093
10/08/2014  23:43:00     -226.454      -64.833       -3.836       85.074       59.657       42.654     7237.569     3559.004     1819.378        3.406        0.631      235.552       40.317        0.029      342.679       18.252      861.090
10/08/2014  23:44:00     -246.547      -97.952       -9.905       92.042       76.517       42.459     8471.801     5854.854     1802.802        4.330        0.806      265.293       43.411        0.027      342.670       18.240      861.085
10/08/2014  23:45:00     -173.695      -17.384       -5.692       85.297       57.278       38.053     7275.494     3280.763     1448.015        2.125        0.600      174.563       37.199        0.045      342.605       18.130      861.081
10/08/2014  23:46:00     -173.426      -54.213       -1.334       68.731       61.135       36.110     4723.933     3737.452     1303.927        2.139        0.488      181.702       39.492        0.047      342.626       18.165      861.070
10/08/2014  23:47:00     -145.010      -36.814        0.155       70.154       45.358       32.435     4921.566     2057.339     1052.031        1.521        0.402      149.610       35.092        0.055      342.586       18.099      861.058
10/08/2014  23:48:00     -211.123      -34.620      -10.364       51.865       42.280       28.751     2690.029     1787.618      826.610        2.559        0.265      213.942       28.710        0.018      342.636       18.182      861.043
10/08/2014  23:49:00     -142.079      -63.858       -2.767       52.267       52.264       26.147     2731.885     2731.542      683.646        1.521        0.307      155.769       22.795        0.021      342.580       18.088      861.037
10/08/2014  23:50:00     -171.162      -79.544       -1.948       47.521       37.999       33.586     2258.268     1443.956     1127.995        2.023        0.242      188.742       31.044        0.027      342.560       18.054      861.025
10/08/2014  23:51:00     -177.706      -99.486      -10.438       56.405       51.898       31.077     3181.550     2693.384      965.765        2.421        0.342      203.659       24.456        0.014      342.605       18.131      861.024
10/08/2014  23:52:00     -161.226      -53.648       -1.426       53.171       45.058       26.406     2827.172     2030.181      697.257        1.721        0.278      169.918       26.621        0.025      342.547       18.032      861.030
10/08/2014  23:53:00     -173.371      -90.595       -3.127       84.382       59.991       38.267     7120.354     3598.896     1464.393        2.523        0.609      195.614       36.341        0.035      342.588       18.101      861.031
10/08/2014  23:54:00     -155.667      -39.314        2.461       71.487       62.487       36.477     5110.336     3904.566     1330.559        1.806        0.517      160.555       38.064        0.056      342.646       18.199      861.017
10/08/2014  23:55:00     -160.971      -56.535      -13.896       68.192       45.574       35.238     4650.121     2076.976     1241.732        1.863        0.398      170.610       32.875        0.037      342.627       18.167      861.014
10/08/2014  23:56:00     -160.721      -82.700      -10.355       78.312       51.392       38.424     6132.823     2641.116     1476.384        2.151        0.513      180.750       43.401        0.058      342.676       18.249      860.999
10/08/2014  23:57:00     -132.099      -53.126       -3.669       59.138       56.433       28.508     3497.354     3184.735      812.712        1.389        0.375      142.382       26.703        0.035      342.709       18.307      860.995
10/08/2014  23:58:00      -97.746      -46.708        3.448       68.610       44.243       27.391     4707.289     1957.414      750.250        0.958        0.371      108.333       32.424        0.090      342.694       18.282      861.001
10/08/2014  23:59:00     -134.011      -60.674       -0.163       65.595       46.998       32.470     4302.765     2208.825     1054.312        1.460        0.378      147.107       40.101        0.074      342.772       18.414      861.004
